<?xml version="1.0" encoding="UTF-8" standalone="no" ?>
<gpx xmlns="http://www.topografix.com/GPX/1/1" xmlns:xsi="http://www.w3.org/2001/XMLSchema-instance" xsi:schemaLocation="http://www.topografix.com/GPX/1/1 http://www.topografix.com/GPX/1/1/gpx.xsd" version="1.1" creator="VisuGPX - https://www.visugpx.com">
  <metadata>
    <name>Boucle Carnoët</name>
    <desc><![CDATA[Recherche de [b]Géocaches[/b] dans le pays de la \"[b]Teamcasimirdl[/b]\"]]></desc>
  </metadata>
  <trk>
    <name><![CDATA[boucle par Plusquéllec]]></name>
    <trkseg>
      <trkpt lat="48.36712" lon="-3.52049">
        <ele>208</ele>
        <time>2015-04-07T12:17:48.1Z</time>
      </trkpt>
      <trkpt lat="48.36714" lon="-3.52051">
        <ele>208</ele>
        <time>2015-04-07T12:17:53.1Z</time>
      </trkpt>
      <trkpt lat="48.36718" lon="-3.52055">
        <ele>208</ele>
        <time>2015-04-07T12:17:58.1Z</time>
      </trkpt>
      <trkpt lat="48.36722" lon="-3.5206">
        <ele>208</ele>
        <time>2015-04-07T12:18:04.1Z</time>
      </trkpt>
      <trkpt lat="48.36725" lon="-3.52064">
        <ele>209</ele>
        <time>2015-04-07T12:18:09.1Z</time>
      </trkpt>
      <trkpt lat="48.36731" lon="-3.52068">
        <ele>209</ele>
        <time>2015-04-07T12:18:15.1Z</time>
      </trkpt>
      <trkpt lat="48.36734" lon="-3.52071">
        <ele>209</ele>
        <time>2015-04-07T12:18:20.1Z</time>
      </trkpt>
      <trkpt lat="48.36738" lon="-3.52073">
        <ele>209</ele>
        <time>2015-04-07T12:18:26.1Z</time>
      </trkpt>
      <trkpt lat="48.36741" lon="-3.52078">
        <ele>210</ele>
        <time>2015-04-07T12:18:32.1Z</time>
      </trkpt>
      <trkpt lat="48.36744" lon="-3.52077">
        <ele>210</ele>
        <time>2015-04-07T12:18:38.1Z</time>
      </trkpt>
      <trkpt lat="48.36744" lon="-3.52078">
        <ele>210</ele>
        <time>2015-04-07T12:18:43.1Z</time>
      </trkpt>
      <trkpt lat="48.36744" lon="-3.52079">
        <ele>209</ele>
        <time>2015-04-07T12:18:48.1Z</time>
      </trkpt>
      <trkpt lat="48.36746" lon="-3.52078">
        <ele>209</ele>
        <time>2015-04-07T12:18:53.1Z</time>
      </trkpt>
      <trkpt lat="48.36748" lon="-3.52077">
        <ele>209</ele>
        <time>2015-04-07T12:18:58.1Z</time>
      </trkpt>
      <trkpt lat="48.3675" lon="-3.52076">
        <ele>209</ele>
        <time>2015-04-07T12:19:03.1Z</time>
      </trkpt>
      <trkpt lat="48.36752" lon="-3.52076">
        <ele>208</ele>
        <time>2015-04-07T12:19:08.1Z</time>
      </trkpt>
      <trkpt lat="48.36754" lon="-3.52076">
        <ele>208</ele>
        <time>2015-04-07T12:19:14.1Z</time>
      </trkpt>
      <trkpt lat="48.36755" lon="-3.52076">
        <ele>208</ele>
        <time>2015-04-07T12:19:19.1Z</time>
      </trkpt>
      <trkpt lat="48.36757" lon="-3.52076">
        <ele>208</ele>
        <time>2015-04-07T12:19:26.1Z</time>
      </trkpt>
      <trkpt lat="48.36758" lon="-3.52076">
        <ele>208</ele>
        <time>2015-04-07T12:19:31.1Z</time>
      </trkpt>
      <trkpt lat="48.36759" lon="-3.52076">
        <ele>208</ele>
        <time>2015-04-07T12:19:37.1Z</time>
      </trkpt>
      <trkpt lat="48.36759" lon="-3.52076">
        <ele>208</ele>
        <time>2015-04-07T12:19:42.1Z</time>
      </trkpt>
      <trkpt lat="48.36758" lon="-3.52076">
        <ele>209</ele>
        <time>2015-04-07T12:19:48.1Z</time>
      </trkpt>
      <trkpt lat="48.36757" lon="-3.52076">
        <ele>209</ele>
        <time>2015-04-07T12:19:53.1Z</time>
      </trkpt>
      <trkpt lat="48.36757" lon="-3.52076">
        <ele>209</ele>
        <time>2015-04-07T12:19:58.1Z</time>
      </trkpt>
      <trkpt lat="48.36756" lon="-3.52076">
        <ele>209</ele>
        <time>2015-04-07T12:20:03.1Z</time>
      </trkpt>
      <trkpt lat="48.36755" lon="-3.52076">
        <ele>208</ele>
        <time>2015-04-07T12:20:10.1Z</time>
      </trkpt>
      <trkpt lat="48.36755" lon="-3.52075">
        <ele>209</ele>
        <time>2015-04-07T12:20:16.1Z</time>
      </trkpt>
      <trkpt lat="48.36755" lon="-3.52074">
        <ele>209</ele>
        <time>2015-04-07T12:20:21.1Z</time>
      </trkpt>
      <trkpt lat="48.36754" lon="-3.52074">
        <ele>209</ele>
        <time>2015-04-07T12:20:27.1Z</time>
      </trkpt>
      <trkpt lat="48.36753" lon="-3.52074">
        <ele>209</ele>
        <time>2015-04-07T12:20:32.1Z</time>
      </trkpt>
      <trkpt lat="48.36753" lon="-3.52073">
        <ele>209</ele>
        <time>2015-04-07T12:20:38.1Z</time>
      </trkpt>
      <trkpt lat="48.36753" lon="-3.52074">
        <ele>209</ele>
        <time>2015-04-07T12:20:43.1Z</time>
      </trkpt>
      <trkpt lat="48.36752" lon="-3.52074">
        <ele>209</ele>
        <time>2015-04-07T12:20:49.1Z</time>
      </trkpt>
      <trkpt lat="48.36752" lon="-3.52074">
        <ele>209</ele>
        <time>2015-04-07T12:20:54.1Z</time>
      </trkpt>
      <trkpt lat="48.36751" lon="-3.52075">
        <ele>209</ele>
        <time>2015-04-07T12:21:03.1Z</time>
      </trkpt>
      <trkpt lat="48.36751" lon="-3.52075">
        <ele>209</ele>
        <time>2015-04-07T12:21:08.1Z</time>
      </trkpt>
      <trkpt lat="48.36752" lon="-3.52077">
        <ele>209</ele>
        <time>2015-04-07T12:21:14.1Z</time>
      </trkpt>
      <trkpt lat="48.3675" lon="-3.52077">
        <ele>209</ele>
        <time>2015-04-07T12:21:19.1Z</time>
      </trkpt>
      <trkpt lat="48.3675" lon="-3.52075">
        <ele>210</ele>
        <time>2015-04-07T12:21:24.1Z</time>
      </trkpt>
      <trkpt lat="48.36752" lon="-3.52071">
        <ele>210</ele>
        <time>2015-04-07T12:21:29.1Z</time>
      </trkpt>
      <trkpt lat="48.36755" lon="-3.52067">
        <ele>209</ele>
        <time>2015-04-07T12:21:35.1Z</time>
      </trkpt>
      <trkpt lat="48.36759" lon="-3.52065">
        <ele>209</ele>
        <time>2015-04-07T12:21:40.1Z</time>
      </trkpt>
      <trkpt lat="48.36761" lon="-3.52063">
        <ele>210</ele>
        <time>2015-04-07T12:21:45.1Z</time>
      </trkpt>
      <trkpt lat="48.36764" lon="-3.5206">
        <ele>210</ele>
        <time>2015-04-07T12:21:50.1Z</time>
      </trkpt>
      <trkpt lat="48.36768" lon="-3.52057">
        <ele>210</ele>
        <time>2015-04-07T12:21:55.1Z</time>
      </trkpt>
      <trkpt lat="48.36771" lon="-3.52048">
        <ele>210</ele>
        <time>2015-04-07T12:22:01.1Z</time>
      </trkpt>
      <trkpt lat="48.36774" lon="-3.5204">
        <ele>210</ele>
        <time>2015-04-07T12:22:06.1Z</time>
      </trkpt>
      <trkpt lat="48.36776" lon="-3.52031">
        <ele>209</ele>
        <time>2015-04-07T12:22:12.1Z</time>
      </trkpt>
      <trkpt lat="48.36777" lon="-3.52022">
        <ele>209</ele>
        <time>2015-04-07T12:22:18.1Z</time>
      </trkpt>
      <trkpt lat="48.36777" lon="-3.52013">
        <ele>209</ele>
        <time>2015-04-07T12:22:23.1Z</time>
      </trkpt>
      <trkpt lat="48.36781" lon="-3.52006">
        <ele>209</ele>
        <time>2015-04-07T12:22:29.1Z</time>
      </trkpt>
      <trkpt lat="48.36783" lon="-3.51999">
        <ele>208</ele>
        <time>2015-04-07T12:22:34.1Z</time>
      </trkpt>
      <trkpt lat="48.36786" lon="-3.51993">
        <ele>208</ele>
        <time>2015-04-07T12:22:40.1Z</time>
      </trkpt>
      <trkpt lat="48.36791" lon="-3.51988">
        <ele>208</ele>
        <time>2015-04-07T12:22:46.1Z</time>
      </trkpt>
      <trkpt lat="48.36795" lon="-3.51984">
        <ele>208</ele>
        <time>2015-04-07T12:22:51.1Z</time>
      </trkpt>
      <trkpt lat="48.368" lon="-3.5198">
        <ele>208</ele>
        <time>2015-04-07T12:22:56.1Z</time>
      </trkpt>
      <trkpt lat="48.36805" lon="-3.51975">
        <ele>207</ele>
        <time>2015-04-07T12:23:02.1Z</time>
      </trkpt>
      <trkpt lat="48.36811" lon="-3.51968">
        <ele>207</ele>
        <time>2015-04-07T12:23:08.1Z</time>
      </trkpt>
      <trkpt lat="48.36815" lon="-3.51962">
        <ele>207</ele>
        <time>2015-04-07T12:23:13.1Z</time>
      </trkpt>
      <trkpt lat="48.36821" lon="-3.51953">
        <ele>207</ele>
        <time>2015-04-07T12:23:19.1Z</time>
      </trkpt>
      <trkpt lat="48.36826" lon="-3.51946">
        <ele>207</ele>
        <time>2015-04-07T12:23:24.1Z</time>
      </trkpt>
      <trkpt lat="48.36832" lon="-3.51936">
        <ele>206</ele>
        <time>2015-04-07T12:23:30.1Z</time>
      </trkpt>
      <trkpt lat="48.36836" lon="-3.51926">
        <ele>206</ele>
        <time>2015-04-07T12:23:35.1Z</time>
      </trkpt>
      <trkpt lat="48.3684" lon="-3.5192">
        <ele>206</ele>
        <time>2015-04-07T12:23:40.1Z</time>
      </trkpt>
      <trkpt lat="48.36843" lon="-3.51911">
        <ele>206</ele>
        <time>2015-04-07T12:23:45.1Z</time>
      </trkpt>
      <trkpt lat="48.36847" lon="-3.51901">
        <ele>206</ele>
        <time>2015-04-07T12:23:51.1Z</time>
      </trkpt>
      <trkpt lat="48.36849" lon="-3.51892">
        <ele>206</ele>
        <time>2015-04-07T12:23:56.1Z</time>
      </trkpt>
      <trkpt lat="48.36851" lon="-3.51885">
        <ele>206</ele>
        <time>2015-04-07T12:24:01.1Z</time>
      </trkpt>
      <trkpt lat="48.36853" lon="-3.51876">
        <ele>205</ele>
        <time>2015-04-07T12:24:07.1Z</time>
      </trkpt>
      <trkpt lat="48.36856" lon="-3.51868">
        <ele>205</ele>
        <time>2015-04-07T12:24:12.1Z</time>
      </trkpt>
      <trkpt lat="48.36859" lon="-3.5186">
        <ele>205</ele>
        <time>2015-04-07T12:24:17.1Z</time>
      </trkpt>
      <trkpt lat="48.36864" lon="-3.51854">
        <ele>205</ele>
        <time>2015-04-07T12:24:23.1Z</time>
      </trkpt>
      <trkpt lat="48.3687" lon="-3.51849">
        <ele>206</ele>
        <time>2015-04-07T12:24:29.1Z</time>
      </trkpt>
      <trkpt lat="48.36875" lon="-3.51844">
        <ele>206</ele>
        <time>2015-04-07T12:24:35.1Z</time>
      </trkpt>
      <trkpt lat="48.3688" lon="-3.51838">
        <ele>206</ele>
        <time>2015-04-07T12:24:40.1Z</time>
      </trkpt>
      <trkpt lat="48.36885" lon="-3.51834">
        <ele>207</ele>
        <time>2015-04-07T12:24:46.1Z</time>
      </trkpt>
      <trkpt lat="48.36892" lon="-3.51829">
        <ele>207</ele>
        <time>2015-04-07T12:24:52.1Z</time>
      </trkpt>
      <trkpt lat="48.36896" lon="-3.51825">
        <ele>207</ele>
        <time>2015-04-07T12:24:58.1Z</time>
      </trkpt>
      <trkpt lat="48.36901" lon="-3.51821">
        <ele>207</ele>
        <time>2015-04-07T12:25:04.1Z</time>
      </trkpt>
      <trkpt lat="48.36905" lon="-3.51823">
        <ele>207</ele>
        <time>2015-04-07T12:25:09.1Z</time>
      </trkpt>
      <trkpt lat="48.36908" lon="-3.51828">
        <ele>207</ele>
        <time>2015-04-07T12:25:14.1Z</time>
      </trkpt>
      <trkpt lat="48.36912" lon="-3.51835">
        <ele>208</ele>
        <time>2015-04-07T12:25:20.1Z</time>
      </trkpt>
      <trkpt lat="48.36914" lon="-3.51843">
        <ele>208</ele>
        <time>2015-04-07T12:25:26.1Z</time>
      </trkpt>
      <trkpt lat="48.36914" lon="-3.5185">
        <ele>209</ele>
        <time>2015-04-07T12:25:31.1Z</time>
      </trkpt>
      <trkpt lat="48.36915" lon="-3.51857">
        <ele>209</ele>
        <time>2015-04-07T12:25:36.1Z</time>
      </trkpt>
      <trkpt lat="48.36916" lon="-3.51862">
        <ele>208</ele>
        <time>2015-04-07T12:25:43.1Z</time>
      </trkpt>
      <trkpt lat="48.36916" lon="-3.51866">
        <ele>208</ele>
        <time>2015-04-07T12:25:48.1Z</time>
      </trkpt>
      <trkpt lat="48.36916" lon="-3.51866">
        <ele>208</ele>
        <time>2015-04-07T12:25:56.1Z</time>
      </trkpt>
      <trkpt lat="48.36917" lon="-3.51867">
        <ele>208</ele>
        <time>2015-04-07T12:26:02.1Z</time>
      </trkpt>
      <trkpt lat="48.36916" lon="-3.51862">
        <ele>208</ele>
        <time>2015-04-07T12:26:08.1Z</time>
      </trkpt>
      <trkpt lat="48.36916" lon="-3.51859">
        <ele>208</ele>
        <time>2015-04-07T12:26:14.1Z</time>
      </trkpt>
      <trkpt lat="48.36916" lon="-3.51857">
        <ele>208</ele>
        <time>2015-04-07T12:26:19.1Z</time>
      </trkpt>
      <trkpt lat="48.36916" lon="-3.5186">
        <ele>209</ele>
        <time>2015-04-07T12:26:25.1Z</time>
      </trkpt>
      <trkpt lat="48.36916" lon="-3.51861">
        <ele>209</ele>
        <time>2015-04-07T12:26:30.1Z</time>
      </trkpt>
      <trkpt lat="48.36916" lon="-3.51861">
        <ele>208</ele>
        <time>2015-04-07T12:26:36.1Z</time>
      </trkpt>
      <trkpt lat="48.36916" lon="-3.51861">
        <ele>208</ele>
        <time>2015-04-07T12:26:41.1Z</time>
      </trkpt>
      <trkpt lat="48.36916" lon="-3.5186">
        <ele>208</ele>
        <time>2015-04-07T12:26:46.1Z</time>
      </trkpt>
      <trkpt lat="48.36915" lon="-3.5186">
        <ele>208</ele>
        <time>2015-04-07T12:26:51.1Z</time>
      </trkpt>
      <trkpt lat="48.36915" lon="-3.5186">
        <ele>208</ele>
        <time>2015-04-07T12:26:56.1Z</time>
      </trkpt>
      <trkpt lat="48.36915" lon="-3.51862">
        <ele>209</ele>
        <time>2015-04-07T12:27:02.1Z</time>
      </trkpt>
      <trkpt lat="48.36916" lon="-3.51858">
        <ele>208</ele>
        <time>2015-04-07T12:27:08.1Z</time>
      </trkpt>
      <trkpt lat="48.36915" lon="-3.51855">
        <ele>208</ele>
        <time>2015-04-07T12:27:14.1Z</time>
      </trkpt>
      <trkpt lat="48.36915" lon="-3.51854">
        <ele>208</ele>
        <time>2015-04-07T12:27:23.1Z</time>
      </trkpt>
      <trkpt lat="48.36915" lon="-3.51854">
        <ele>209</ele>
        <time>2015-04-07T12:27:29.1Z</time>
      </trkpt>
      <trkpt lat="48.36914" lon="-3.51854">
        <ele>209</ele>
        <time>2015-04-07T12:27:34.1Z</time>
      </trkpt>
      <trkpt lat="48.36914" lon="-3.51854">
        <ele>209</ele>
        <time>2015-04-07T12:27:39.1Z</time>
      </trkpt>
      <trkpt lat="48.36914" lon="-3.51854">
        <ele>209</ele>
        <time>2015-04-07T12:27:44.1Z</time>
      </trkpt>
      <trkpt lat="48.36913" lon="-3.51853">
        <ele>209</ele>
        <time>2015-04-07T12:27:50.1Z</time>
      </trkpt>
      <trkpt lat="48.36913" lon="-3.51852">
        <ele>209</ele>
        <time>2015-04-07T12:27:55.1Z</time>
      </trkpt>
      <trkpt lat="48.36913" lon="-3.51854">
        <ele>208</ele>
        <time>2015-04-07T12:28:01.1Z</time>
      </trkpt>
      <trkpt lat="48.36913" lon="-3.51851">
        <ele>209</ele>
        <time>2015-04-07T12:28:07.1Z</time>
      </trkpt>
      <trkpt lat="48.36913" lon="-3.51844">
        <ele>209</ele>
        <time>2015-04-07T12:28:12.1Z</time>
      </trkpt>
      <trkpt lat="48.36911" lon="-3.51837">
        <ele>208</ele>
        <time>2015-04-07T12:28:17.1Z</time>
      </trkpt>
      <trkpt lat="48.36911" lon="-3.51835">
        <ele>208</ele>
        <time>2015-04-07T12:28:23.1Z</time>
      </trkpt>
      <trkpt lat="48.36909" lon="-3.51828">
        <ele>208</ele>
        <time>2015-04-07T12:28:29.1Z</time>
      </trkpt>
      <trkpt lat="48.36904" lon="-3.51824">
        <ele>207</ele>
        <time>2015-04-07T12:28:35.1Z</time>
      </trkpt>
      <trkpt lat="48.36902" lon="-3.51822">
        <ele>207</ele>
        <time>2015-04-07T12:28:40.1Z</time>
      </trkpt>
      <trkpt lat="48.36907" lon="-3.5182">
        <ele>208</ele>
        <time>2015-04-07T12:28:46.1Z</time>
      </trkpt>
      <trkpt lat="48.3691" lon="-3.51825">
        <ele>208</ele>
        <time>2015-04-07T12:28:52.1Z</time>
      </trkpt>
      <trkpt lat="48.36912" lon="-3.51832">
        <ele>209</ele>
        <time>2015-04-07T12:28:57.1Z</time>
      </trkpt>
      <trkpt lat="48.36913" lon="-3.51836">
        <ele>209</ele>
        <time>2015-04-07T12:29:03.1Z</time>
      </trkpt>
      <trkpt lat="48.36914" lon="-3.51844">
        <ele>209</ele>
        <time>2015-04-07T12:29:09.1Z</time>
      </trkpt>
      <trkpt lat="48.36915" lon="-3.5185">
        <ele>209</ele>
        <time>2015-04-07T12:29:14.1Z</time>
      </trkpt>
      <trkpt lat="48.36915" lon="-3.51856">
        <ele>209</ele>
        <time>2015-04-07T12:29:19.1Z</time>
      </trkpt>
      <trkpt lat="48.36915" lon="-3.51859">
        <ele>209</ele>
        <time>2015-04-07T12:29:24.1Z</time>
      </trkpt>
      <trkpt lat="48.36915" lon="-3.5186">
        <ele>209</ele>
        <time>2015-04-07T12:29:30.1Z</time>
      </trkpt>
      <trkpt lat="48.36916" lon="-3.5186">
        <ele>209</ele>
        <time>2015-04-07T12:29:36.1Z</time>
      </trkpt>
      <trkpt lat="48.36915" lon="-3.5186">
        <ele>209</ele>
        <time>2015-04-07T12:29:42.1Z</time>
      </trkpt>
      <trkpt lat="48.36914" lon="-3.51862">
        <ele>208</ele>
        <time>2015-04-07T12:29:47.1Z</time>
      </trkpt>
      <trkpt lat="48.36915" lon="-3.51861">
        <ele>207</ele>
        <time>2015-04-07T12:29:53.1Z</time>
      </trkpt>
      <trkpt lat="48.36916" lon="-3.51859">
        <ele>207</ele>
        <time>2015-04-07T12:29:59.1Z</time>
      </trkpt>
      <trkpt lat="48.36918" lon="-3.51858">
        <ele>208</ele>
        <time>2015-04-07T12:30:06.1Z</time>
      </trkpt>
      <trkpt lat="48.36918" lon="-3.5186">
        <ele>209</ele>
        <time>2015-04-07T12:30:12.1Z</time>
      </trkpt>
      <trkpt lat="48.36917" lon="-3.51859">
        <ele>209</ele>
        <time>2015-04-07T12:30:17.1Z</time>
      </trkpt>
      <trkpt lat="48.36917" lon="-3.51859">
        <ele>208</ele>
        <time>2015-04-07T12:30:22.1Z</time>
      </trkpt>
      <trkpt lat="48.36916" lon="-3.51859">
        <ele>207</ele>
        <time>2015-04-07T12:30:29.1Z</time>
      </trkpt>
      <trkpt lat="48.36917" lon="-3.51858">
        <ele>208</ele>
        <time>2015-04-07T12:30:35.1Z</time>
      </trkpt>
      <trkpt lat="48.36917" lon="-3.51858">
        <ele>208</ele>
        <time>2015-04-07T12:30:40.1Z</time>
      </trkpt>
      <trkpt lat="48.36918" lon="-3.51858">
        <ele>208</ele>
        <time>2015-04-07T12:30:46.1Z</time>
      </trkpt>
      <trkpt lat="48.36919" lon="-3.51858">
        <ele>207</ele>
        <time>2015-04-07T12:30:51.1Z</time>
      </trkpt>
      <trkpt lat="48.36919" lon="-3.51859">
        <ele>208</ele>
        <time>2015-04-07T12:30:57.1Z</time>
      </trkpt>
      <trkpt lat="48.36919" lon="-3.51859">
        <ele>208</ele>
        <time>2015-04-07T12:31:02.1Z</time>
      </trkpt>
      <trkpt lat="48.36919" lon="-3.51858">
        <ele>208</ele>
        <time>2015-04-07T12:31:07.1Z</time>
      </trkpt>
      <trkpt lat="48.36919" lon="-3.51856">
        <ele>207</ele>
        <time>2015-04-07T12:31:13.1Z</time>
      </trkpt>
      <trkpt lat="48.36919" lon="-3.51856">
        <ele>208</ele>
        <time>2015-04-07T12:31:19.1Z</time>
      </trkpt>
      <trkpt lat="48.36919" lon="-3.51855">
        <ele>207</ele>
        <time>2015-04-07T12:31:24.1Z</time>
      </trkpt>
      <trkpt lat="48.36917" lon="-3.51854">
        <ele>207</ele>
        <time>2015-04-07T12:31:30.1Z</time>
      </trkpt>
      <trkpt lat="48.36918" lon="-3.51852">
        <ele>207</ele>
        <time>2015-04-07T12:31:36.1Z</time>
      </trkpt>
      <trkpt lat="48.36919" lon="-3.5185">
        <ele>207</ele>
        <time>2015-04-07T12:31:41.1Z</time>
      </trkpt>
      <trkpt lat="48.3692" lon="-3.51848">
        <ele>208</ele>
        <time>2015-04-07T12:31:47.1Z</time>
      </trkpt>
      <trkpt lat="48.36922" lon="-3.51849">
        <ele>208</ele>
        <time>2015-04-07T12:31:52.1Z</time>
      </trkpt>
      <trkpt lat="48.36921" lon="-3.51852">
        <ele>209</ele>
        <time>2015-04-07T12:31:57.1Z</time>
      </trkpt>
      <trkpt lat="48.36923" lon="-3.51853">
        <ele>208</ele>
        <time>2015-04-07T12:32:03.1Z</time>
      </trkpt>
      <trkpt lat="48.36922" lon="-3.51853">
        <ele>208</ele>
        <time>2015-04-07T12:32:08.1Z</time>
      </trkpt>
      <trkpt lat="48.36921" lon="-3.51852">
        <ele>209</ele>
        <time>2015-04-07T12:32:14.1Z</time>
      </trkpt>
      <trkpt lat="48.36922" lon="-3.51855">
        <ele>209</ele>
        <time>2015-04-07T12:32:19.1Z</time>
      </trkpt>
      <trkpt lat="48.36921" lon="-3.51861">
        <ele>209</ele>
        <time>2015-04-07T12:32:25.1Z</time>
      </trkpt>
      <trkpt lat="48.3692" lon="-3.51867">
        <ele>209</ele>
        <time>2015-04-07T12:32:30.1Z</time>
      </trkpt>
      <trkpt lat="48.36921" lon="-3.51874">
        <ele>209</ele>
        <time>2015-04-07T12:32:36.1Z</time>
      </trkpt>
      <trkpt lat="48.36921" lon="-3.51881">
        <ele>209</ele>
        <time>2015-04-07T12:32:41.1Z</time>
      </trkpt>
      <trkpt lat="48.36922" lon="-3.51887">
        <ele>209</ele>
        <time>2015-04-07T12:32:46.1Z</time>
      </trkpt>
      <trkpt lat="48.36924" lon="-3.51892">
        <ele>210</ele>
        <time>2015-04-07T12:32:51.1Z</time>
      </trkpt>
      <trkpt lat="48.36923" lon="-3.51892">
        <ele>210</ele>
        <time>2015-04-07T12:32:57.1Z</time>
      </trkpt>
      <trkpt lat="48.3692" lon="-3.51884">
        <ele>209</ele>
        <time>2015-04-07T12:33:03.1Z</time>
      </trkpt>
      <trkpt lat="48.36918" lon="-3.51877">
        <ele>208</ele>
        <time>2015-04-07T12:33:09.1Z</time>
      </trkpt>
      <trkpt lat="48.36918" lon="-3.51875">
        <ele>208</ele>
        <time>2015-04-07T12:33:14.1Z</time>
      </trkpt>
      <trkpt lat="48.36918" lon="-3.51869">
        <ele>208</ele>
        <time>2015-04-07T12:33:19.1Z</time>
      </trkpt>
      <trkpt lat="48.36917" lon="-3.51866">
        <ele>208</ele>
        <time>2015-04-07T12:33:25.1Z</time>
      </trkpt>
      <trkpt lat="48.36917" lon="-3.51861">
        <ele>209</ele>
        <time>2015-04-07T12:33:30.1Z</time>
      </trkpt>
      <trkpt lat="48.36917" lon="-3.51857">
        <ele>209</ele>
        <time>2015-04-07T12:33:36.1Z</time>
      </trkpt>
      <trkpt lat="48.36917" lon="-3.51855">
        <ele>209</ele>
        <time>2015-04-07T12:33:41.1Z</time>
      </trkpt>
      <trkpt lat="48.36916" lon="-3.51845">
        <ele>209</ele>
        <time>2015-04-07T12:33:47.1Z</time>
      </trkpt>
      <trkpt lat="48.36915" lon="-3.51838">
        <ele>209</ele>
        <time>2015-04-07T12:33:52.1Z</time>
      </trkpt>
      <trkpt lat="48.36914" lon="-3.51832">
        <ele>209</ele>
        <time>2015-04-07T12:33:57.1Z</time>
      </trkpt>
      <trkpt lat="48.36911" lon="-3.51825">
        <ele>209</ele>
        <time>2015-04-07T12:34:02.1Z</time>
      </trkpt>
      <trkpt lat="48.36907" lon="-3.51821">
        <ele>208</ele>
        <time>2015-04-07T12:34:08.1Z</time>
      </trkpt>
      <trkpt lat="48.36903" lon="-3.51822">
        <ele>208</ele>
        <time>2015-04-07T12:34:13.1Z</time>
      </trkpt>
      <trkpt lat="48.36897" lon="-3.51826">
        <ele>208</ele>
        <time>2015-04-07T12:34:18.1Z</time>
      </trkpt>
      <trkpt lat="48.36891" lon="-3.51831">
        <ele>208</ele>
        <time>2015-04-07T12:34:24.1Z</time>
      </trkpt>
      <trkpt lat="48.36885" lon="-3.51835">
        <ele>207</ele>
        <time>2015-04-07T12:34:30.1Z</time>
      </trkpt>
      <trkpt lat="48.36878" lon="-3.5184">
        <ele>207</ele>
        <time>2015-04-07T12:34:35.1Z</time>
      </trkpt>
      <trkpt lat="48.36871" lon="-3.51845">
        <ele>207</ele>
        <time>2015-04-07T12:34:41.1Z</time>
      </trkpt>
      <trkpt lat="48.36865" lon="-3.5185">
        <ele>206</ele>
        <time>2015-04-07T12:34:46.1Z</time>
      </trkpt>
      <trkpt lat="48.36858" lon="-3.51854">
        <ele>206</ele>
        <time>2015-04-07T12:34:52.1Z</time>
      </trkpt>
      <trkpt lat="48.36854" lon="-3.51861">
        <ele>205</ele>
        <time>2015-04-07T12:34:57.1Z</time>
      </trkpt>
      <trkpt lat="48.3685" lon="-3.5187">
        <ele>205</ele>
        <time>2015-04-07T12:35:03.1Z</time>
      </trkpt>
      <trkpt lat="48.36848" lon="-3.5188">
        <ele>206</ele>
        <time>2015-04-07T12:35:09.1Z</time>
      </trkpt>
      <trkpt lat="48.36847" lon="-3.51888">
        <ele>207</ele>
        <time>2015-04-07T12:35:14.1Z</time>
      </trkpt>
      <trkpt lat="48.36849" lon="-3.51889">
        <ele>206</ele>
        <time>2015-04-07T12:35:19.1Z</time>
      </trkpt>
      <trkpt lat="48.36852" lon="-3.51888">
        <ele>206</ele>
        <time>2015-04-07T12:35:24.1Z</time>
      </trkpt>
      <trkpt lat="48.36857" lon="-3.51884">
        <ele>206</ele>
        <time>2015-04-07T12:35:30.1Z</time>
      </trkpt>
      <trkpt lat="48.36862" lon="-3.51882">
        <ele>206</ele>
        <time>2015-04-07T12:35:35.1Z</time>
      </trkpt>
      <trkpt lat="48.36869" lon="-3.51879">
        <ele>206</ele>
        <time>2015-04-07T12:35:41.1Z</time>
      </trkpt>
      <trkpt lat="48.36874" lon="-3.51877">
        <ele>206</ele>
        <time>2015-04-07T12:35:46.1Z</time>
      </trkpt>
      <trkpt lat="48.3688" lon="-3.51875">
        <ele>207</ele>
        <time>2015-04-07T12:35:52.1Z</time>
      </trkpt>
      <trkpt lat="48.36886" lon="-3.51874">
        <ele>207</ele>
        <time>2015-04-07T12:35:57.1Z</time>
      </trkpt>
      <trkpt lat="48.36892" lon="-3.51871">
        <ele>207</ele>
        <time>2015-04-07T12:36:02.1Z</time>
      </trkpt>
      <trkpt lat="48.36897" lon="-3.51867">
        <ele>208</ele>
        <time>2015-04-07T12:36:08.1Z</time>
      </trkpt>
      <trkpt lat="48.36902" lon="-3.51865">
        <ele>208</ele>
        <time>2015-04-07T12:36:13.1Z</time>
      </trkpt>
      <trkpt lat="48.36907" lon="-3.51861">
        <ele>208</ele>
        <time>2015-04-07T12:36:19.1Z</time>
      </trkpt>
      <trkpt lat="48.3691" lon="-3.51858">
        <ele>208</ele>
        <time>2015-04-07T12:36:24.1Z</time>
      </trkpt>
      <trkpt lat="48.36911" lon="-3.51857">
        <ele>208</ele>
        <time>2015-04-07T12:36:31.1Z</time>
      </trkpt>
      <trkpt lat="48.36911" lon="-3.51858">
        <ele>208</ele>
        <time>2015-04-07T12:36:37.1Z</time>
      </trkpt>
      <trkpt lat="48.36911" lon="-3.51858">
        <ele>209</ele>
        <time>2015-04-07T12:36:53.1Z</time>
      </trkpt>
      <trkpt lat="48.36911" lon="-3.51858">
        <ele>209</ele>
        <time>2015-04-07T12:36:59.1Z</time>
      </trkpt>
      <trkpt lat="48.36911" lon="-3.51858">
        <ele>210</ele>
        <time>2015-04-07T12:37:05.1Z</time>
      </trkpt>
      <trkpt lat="48.36911" lon="-3.51857">
        <ele>209</ele>
        <time>2015-04-07T12:37:10.1Z</time>
      </trkpt>
      <trkpt lat="48.36911" lon="-3.51857">
        <ele>208</ele>
        <time>2015-04-07T12:37:15.1Z</time>
      </trkpt>
      <trkpt lat="48.36911" lon="-3.51857">
        <ele>207</ele>
        <time>2015-04-07T12:37:26.1Z</time>
      </trkpt>
      <trkpt lat="48.36911" lon="-3.51856">
        <ele>207</ele>
        <time>2015-04-07T12:37:31.1Z</time>
      </trkpt>
      <trkpt lat="48.36912" lon="-3.51857">
        <ele>207</ele>
        <time>2015-04-07T12:37:39.1Z</time>
      </trkpt>
      <trkpt lat="48.36912" lon="-3.51857">
        <ele>208</ele>
        <time>2015-04-07T12:37:44.1Z</time>
      </trkpt>
      <trkpt lat="48.36912" lon="-3.51856">
        <ele>210</ele>
        <time>2015-04-07T12:37:50.1Z</time>
      </trkpt>
      <trkpt lat="48.36912" lon="-3.51856">
        <ele>210</ele>
        <time>2015-04-07T12:37:55.1Z</time>
      </trkpt>
      <trkpt lat="48.36912" lon="-3.51856">
        <ele>209</ele>
        <time>2015-04-07T12:38:01.1Z</time>
      </trkpt>
      <trkpt lat="48.36912" lon="-3.51856">
        <ele>209</ele>
        <time>2015-04-07T12:38:08.1Z</time>
      </trkpt>
      <trkpt lat="48.36913" lon="-3.51856">
        <ele>208</ele>
        <time>2015-04-07T12:38:13.1Z</time>
      </trkpt>
      <trkpt lat="48.36909" lon="-3.51858">
        <ele>208</ele>
        <time>2015-04-07T12:38:19.1Z</time>
      </trkpt>
      <trkpt lat="48.36911" lon="-3.5186">
        <ele>208</ele>
        <time>2015-04-07T12:38:25.1Z</time>
      </trkpt>
      <trkpt lat="48.3691" lon="-3.5186">
        <ele>208</ele>
        <time>2015-04-07T12:38:30.1Z</time>
      </trkpt>
      <trkpt lat="48.36906" lon="-3.51863">
        <ele>208</ele>
        <time>2015-04-07T12:38:35.1Z</time>
      </trkpt>
      <trkpt lat="48.36902" lon="-3.51864">
        <ele>208</ele>
        <time>2015-04-07T12:38:40.1Z</time>
      </trkpt>
      <trkpt lat="48.369" lon="-3.51865">
        <ele>208</ele>
        <time>2015-04-07T12:38:50.1Z</time>
      </trkpt>
      <trkpt lat="48.36898" lon="-3.51866">
        <ele>208</ele>
        <time>2015-04-07T12:38:56.1Z</time>
      </trkpt>
      <trkpt lat="48.36894" lon="-3.5187">
        <ele>208</ele>
        <time>2015-04-07T12:39:01.1Z</time>
      </trkpt>
      <trkpt lat="48.36889" lon="-3.51872">
        <ele>207</ele>
        <time>2015-04-07T12:39:06.1Z</time>
      </trkpt>
      <trkpt lat="48.36884" lon="-3.51873">
        <ele>207</ele>
        <time>2015-04-07T12:39:11.1Z</time>
      </trkpt>
      <trkpt lat="48.36878" lon="-3.51876">
        <ele>206</ele>
        <time>2015-04-07T12:39:17.1Z</time>
      </trkpt>
      <trkpt lat="48.36874" lon="-3.51879">
        <ele>207</ele>
        <time>2015-04-07T12:39:22.1Z</time>
      </trkpt>
      <trkpt lat="48.36868" lon="-3.51882">
        <ele>206</ele>
        <time>2015-04-07T12:39:28.1Z</time>
      </trkpt>
      <trkpt lat="48.36863" lon="-3.51885">
        <ele>206</ele>
        <time>2015-04-07T12:39:33.1Z</time>
      </trkpt>
      <trkpt lat="48.36858" lon="-3.51888">
        <ele>206</ele>
        <time>2015-04-07T12:39:38.1Z</time>
      </trkpt>
      <trkpt lat="48.36855" lon="-3.51892">
        <ele>205</ele>
        <time>2015-04-07T12:39:43.1Z</time>
      </trkpt>
      <trkpt lat="48.36853" lon="-3.51893">
        <ele>206</ele>
        <time>2015-04-07T12:39:49.1Z</time>
      </trkpt>
      <trkpt lat="48.36852" lon="-3.51888">
        <ele>206</ele>
        <time>2015-04-07T12:39:54.1Z</time>
      </trkpt>
      <trkpt lat="48.36854" lon="-3.51879">
        <ele>205</ele>
        <time>2015-04-07T12:40:00.1Z</time>
      </trkpt>
      <trkpt lat="48.36856" lon="-3.51872">
        <ele>205</ele>
        <time>2015-04-07T12:40:05.1Z</time>
      </trkpt>
      <trkpt lat="48.36858" lon="-3.51863">
        <ele>206</ele>
        <time>2015-04-07T12:40:11.1Z</time>
      </trkpt>
      <trkpt lat="48.36859" lon="-3.51853">
        <ele>205</ele>
        <time>2015-04-07T12:40:17.1Z</time>
      </trkpt>
      <trkpt lat="48.36858" lon="-3.51841">
        <ele>205</ele>
        <time>2015-04-07T12:40:23.1Z</time>
      </trkpt>
      <trkpt lat="48.36857" lon="-3.51832">
        <ele>206</ele>
        <time>2015-04-07T12:40:29.1Z</time>
      </trkpt>
      <trkpt lat="48.36853" lon="-3.51822">
        <ele>205</ele>
        <time>2015-04-07T12:40:35.1Z</time>
      </trkpt>
      <trkpt lat="48.36853" lon="-3.51816">
        <ele>205</ele>
        <time>2015-04-07T12:40:40.1Z</time>
      </trkpt>
      <trkpt lat="48.36853" lon="-3.51807">
        <ele>205</ele>
        <time>2015-04-07T12:40:46.1Z</time>
      </trkpt>
      <trkpt lat="48.36852" lon="-3.51795">
        <ele>204</ele>
        <time>2015-04-07T12:40:52.1Z</time>
      </trkpt>
      <trkpt lat="48.36851" lon="-3.51783">
        <ele>205</ele>
        <time>2015-04-07T12:40:58.1Z</time>
      </trkpt>
      <trkpt lat="48.36851" lon="-3.51774">
        <ele>204</ele>
        <time>2015-04-07T12:41:03.1Z</time>
      </trkpt>
      <trkpt lat="48.3685" lon="-3.51765">
        <ele>204</ele>
        <time>2015-04-07T12:41:08.1Z</time>
      </trkpt>
      <trkpt lat="48.3685" lon="-3.51756">
        <ele>204</ele>
        <time>2015-04-07T12:41:13.1Z</time>
      </trkpt>
      <trkpt lat="48.36849" lon="-3.51747">
        <ele>204</ele>
        <time>2015-04-07T12:41:18.1Z</time>
      </trkpt>
      <trkpt lat="48.36848" lon="-3.51736">
        <ele>204</ele>
        <time>2015-04-07T12:41:24.1Z</time>
      </trkpt>
      <trkpt lat="48.36847" lon="-3.51727">
        <ele>203</ele>
        <time>2015-04-07T12:41:29.1Z</time>
      </trkpt>
      <trkpt lat="48.36846" lon="-3.51716">
        <ele>203</ele>
        <time>2015-04-07T12:41:35.1Z</time>
      </trkpt>
      <trkpt lat="48.36846" lon="-3.51707">
        <ele>203</ele>
        <time>2015-04-07T12:41:40.1Z</time>
      </trkpt>
      <trkpt lat="48.36845" lon="-3.51695">
        <ele>203</ele>
        <time>2015-04-07T12:41:46.1Z</time>
      </trkpt>
      <trkpt lat="48.36845" lon="-3.51684">
        <ele>203</ele>
        <time>2015-04-07T12:41:52.1Z</time>
      </trkpt>
      <trkpt lat="48.36845" lon="-3.51675">
        <ele>202</ele>
        <time>2015-04-07T12:41:57.1Z</time>
      </trkpt>
      <trkpt lat="48.36845" lon="-3.51664">
        <ele>202</ele>
        <time>2015-04-07T12:42:03.1Z</time>
      </trkpt>
      <trkpt lat="48.36846" lon="-3.51654">
        <ele>202</ele>
        <time>2015-04-07T12:42:09.1Z</time>
      </trkpt>
      <trkpt lat="48.36847" lon="-3.51643">
        <ele>201</ele>
        <time>2015-04-07T12:42:15.1Z</time>
      </trkpt>
      <trkpt lat="48.36848" lon="-3.51634">
        <ele>201</ele>
        <time>2015-04-07T12:42:20.1Z</time>
      </trkpt>
      <trkpt lat="48.36848" lon="-3.51625">
        <ele>201</ele>
        <time>2015-04-07T12:42:25.1Z</time>
      </trkpt>
      <trkpt lat="48.3685" lon="-3.51616">
        <ele>201</ele>
        <time>2015-04-07T12:42:30.1Z</time>
      </trkpt>
      <trkpt lat="48.36851" lon="-3.51606">
        <ele>201</ele>
        <time>2015-04-07T12:42:36.1Z</time>
      </trkpt>
      <trkpt lat="48.36853" lon="-3.51598">
        <ele>201</ele>
        <time>2015-04-07T12:42:41.1Z</time>
      </trkpt>
      <trkpt lat="48.36853" lon="-3.51593">
        <ele>200</ele>
        <time>2015-04-07T12:42:47.1Z</time>
      </trkpt>
      <trkpt lat="48.36854" lon="-3.51586">
        <ele>199</ele>
        <time>2015-04-07T12:42:52.1Z</time>
      </trkpt>
      <trkpt lat="48.36855" lon="-3.51577">
        <ele>199</ele>
        <time>2015-04-07T12:42:57.1Z</time>
      </trkpt>
      <trkpt lat="48.36856" lon="-3.5157">
        <ele>199</ele>
        <time>2015-04-07T12:43:02.1Z</time>
      </trkpt>
      <trkpt lat="48.36857" lon="-3.51561">
        <ele>199</ele>
        <time>2015-04-07T12:43:07.1Z</time>
      </trkpt>
      <trkpt lat="48.36857" lon="-3.51552">
        <ele>198</ele>
        <time>2015-04-07T12:43:13.1Z</time>
      </trkpt>
      <trkpt lat="48.36858" lon="-3.51545">
        <ele>198</ele>
        <time>2015-04-07T12:43:18.1Z</time>
      </trkpt>
      <trkpt lat="48.36858" lon="-3.51536">
        <ele>198</ele>
        <time>2015-04-07T12:43:24.1Z</time>
      </trkpt>
      <trkpt lat="48.36859" lon="-3.51526">
        <ele>198</ele>
        <time>2015-04-07T12:43:30.1Z</time>
      </trkpt>
      <trkpt lat="48.3686" lon="-3.51517">
        <ele>199</ele>
        <time>2015-04-07T12:43:35.1Z</time>
      </trkpt>
      <trkpt lat="48.36861" lon="-3.51505">
        <ele>198</ele>
        <time>2015-04-07T12:43:41.1Z</time>
      </trkpt>
      <trkpt lat="48.36864" lon="-3.51495">
        <ele>197</ele>
        <time>2015-04-07T12:43:47.1Z</time>
      </trkpt>
      <trkpt lat="48.36865" lon="-3.51486">
        <ele>197</ele>
        <time>2015-04-07T12:43:52.1Z</time>
      </trkpt>
      <trkpt lat="48.36866" lon="-3.51477">
        <ele>196</ele>
        <time>2015-04-07T12:43:57.1Z</time>
      </trkpt>
      <trkpt lat="48.36867" lon="-3.51467">
        <ele>196</ele>
        <time>2015-04-07T12:44:03.1Z</time>
      </trkpt>
      <trkpt lat="48.36868" lon="-3.51458">
        <ele>196</ele>
        <time>2015-04-07T12:44:08.1Z</time>
      </trkpt>
      <trkpt lat="48.36869" lon="-3.51449">
        <ele>196</ele>
        <time>2015-04-07T12:44:13.1Z</time>
      </trkpt>
      <trkpt lat="48.36871" lon="-3.51439">
        <ele>196</ele>
        <time>2015-04-07T12:44:19.1Z</time>
      </trkpt>
      <trkpt lat="48.36872" lon="-3.51431">
        <ele>195</ele>
        <time>2015-04-07T12:44:24.1Z</time>
      </trkpt>
      <trkpt lat="48.36873" lon="-3.51423">
        <ele>195</ele>
        <time>2015-04-07T12:44:29.1Z</time>
      </trkpt>
      <trkpt lat="48.36875" lon="-3.51414">
        <ele>195</ele>
        <time>2015-04-07T12:44:35.1Z</time>
      </trkpt>
      <trkpt lat="48.36875" lon="-3.51407">
        <ele>194</ele>
        <time>2015-04-07T12:44:41.1Z</time>
      </trkpt>
      <trkpt lat="48.36876" lon="-3.51401">
        <ele>194</ele>
        <time>2015-04-07T12:44:47.1Z</time>
      </trkpt>
      <trkpt lat="48.36876" lon="-3.51401">
        <ele>194</ele>
        <time>2015-04-07T12:44:54.1Z</time>
      </trkpt>
      <trkpt lat="48.36876" lon="-3.51401">
        <ele>193</ele>
        <time>2015-04-07T12:45:00.1Z</time>
      </trkpt>
      <trkpt lat="48.36875" lon="-3.51402">
        <ele>193</ele>
        <time>2015-04-07T12:45:05.1Z</time>
      </trkpt>
      <trkpt lat="48.36875" lon="-3.51402">
        <ele>193</ele>
        <time>2015-04-07T12:45:11.1Z</time>
      </trkpt>
      <trkpt lat="48.36875" lon="-3.51403">
        <ele>193</ele>
        <time>2015-04-07T12:45:17.1Z</time>
      </trkpt>
      <trkpt lat="48.36874" lon="-3.51404">
        <ele>193</ele>
        <time>2015-04-07T12:45:23.1Z</time>
      </trkpt>
      <trkpt lat="48.36874" lon="-3.51404">
        <ele>193</ele>
        <time>2015-04-07T12:45:29.1Z</time>
      </trkpt>
      <trkpt lat="48.36874" lon="-3.51405">
        <ele>193</ele>
        <time>2015-04-07T12:45:35.1Z</time>
      </trkpt>
      <trkpt lat="48.36874" lon="-3.51405">
        <ele>193</ele>
        <time>2015-04-07T12:45:40.1Z</time>
      </trkpt>
      <trkpt lat="48.36874" lon="-3.51403">
        <ele>193</ele>
        <time>2015-04-07T12:45:46.1Z</time>
      </trkpt>
      <trkpt lat="48.36874" lon="-3.51402">
        <ele>193</ele>
        <time>2015-04-07T12:45:51.1Z</time>
      </trkpt>
      <trkpt lat="48.36873" lon="-3.51403">
        <ele>193</ele>
        <time>2015-04-07T12:45:56.1Z</time>
      </trkpt>
      <trkpt lat="48.36873" lon="-3.51404">
        <ele>193</ele>
        <time>2015-04-07T12:46:01.1Z</time>
      </trkpt>
      <trkpt lat="48.36872" lon="-3.51406">
        <ele>193</ele>
        <time>2015-04-07T12:46:07.1Z</time>
      </trkpt>
      <trkpt lat="48.36872" lon="-3.51408">
        <ele>193</ele>
        <time>2015-04-07T12:46:12.1Z</time>
      </trkpt>
      <trkpt lat="48.36872" lon="-3.51409">
        <ele>193</ele>
        <time>2015-04-07T12:46:18.1Z</time>
      </trkpt>
      <trkpt lat="48.36871" lon="-3.51409">
        <ele>193</ele>
        <time>2015-04-07T12:46:25.1Z</time>
      </trkpt>
      <trkpt lat="48.36871" lon="-3.51409">
        <ele>193</ele>
        <time>2015-04-07T12:46:30.1Z</time>
      </trkpt>
      <trkpt lat="48.36872" lon="-3.51408">
        <ele>194</ele>
        <time>2015-04-07T12:46:39.1Z</time>
      </trkpt>
      <trkpt lat="48.36872" lon="-3.51408">
        <ele>193</ele>
        <time>2015-04-07T12:46:46.1Z</time>
      </trkpt>
      <trkpt lat="48.36872" lon="-3.51407">
        <ele>193</ele>
        <time>2015-04-07T12:46:51.1Z</time>
      </trkpt>
      <trkpt lat="48.36871" lon="-3.51409">
        <ele>193</ele>
        <time>2015-04-07T12:46:57.1Z</time>
      </trkpt>
      <trkpt lat="48.36872" lon="-3.51409">
        <ele>193</ele>
        <time>2015-04-07T12:47:03.1Z</time>
      </trkpt>
      <trkpt lat="48.36872" lon="-3.51408">
        <ele>193</ele>
        <time>2015-04-07T12:47:09.1Z</time>
      </trkpt>
      <trkpt lat="48.36872" lon="-3.51408">
        <ele>193</ele>
        <time>2015-04-07T12:47:14.1Z</time>
      </trkpt>
      <trkpt lat="48.36872" lon="-3.51407">
        <ele>194</ele>
        <time>2015-04-07T12:47:20.1Z</time>
      </trkpt>
      <trkpt lat="48.36873" lon="-3.51406">
        <ele>194</ele>
        <time>2015-04-07T12:47:26.1Z</time>
      </trkpt>
      <trkpt lat="48.36873" lon="-3.51406">
        <ele>194</ele>
        <time>2015-04-07T12:47:32.1Z</time>
      </trkpt>
      <trkpt lat="48.36873" lon="-3.51406">
        <ele>194</ele>
        <time>2015-04-07T12:47:42.1Z</time>
      </trkpt>
      <trkpt lat="48.36873" lon="-3.51405">
        <ele>194</ele>
        <time>2015-04-07T12:47:47.1Z</time>
      </trkpt>
      <trkpt lat="48.36872" lon="-3.51405">
        <ele>194</ele>
        <time>2015-04-07T12:47:54.1Z</time>
      </trkpt>
      <trkpt lat="48.36872" lon="-3.51404">
        <ele>194</ele>
        <time>2015-04-07T12:48:01.1Z</time>
      </trkpt>
      <trkpt lat="48.36872" lon="-3.51403">
        <ele>194</ele>
        <time>2015-04-07T12:48:06.1Z</time>
      </trkpt>
      <trkpt lat="48.36872" lon="-3.51403">
        <ele>194</ele>
        <time>2015-04-07T12:48:14.1Z</time>
      </trkpt>
      <trkpt lat="48.36872" lon="-3.51404">
        <ele>194</ele>
        <time>2015-04-07T12:48:19.1Z</time>
      </trkpt>
      <trkpt lat="48.36873" lon="-3.51404">
        <ele>194</ele>
        <time>2015-04-07T12:48:24.1Z</time>
      </trkpt>
      <trkpt lat="48.36874" lon="-3.51404">
        <ele>193</ele>
        <time>2015-04-07T12:48:30.1Z</time>
      </trkpt>
      <trkpt lat="48.36873" lon="-3.51399">
        <ele>193</ele>
        <time>2015-04-07T12:48:36.1Z</time>
      </trkpt>
      <trkpt lat="48.36873" lon="-3.51393">
        <ele>193</ele>
        <time>2015-04-07T12:48:41.1Z</time>
      </trkpt>
      <trkpt lat="48.36874" lon="-3.5139">
        <ele>193</ele>
        <time>2015-04-07T12:48:47.1Z</time>
      </trkpt>
      <trkpt lat="48.36874" lon="-3.51389">
        <ele>194</ele>
        <time>2015-04-07T12:48:53.1Z</time>
      </trkpt>
      <trkpt lat="48.36876" lon="-3.51385">
        <ele>193</ele>
        <time>2015-04-07T12:48:59.1Z</time>
      </trkpt>
      <trkpt lat="48.36876" lon="-3.51378">
        <ele>193</ele>
        <time>2015-04-07T12:49:05.1Z</time>
      </trkpt>
      <trkpt lat="48.36877" lon="-3.51371">
        <ele>193</ele>
        <time>2015-04-07T12:49:10.1Z</time>
      </trkpt>
      <trkpt lat="48.36877" lon="-3.51364">
        <ele>192</ele>
        <time>2015-04-07T12:49:15.1Z</time>
      </trkpt>
      <trkpt lat="48.36879" lon="-3.51356">
        <ele>192</ele>
        <time>2015-04-07T12:49:20.1Z</time>
      </trkpt>
      <trkpt lat="48.36881" lon="-3.51347">
        <ele>191</ele>
        <time>2015-04-07T12:49:26.1Z</time>
      </trkpt>
      <trkpt lat="48.36882" lon="-3.5134">
        <ele>191</ele>
        <time>2015-04-07T12:49:31.1Z</time>
      </trkpt>
      <trkpt lat="48.36884" lon="-3.51332">
        <ele>190</ele>
        <time>2015-04-07T12:49:36.1Z</time>
      </trkpt>
      <trkpt lat="48.36887" lon="-3.51323">
        <ele>191</ele>
        <time>2015-04-07T12:49:42.1Z</time>
      </trkpt>
      <trkpt lat="48.3689" lon="-3.51314">
        <ele>190</ele>
        <time>2015-04-07T12:49:48.1Z</time>
      </trkpt>
      <trkpt lat="48.36892" lon="-3.51307">
        <ele>190</ele>
        <time>2015-04-07T12:49:53.1Z</time>
      </trkpt>
      <trkpt lat="48.36896" lon="-3.51299">
        <ele>189</ele>
        <time>2015-04-07T12:49:58.1Z</time>
      </trkpt>
      <trkpt lat="48.369" lon="-3.51289">
        <ele>188</ele>
        <time>2015-04-07T12:50:04.1Z</time>
      </trkpt>
      <trkpt lat="48.36903" lon="-3.51282">
        <ele>188</ele>
        <time>2015-04-07T12:50:09.1Z</time>
      </trkpt>
      <trkpt lat="48.36908" lon="-3.51273">
        <ele>188</ele>
        <time>2015-04-07T12:50:15.1Z</time>
      </trkpt>
      <trkpt lat="48.36912" lon="-3.51267">
        <ele>188</ele>
        <time>2015-04-07T12:50:20.1Z</time>
      </trkpt>
      <trkpt lat="48.36916" lon="-3.5126">
        <ele>188</ele>
        <time>2015-04-07T12:50:25.1Z</time>
      </trkpt>
      <trkpt lat="48.36921" lon="-3.51254">
        <ele>187</ele>
        <time>2015-04-07T12:50:30.1Z</time>
      </trkpt>
      <trkpt lat="48.36926" lon="-3.51248">
        <ele>186</ele>
        <time>2015-04-07T12:50:36.1Z</time>
      </trkpt>
      <trkpt lat="48.36932" lon="-3.51241">
        <ele>186</ele>
        <time>2015-04-07T12:50:42.1Z</time>
      </trkpt>
      <trkpt lat="48.36936" lon="-3.51236">
        <ele>186</ele>
        <time>2015-04-07T12:50:47.1Z</time>
      </trkpt>
      <trkpt lat="48.36941" lon="-3.51231">
        <ele>186</ele>
        <time>2015-04-07T12:50:52.1Z</time>
      </trkpt>
      <trkpt lat="48.36947" lon="-3.51226">
        <ele>185</ele>
        <time>2015-04-07T12:50:58.1Z</time>
      </trkpt>
      <trkpt lat="48.36953" lon="-3.51219">
        <ele>185</ele>
        <time>2015-04-07T12:51:04.1Z</time>
      </trkpt>
      <trkpt lat="48.36954" lon="-3.5121">
        <ele>185</ele>
        <time>2015-04-07T12:51:10.1Z</time>
      </trkpt>
      <trkpt lat="48.36955" lon="-3.51205">
        <ele>185</ele>
        <time>2015-04-07T12:51:16.1Z</time>
      </trkpt>
      <trkpt lat="48.36956" lon="-3.51204">
        <ele>185</ele>
        <time>2015-04-07T12:51:21.1Z</time>
      </trkpt>
      <trkpt lat="48.36957" lon="-3.51204">
        <ele>184</ele>
        <time>2015-04-07T12:51:26.1Z</time>
      </trkpt>
      <trkpt lat="48.36961" lon="-3.51203">
        <ele>184</ele>
        <time>2015-04-07T12:51:32.1Z</time>
      </trkpt>
      <trkpt lat="48.36965" lon="-3.51202">
        <ele>184</ele>
        <time>2015-04-07T12:51:37.1Z</time>
      </trkpt>
      <trkpt lat="48.36972" lon="-3.51199">
        <ele>184</ele>
        <time>2015-04-07T12:51:43.1Z</time>
      </trkpt>
      <trkpt lat="48.36977" lon="-3.51198">
        <ele>183</ele>
        <time>2015-04-07T12:51:48.1Z</time>
      </trkpt>
      <trkpt lat="48.36983" lon="-3.51195">
        <ele>183</ele>
        <time>2015-04-07T12:51:54.1Z</time>
      </trkpt>
      <trkpt lat="48.3699" lon="-3.51192">
        <ele>183</ele>
        <time>2015-04-07T12:52:00.1Z</time>
      </trkpt>
      <trkpt lat="48.36996" lon="-3.51189">
        <ele>182</ele>
        <time>2015-04-07T12:52:06.1Z</time>
      </trkpt>
      <trkpt lat="48.37001" lon="-3.51186">
        <ele>182</ele>
        <time>2015-04-07T12:52:11.1Z</time>
      </trkpt>
      <trkpt lat="48.37007" lon="-3.51184">
        <ele>182</ele>
        <time>2015-04-07T12:52:17.1Z</time>
      </trkpt>
      <trkpt lat="48.37011" lon="-3.51181">
        <ele>181</ele>
        <time>2015-04-07T12:52:22.1Z</time>
      </trkpt>
      <trkpt lat="48.37015" lon="-3.51179">
        <ele>181</ele>
        <time>2015-04-07T12:52:27.1Z</time>
      </trkpt>
      <trkpt lat="48.37021" lon="-3.51175">
        <ele>180</ele>
        <time>2015-04-07T12:52:33.1Z</time>
      </trkpt>
      <trkpt lat="48.37026" lon="-3.51172">
        <ele>180</ele>
        <time>2015-04-07T12:52:39.1Z</time>
      </trkpt>
      <trkpt lat="48.37032" lon="-3.51167">
        <ele>180</ele>
        <time>2015-04-07T12:52:45.1Z</time>
      </trkpt>
      <trkpt lat="48.37032" lon="-3.51166">
        <ele>180</ele>
        <time>2015-04-07T12:52:51.1Z</time>
      </trkpt>
      <trkpt lat="48.3703" lon="-3.51173">
        <ele>180</ele>
        <time>2015-04-07T12:52:56.1Z</time>
      </trkpt>
      <trkpt lat="48.37027" lon="-3.51179">
        <ele>180</ele>
        <time>2015-04-07T12:53:01.1Z</time>
      </trkpt>
      <trkpt lat="48.37022" lon="-3.51184">
        <ele>180</ele>
        <time>2015-04-07T12:53:06.1Z</time>
      </trkpt>
      <trkpt lat="48.37017" lon="-3.51189">
        <ele>180</ele>
        <time>2015-04-07T12:53:12.1Z</time>
      </trkpt>
      <trkpt lat="48.37015" lon="-3.51195">
        <ele>181</ele>
        <time>2015-04-07T12:53:17.1Z</time>
      </trkpt>
      <trkpt lat="48.37017" lon="-3.512">
        <ele>181</ele>
        <time>2015-04-07T12:53:23.1Z</time>
      </trkpt>
      <trkpt lat="48.37017" lon="-3.51203">
        <ele>181</ele>
        <time>2015-04-07T12:53:29.1Z</time>
      </trkpt>
      <trkpt lat="48.37017" lon="-3.51206">
        <ele>182</ele>
        <time>2015-04-07T12:53:34.1Z</time>
      </trkpt>
      <trkpt lat="48.37016" lon="-3.51211">
        <ele>182</ele>
        <time>2015-04-07T12:53:40.1Z</time>
      </trkpt>
      <trkpt lat="48.37018" lon="-3.51213">
        <ele>183</ele>
        <time>2015-04-07T12:53:46.1Z</time>
      </trkpt>
      <trkpt lat="48.37018" lon="-3.51211">
        <ele>183</ele>
        <time>2015-04-07T12:53:51.1Z</time>
      </trkpt>
      <trkpt lat="48.37021" lon="-3.51208">
        <ele>182</ele>
        <time>2015-04-07T12:53:57.1Z</time>
      </trkpt>
      <trkpt lat="48.37025" lon="-3.51208">
        <ele>182</ele>
        <time>2015-04-07T12:54:02.1Z</time>
      </trkpt>
      <trkpt lat="48.37029" lon="-3.51212">
        <ele>182</ele>
        <time>2015-04-07T12:54:08.1Z</time>
      </trkpt>
      <trkpt lat="48.37028" lon="-3.51216">
        <ele>182</ele>
        <time>2015-04-07T12:54:13.1Z</time>
      </trkpt>
      <trkpt lat="48.37026" lon="-3.51217">
        <ele>183</ele>
        <time>2015-04-07T12:54:19.1Z</time>
      </trkpt>
      <trkpt lat="48.37026" lon="-3.51216">
        <ele>183</ele>
        <time>2015-04-07T12:54:25.1Z</time>
      </trkpt>
      <trkpt lat="48.37025" lon="-3.51215">
        <ele>183</ele>
        <time>2015-04-07T12:54:30.1Z</time>
      </trkpt>
      <trkpt lat="48.37025" lon="-3.51214">
        <ele>183</ele>
        <time>2015-04-07T12:54:35.1Z</time>
      </trkpt>
      <trkpt lat="48.37024" lon="-3.51214">
        <ele>183</ele>
        <time>2015-04-07T12:54:40.1Z</time>
      </trkpt>
      <trkpt lat="48.37023" lon="-3.51213">
        <ele>183</ele>
        <time>2015-04-07T12:54:45.1Z</time>
      </trkpt>
      <trkpt lat="48.37023" lon="-3.51213">
        <ele>184</ele>
        <time>2015-04-07T12:54:51.1Z</time>
      </trkpt>
      <trkpt lat="48.37023" lon="-3.51213">
        <ele>183</ele>
        <time>2015-04-07T12:54:56.1Z</time>
      </trkpt>
      <trkpt lat="48.37022" lon="-3.51214">
        <ele>184</ele>
        <time>2015-04-07T12:55:01.1Z</time>
      </trkpt>
      <trkpt lat="48.37023" lon="-3.51214">
        <ele>183</ele>
        <time>2015-04-07T12:55:06.1Z</time>
      </trkpt>
      <trkpt lat="48.37022" lon="-3.51214">
        <ele>183</ele>
        <time>2015-04-07T12:55:13.1Z</time>
      </trkpt>
      <trkpt lat="48.37022" lon="-3.51214">
        <ele>183</ele>
        <time>2015-04-07T12:55:18.1Z</time>
      </trkpt>
      <trkpt lat="48.37023" lon="-3.51214">
        <ele>183</ele>
        <time>2015-04-07T12:55:23.1Z</time>
      </trkpt>
      <trkpt lat="48.37023" lon="-3.51213">
        <ele>184</ele>
        <time>2015-04-07T12:55:29.1Z</time>
      </trkpt>
      <trkpt lat="48.37023" lon="-3.51212">
        <ele>183</ele>
        <time>2015-04-07T12:55:35.1Z</time>
      </trkpt>
      <trkpt lat="48.37022" lon="-3.51211">
        <ele>184</ele>
        <time>2015-04-07T12:55:41.1Z</time>
      </trkpt>
      <trkpt lat="48.37021" lon="-3.51213">
        <ele>184</ele>
        <time>2015-04-07T12:55:46.1Z</time>
      </trkpt>
      <trkpt lat="48.37021" lon="-3.51212">
        <ele>185</ele>
        <time>2015-04-07T12:55:52.1Z</time>
      </trkpt>
      <trkpt lat="48.37021" lon="-3.51212">
        <ele>185</ele>
        <time>2015-04-07T12:55:59.1Z</time>
      </trkpt>
      <trkpt lat="48.37021" lon="-3.51211">
        <ele>185</ele>
        <time>2015-04-07T12:56:04.1Z</time>
      </trkpt>
      <trkpt lat="48.37021" lon="-3.5121">
        <ele>183</ele>
        <time>2015-04-07T12:56:12.1Z</time>
      </trkpt>
      <trkpt lat="48.37021" lon="-3.5121">
        <ele>183</ele>
        <time>2015-04-07T12:56:17.1Z</time>
      </trkpt>
      <trkpt lat="48.37022" lon="-3.51209">
        <ele>183</ele>
        <time>2015-04-07T12:56:27.1Z</time>
      </trkpt>
      <trkpt lat="48.37022" lon="-3.51209">
        <ele>184</ele>
        <time>2015-04-07T12:56:32.1Z</time>
      </trkpt>
      <trkpt lat="48.37022" lon="-3.51209">
        <ele>184</ele>
        <time>2015-04-07T12:56:38.1Z</time>
      </trkpt>
      <trkpt lat="48.37023" lon="-3.5121">
        <ele>184</ele>
        <time>2015-04-07T12:56:43.1Z</time>
      </trkpt>
      <trkpt lat="48.37023" lon="-3.51211">
        <ele>183</ele>
        <time>2015-04-07T12:56:49.1Z</time>
      </trkpt>
      <trkpt lat="48.37023" lon="-3.51212">
        <ele>183</ele>
        <time>2015-04-07T12:56:55.1Z</time>
      </trkpt>
      <trkpt lat="48.37023" lon="-3.51211">
        <ele>183</ele>
        <time>2015-04-07T12:57:01.1Z</time>
      </trkpt>
      <trkpt lat="48.37022" lon="-3.51212">
        <ele>184</ele>
        <time>2015-04-07T12:57:07.1Z</time>
      </trkpt>
      <trkpt lat="48.37022" lon="-3.51212">
        <ele>184</ele>
        <time>2015-04-07T12:57:12.1Z</time>
      </trkpt>
      <trkpt lat="48.37022" lon="-3.51212">
        <ele>184</ele>
        <time>2015-04-07T12:57:19.1Z</time>
      </trkpt>
      <trkpt lat="48.37021" lon="-3.51212">
        <ele>185</ele>
        <time>2015-04-07T12:57:24.1Z</time>
      </trkpt>
      <trkpt lat="48.37021" lon="-3.51212">
        <ele>184</ele>
        <time>2015-04-07T12:57:30.1Z</time>
      </trkpt>
      <trkpt lat="48.3702" lon="-3.51212">
        <ele>184</ele>
        <time>2015-04-07T12:57:36.1Z</time>
      </trkpt>
      <trkpt lat="48.3702" lon="-3.51211">
        <ele>184</ele>
        <time>2015-04-07T12:57:41.1Z</time>
      </trkpt>
      <trkpt lat="48.37018" lon="-3.51213">
        <ele>185</ele>
        <time>2015-04-07T12:57:46.1Z</time>
      </trkpt>
      <trkpt lat="48.37019" lon="-3.51209">
        <ele>183</ele>
        <time>2015-04-07T12:57:52.1Z</time>
      </trkpt>
      <trkpt lat="48.37019" lon="-3.51208">
        <ele>182</ele>
        <time>2015-04-07T12:57:58.1Z</time>
      </trkpt>
      <trkpt lat="48.37019" lon="-3.51208">
        <ele>184</ele>
        <time>2015-04-07T12:58:05.1Z</time>
      </trkpt>
      <trkpt lat="48.37019" lon="-3.51208">
        <ele>184</ele>
        <time>2015-04-07T12:58:10.1Z</time>
      </trkpt>
      <trkpt lat="48.37019" lon="-3.51208">
        <ele>185</ele>
        <time>2015-04-07T12:58:17.1Z</time>
      </trkpt>
      <trkpt lat="48.37018" lon="-3.51207">
        <ele>184</ele>
        <time>2015-04-07T12:58:22.1Z</time>
      </trkpt>
      <trkpt lat="48.37018" lon="-3.51207">
        <ele>184</ele>
        <time>2015-04-07T12:58:29.1Z</time>
      </trkpt>
      <trkpt lat="48.37017" lon="-3.51206">
        <ele>184</ele>
        <time>2015-04-07T12:58:34.1Z</time>
      </trkpt>
      <trkpt lat="48.37016" lon="-3.5121">
        <ele>183</ele>
        <time>2015-04-07T12:58:39.1Z</time>
      </trkpt>
      <trkpt lat="48.37021" lon="-3.5121">
        <ele>183</ele>
        <time>2015-04-07T12:58:44.1Z</time>
      </trkpt>
      <trkpt lat="48.37021" lon="-3.51209">
        <ele>183</ele>
        <time>2015-04-07T12:58:49.1Z</time>
      </trkpt>
      <trkpt lat="48.37021" lon="-3.51208">
        <ele>182</ele>
        <time>2015-04-07T12:58:55.1Z</time>
      </trkpt>
      <trkpt lat="48.37021" lon="-3.51207">
        <ele>182</ele>
        <time>2015-04-07T12:59:01.1Z</time>
      </trkpt>
      <trkpt lat="48.3702" lon="-3.51205">
        <ele>182</ele>
        <time>2015-04-07T12:59:06.1Z</time>
      </trkpt>
      <trkpt lat="48.37018" lon="-3.51197">
        <ele>182</ele>
        <time>2015-04-07T12:59:11.1Z</time>
      </trkpt>
      <trkpt lat="48.37015" lon="-3.51189">
        <ele>182</ele>
        <time>2015-04-07T12:59:17.1Z</time>
      </trkpt>
      <trkpt lat="48.37018" lon="-3.51183">
        <ele>182</ele>
        <time>2015-04-07T12:59:22.1Z</time>
      </trkpt>
      <trkpt lat="48.37021" lon="-3.5118">
        <ele>181</ele>
        <time>2015-04-07T12:59:27.1Z</time>
      </trkpt>
      <trkpt lat="48.37025" lon="-3.51177">
        <ele>180</ele>
        <time>2015-04-07T12:59:33.1Z</time>
      </trkpt>
      <trkpt lat="48.37029" lon="-3.51172">
        <ele>180</ele>
        <time>2015-04-07T12:59:38.1Z</time>
      </trkpt>
      <trkpt lat="48.37032" lon="-3.51168">
        <ele>180</ele>
        <time>2015-04-07T12:59:43.1Z</time>
      </trkpt>
      <trkpt lat="48.37037" lon="-3.51165">
        <ele>179</ele>
        <time>2015-04-07T12:59:49.1Z</time>
      </trkpt>
      <trkpt lat="48.37042" lon="-3.51161">
        <ele>179</ele>
        <time>2015-04-07T12:59:55.1Z</time>
      </trkpt>
      <trkpt lat="48.37047" lon="-3.51156">
        <ele>178</ele>
        <time>2015-04-07T13:00:00.1Z</time>
      </trkpt>
      <trkpt lat="48.37052" lon="-3.51151">
        <ele>178</ele>
        <time>2015-04-07T13:00:05.1Z</time>
      </trkpt>
      <trkpt lat="48.37057" lon="-3.51143">
        <ele>178</ele>
        <time>2015-04-07T13:00:11.1Z</time>
      </trkpt>
      <trkpt lat="48.37061" lon="-3.51136">
        <ele>178</ele>
        <time>2015-04-07T13:00:16.1Z</time>
      </trkpt>
      <trkpt lat="48.37064" lon="-3.51127">
        <ele>177</ele>
        <time>2015-04-07T13:00:22.1Z</time>
      </trkpt>
      <trkpt lat="48.37066" lon="-3.51119">
        <ele>177</ele>
        <time>2015-04-07T13:00:27.1Z</time>
      </trkpt>
      <trkpt lat="48.37068" lon="-3.51111">
        <ele>177</ele>
        <time>2015-04-07T13:00:32.1Z</time>
      </trkpt>
      <trkpt lat="48.37071" lon="-3.51102">
        <ele>177</ele>
        <time>2015-04-07T13:00:38.1Z</time>
      </trkpt>
      <trkpt lat="48.37073" lon="-3.51094">
        <ele>177</ele>
        <time>2015-04-07T13:00:43.1Z</time>
      </trkpt>
      <trkpt lat="48.37076" lon="-3.51084">
        <ele>177</ele>
        <time>2015-04-07T13:00:49.1Z</time>
      </trkpt>
      <trkpt lat="48.37077" lon="-3.51073">
        <ele>175</ele>
        <time>2015-04-07T13:00:55.1Z</time>
      </trkpt>
      <trkpt lat="48.37079" lon="-3.51064">
        <ele>175</ele>
        <time>2015-04-07T13:01:00.1Z</time>
      </trkpt>
      <trkpt lat="48.3708" lon="-3.51054">
        <ele>174</ele>
        <time>2015-04-07T13:01:06.1Z</time>
      </trkpt>
      <trkpt lat="48.3708" lon="-3.51043">
        <ele>174</ele>
        <time>2015-04-07T13:01:12.1Z</time>
      </trkpt>
      <trkpt lat="48.37081" lon="-3.51034">
        <ele>174</ele>
        <time>2015-04-07T13:01:17.1Z</time>
      </trkpt>
      <trkpt lat="48.3708" lon="-3.51025">
        <ele>173</ele>
        <time>2015-04-07T13:01:22.1Z</time>
      </trkpt>
      <trkpt lat="48.3708" lon="-3.51015">
        <ele>173</ele>
        <time>2015-04-07T13:01:28.1Z</time>
      </trkpt>
      <trkpt lat="48.37079" lon="-3.51006">
        <ele>173</ele>
        <time>2015-04-07T13:01:34.1Z</time>
      </trkpt>
      <trkpt lat="48.37078" lon="-3.50998">
        <ele>173</ele>
        <time>2015-04-07T13:01:39.1Z</time>
      </trkpt>
      <trkpt lat="48.37077" lon="-3.5099">
        <ele>172</ele>
        <time>2015-04-07T13:01:44.1Z</time>
      </trkpt>
      <trkpt lat="48.37076" lon="-3.50981">
        <ele>172</ele>
        <time>2015-04-07T13:01:50.1Z</time>
      </trkpt>
      <trkpt lat="48.37075" lon="-3.50974">
        <ele>171</ele>
        <time>2015-04-07T13:01:56.1Z</time>
      </trkpt>
      <trkpt lat="48.37074" lon="-3.50965">
        <ele>171</ele>
        <time>2015-04-07T13:02:01.1Z</time>
      </trkpt>
      <trkpt lat="48.37073" lon="-3.50958">
        <ele>171</ele>
        <time>2015-04-07T13:02:06.1Z</time>
      </trkpt>
      <trkpt lat="48.37073" lon="-3.50948">
        <ele>171</ele>
        <time>2015-04-07T13:02:12.1Z</time>
      </trkpt>
      <trkpt lat="48.37073" lon="-3.50937">
        <ele>171</ele>
        <time>2015-04-07T13:02:18.1Z</time>
      </trkpt>
      <trkpt lat="48.37072" lon="-3.50929">
        <ele>171</ele>
        <time>2015-04-07T13:02:23.1Z</time>
      </trkpt>
      <trkpt lat="48.3707" lon="-3.50921">
        <ele>170</ele>
        <time>2015-04-07T13:02:29.1Z</time>
      </trkpt>
      <trkpt lat="48.37067" lon="-3.50914">
        <ele>170</ele>
        <time>2015-04-07T13:02:34.1Z</time>
      </trkpt>
      <trkpt lat="48.37065" lon="-3.50905">
        <ele>170</ele>
        <time>2015-04-07T13:02:40.1Z</time>
      </trkpt>
      <trkpt lat="48.37064" lon="-3.50894">
        <ele>169</ele>
        <time>2015-04-07T13:02:46.1Z</time>
      </trkpt>
      <trkpt lat="48.37063" lon="-3.50887">
        <ele>169</ele>
        <time>2015-04-07T13:02:51.1Z</time>
      </trkpt>
      <trkpt lat="48.37062" lon="-3.50878">
        <ele>169</ele>
        <time>2015-04-07T13:02:57.1Z</time>
      </trkpt>
      <trkpt lat="48.37061" lon="-3.5087">
        <ele>169</ele>
        <time>2015-04-07T13:03:02.1Z</time>
      </trkpt>
      <trkpt lat="48.37059" lon="-3.50861">
        <ele>170</ele>
        <time>2015-04-07T13:03:08.1Z</time>
      </trkpt>
      <trkpt lat="48.37058" lon="-3.50853">
        <ele>169</ele>
        <time>2015-04-07T13:03:13.1Z</time>
      </trkpt>
      <trkpt lat="48.37056" lon="-3.50843">
        <ele>169</ele>
        <time>2015-04-07T13:03:19.1Z</time>
      </trkpt>
      <trkpt lat="48.37055" lon="-3.50835">
        <ele>169</ele>
        <time>2015-04-07T13:03:24.1Z</time>
      </trkpt>
      <trkpt lat="48.37054" lon="-3.50827">
        <ele>168</ele>
        <time>2015-04-07T13:03:29.1Z</time>
      </trkpt>
      <trkpt lat="48.37053" lon="-3.50818">
        <ele>168</ele>
        <time>2015-04-07T13:03:35.1Z</time>
      </trkpt>
      <trkpt lat="48.37052" lon="-3.50811">
        <ele>168</ele>
        <time>2015-04-07T13:03:41.1Z</time>
      </trkpt>
      <trkpt lat="48.37049" lon="-3.50802">
        <ele>168</ele>
        <time>2015-04-07T13:03:46.1Z</time>
      </trkpt>
      <trkpt lat="48.37048" lon="-3.50795">
        <ele>168</ele>
        <time>2015-04-07T13:03:51.1Z</time>
      </trkpt>
      <trkpt lat="48.37046" lon="-3.50787">
        <ele>168</ele>
        <time>2015-04-07T13:03:57.1Z</time>
      </trkpt>
      <trkpt lat="48.37046" lon="-3.50779">
        <ele>168</ele>
        <time>2015-04-07T13:04:03.1Z</time>
      </trkpt>
      <trkpt lat="48.37045" lon="-3.50773">
        <ele>168</ele>
        <time>2015-04-07T13:04:08.1Z</time>
      </trkpt>
      <trkpt lat="48.37045" lon="-3.50766">
        <ele>167</ele>
        <time>2015-04-07T13:04:13.1Z</time>
      </trkpt>
      <trkpt lat="48.37045" lon="-3.50759">
        <ele>167</ele>
        <time>2015-04-07T13:04:19.1Z</time>
      </trkpt>
      <trkpt lat="48.37047" lon="-3.50755">
        <ele>167</ele>
        <time>2015-04-07T13:04:24.1Z</time>
      </trkpt>
      <trkpt lat="48.37048" lon="-3.50753">
        <ele>167</ele>
        <time>2015-04-07T13:04:30.1Z</time>
      </trkpt>
      <trkpt lat="48.37049" lon="-3.50752">
        <ele>166</ele>
        <time>2015-04-07T13:04:35.1Z</time>
      </trkpt>
      <trkpt lat="48.37049" lon="-3.50752">
        <ele>166</ele>
        <time>2015-04-07T13:04:40.1Z</time>
      </trkpt>
      <trkpt lat="48.37049" lon="-3.50752">
        <ele>166</ele>
        <time>2015-04-07T13:04:46.1Z</time>
      </trkpt>
      <trkpt lat="48.37049" lon="-3.50751">
        <ele>166</ele>
        <time>2015-04-07T13:04:51.1Z</time>
      </trkpt>
      <trkpt lat="48.37049" lon="-3.5075">
        <ele>166</ele>
        <time>2015-04-07T13:04:57.1Z</time>
      </trkpt>
      <trkpt lat="48.3705" lon="-3.5075">
        <ele>167</ele>
        <time>2015-04-07T13:05:02.1Z</time>
      </trkpt>
      <trkpt lat="48.3705" lon="-3.5075">
        <ele>166</ele>
        <time>2015-04-07T13:05:07.1Z</time>
      </trkpt>
      <trkpt lat="48.3705" lon="-3.5075">
        <ele>166</ele>
        <time>2015-04-07T13:05:15.1Z</time>
      </trkpt>
      <trkpt lat="48.37051" lon="-3.5075">
        <ele>167</ele>
        <time>2015-04-07T13:05:24.1Z</time>
      </trkpt>
      <trkpt lat="48.37051" lon="-3.5075">
        <ele>166</ele>
        <time>2015-04-07T13:05:30.1Z</time>
      </trkpt>
      <trkpt lat="48.37051" lon="-3.50749">
        <ele>166</ele>
        <time>2015-04-07T13:05:36.1Z</time>
      </trkpt>
      <trkpt lat="48.37051" lon="-3.5075">
        <ele>166</ele>
        <time>2015-04-07T13:05:42.1Z</time>
      </trkpt>
      <trkpt lat="48.37051" lon="-3.5075">
        <ele>166</ele>
        <time>2015-04-07T13:05:48.1Z</time>
      </trkpt>
      <trkpt lat="48.37051" lon="-3.5075">
        <ele>166</ele>
        <time>2015-04-07T13:05:53.1Z</time>
      </trkpt>
      <trkpt lat="48.37051" lon="-3.50751">
        <ele>166</ele>
        <time>2015-04-07T13:05:58.1Z</time>
      </trkpt>
      <trkpt lat="48.37052" lon="-3.50751">
        <ele>166</ele>
        <time>2015-04-07T13:06:03.1Z</time>
      </trkpt>
      <trkpt lat="48.37052" lon="-3.50752">
        <ele>166</ele>
        <time>2015-04-07T13:06:10.1Z</time>
      </trkpt>
      <trkpt lat="48.37051" lon="-3.50752">
        <ele>166</ele>
        <time>2015-04-07T13:06:16.1Z</time>
      </trkpt>
      <trkpt lat="48.37051" lon="-3.50751">
        <ele>167</ele>
        <time>2015-04-07T13:06:22.1Z</time>
      </trkpt>
      <trkpt lat="48.37051" lon="-3.50751">
        <ele>167</ele>
        <time>2015-04-07T13:06:28.1Z</time>
      </trkpt>
      <trkpt lat="48.37051" lon="-3.5075">
        <ele>166</ele>
        <time>2015-04-07T13:06:34.1Z</time>
      </trkpt>
      <trkpt lat="48.37051" lon="-3.50749">
        <ele>167</ele>
        <time>2015-04-07T13:06:39.1Z</time>
      </trkpt>
      <trkpt lat="48.37051" lon="-3.50748">
        <ele>167</ele>
        <time>2015-04-07T13:06:45.1Z</time>
      </trkpt>
      <trkpt lat="48.3705" lon="-3.50749">
        <ele>167</ele>
        <time>2015-04-07T13:06:51.1Z</time>
      </trkpt>
      <trkpt lat="48.37048" lon="-3.50749">
        <ele>167</ele>
        <time>2015-04-07T13:06:57.1Z</time>
      </trkpt>
      <trkpt lat="48.37047" lon="-3.50748">
        <ele>166</ele>
        <time>2015-04-07T13:07:03.1Z</time>
      </trkpt>
      <trkpt lat="48.37047" lon="-3.50747">
        <ele>166</ele>
        <time>2015-04-07T13:07:09.1Z</time>
      </trkpt>
      <trkpt lat="48.37047" lon="-3.50747">
        <ele>167</ele>
        <time>2015-04-07T13:07:14.1Z</time>
      </trkpt>
      <trkpt lat="48.37047" lon="-3.50746">
        <ele>167</ele>
        <time>2015-04-07T13:07:19.1Z</time>
      </trkpt>
      <trkpt lat="48.37046" lon="-3.5074">
        <ele>167</ele>
        <time>2015-04-07T13:07:25.1Z</time>
      </trkpt>
      <trkpt lat="48.37045" lon="-3.50733">
        <ele>167</ele>
        <time>2015-04-07T13:07:31.1Z</time>
      </trkpt>
      <trkpt lat="48.37042" lon="-3.50727">
        <ele>167</ele>
        <time>2015-04-07T13:07:37.1Z</time>
      </trkpt>
      <trkpt lat="48.37041" lon="-3.50721">
        <ele>167</ele>
        <time>2015-04-07T13:07:42.1Z</time>
      </trkpt>
      <trkpt lat="48.37041" lon="-3.50719">
        <ele>167</ele>
        <time>2015-04-07T13:07:47.1Z</time>
      </trkpt>
      <trkpt lat="48.3704" lon="-3.50713">
        <ele>167</ele>
        <time>2015-04-07T13:07:52.1Z</time>
      </trkpt>
      <trkpt lat="48.3704" lon="-3.50707">
        <ele>167</ele>
        <time>2015-04-07T13:07:57.1Z</time>
      </trkpt>
      <trkpt lat="48.37038" lon="-3.50699">
        <ele>167</ele>
        <time>2015-04-07T13:08:03.1Z</time>
      </trkpt>
      <trkpt lat="48.37037" lon="-3.50693">
        <ele>167</ele>
        <time>2015-04-07T13:08:08.1Z</time>
      </trkpt>
      <trkpt lat="48.37037" lon="-3.50684">
        <ele>167</ele>
        <time>2015-04-07T13:08:14.1Z</time>
      </trkpt>
      <trkpt lat="48.37035" lon="-3.50676">
        <ele>167</ele>
        <time>2015-04-07T13:08:19.1Z</time>
      </trkpt>
      <trkpt lat="48.37034" lon="-3.50668">
        <ele>168</ele>
        <time>2015-04-07T13:08:24.1Z</time>
      </trkpt>
      <trkpt lat="48.37033" lon="-3.5066">
        <ele>167</ele>
        <time>2015-04-07T13:08:29.1Z</time>
      </trkpt>
      <trkpt lat="48.37032" lon="-3.50652">
        <ele>167</ele>
        <time>2015-04-07T13:08:34.1Z</time>
      </trkpt>
      <trkpt lat="48.3703" lon="-3.50645">
        <ele>168</ele>
        <time>2015-04-07T13:08:39.1Z</time>
      </trkpt>
      <trkpt lat="48.37029" lon="-3.50637">
        <ele>168</ele>
        <time>2015-04-07T13:08:45.1Z</time>
      </trkpt>
      <trkpt lat="48.37028" lon="-3.50628">
        <ele>168</ele>
        <time>2015-04-07T13:08:51.1Z</time>
      </trkpt>
      <trkpt lat="48.37027" lon="-3.50622">
        <ele>168</ele>
        <time>2015-04-07T13:08:56.1Z</time>
      </trkpt>
      <trkpt lat="48.37025" lon="-3.50615">
        <ele>168</ele>
        <time>2015-04-07T13:09:01.1Z</time>
      </trkpt>
      <trkpt lat="48.37025" lon="-3.50607">
        <ele>168</ele>
        <time>2015-04-07T13:09:07.1Z</time>
      </trkpt>
      <trkpt lat="48.37024" lon="-3.50599">
        <ele>168</ele>
        <time>2015-04-07T13:09:13.1Z</time>
      </trkpt>
      <trkpt lat="48.37023" lon="-3.50592">
        <ele>168</ele>
        <time>2015-04-07T13:09:18.1Z</time>
      </trkpt>
      <trkpt lat="48.37022" lon="-3.50584">
        <ele>168</ele>
        <time>2015-04-07T13:09:24.1Z</time>
      </trkpt>
      <trkpt lat="48.37021" lon="-3.50576">
        <ele>168</ele>
        <time>2015-04-07T13:09:29.1Z</time>
      </trkpt>
      <trkpt lat="48.3702" lon="-3.50569">
        <ele>168</ele>
        <time>2015-04-07T13:09:34.1Z</time>
      </trkpt>
      <trkpt lat="48.37019" lon="-3.5056">
        <ele>169</ele>
        <time>2015-04-07T13:09:40.1Z</time>
      </trkpt>
      <trkpt lat="48.37018" lon="-3.50552">
        <ele>169</ele>
        <time>2015-04-07T13:09:45.1Z</time>
      </trkpt>
      <trkpt lat="48.37017" lon="-3.50545">
        <ele>170</ele>
        <time>2015-04-07T13:09:50.1Z</time>
      </trkpt>
      <trkpt lat="48.37017" lon="-3.5054">
        <ele>169</ele>
        <time>2015-04-07T13:09:56.1Z</time>
      </trkpt>
      <trkpt lat="48.37016" lon="-3.50533">
        <ele>170</ele>
        <time>2015-04-07T13:10:01.1Z</time>
      </trkpt>
      <trkpt lat="48.37014" lon="-3.50525">
        <ele>170</ele>
        <time>2015-04-07T13:10:06.1Z</time>
      </trkpt>
      <trkpt lat="48.37014" lon="-3.50518">
        <ele>170</ele>
        <time>2015-04-07T13:10:11.1Z</time>
      </trkpt>
      <trkpt lat="48.37012" lon="-3.5051">
        <ele>171</ele>
        <time>2015-04-07T13:10:16.1Z</time>
      </trkpt>
      <trkpt lat="48.37011" lon="-3.50502">
        <ele>171</ele>
        <time>2015-04-07T13:10:22.1Z</time>
      </trkpt>
      <trkpt lat="48.3701" lon="-3.50495">
        <ele>171</ele>
        <time>2015-04-07T13:10:27.1Z</time>
      </trkpt>
      <trkpt lat="48.37009" lon="-3.50487">
        <ele>172</ele>
        <time>2015-04-07T13:10:32.1Z</time>
      </trkpt>
      <trkpt lat="48.37008" lon="-3.50478">
        <ele>172</ele>
        <time>2015-04-07T13:10:38.1Z</time>
      </trkpt>
      <trkpt lat="48.37007" lon="-3.50469">
        <ele>173</ele>
        <time>2015-04-07T13:10:44.1Z</time>
      </trkpt>
      <trkpt lat="48.37006" lon="-3.50465">
        <ele>173</ele>
        <time>2015-04-07T13:10:49.1Z</time>
      </trkpt>
      <trkpt lat="48.37005" lon="-3.5046">
        <ele>173</ele>
        <time>2015-04-07T13:10:54.1Z</time>
      </trkpt>
      <trkpt lat="48.37004" lon="-3.50451">
        <ele>173</ele>
        <time>2015-04-07T13:11:00.1Z</time>
      </trkpt>
      <trkpt lat="48.37004" lon="-3.50443">
        <ele>174</ele>
        <time>2015-04-07T13:11:05.1Z</time>
      </trkpt>
      <trkpt lat="48.37003" lon="-3.50434">
        <ele>175</ele>
        <time>2015-04-07T13:11:11.1Z</time>
      </trkpt>
      <trkpt lat="48.37001" lon="-3.50424">
        <ele>175</ele>
        <time>2015-04-07T13:11:17.1Z</time>
      </trkpt>
      <trkpt lat="48.37" lon="-3.50416">
        <ele>175</ele>
        <time>2015-04-07T13:11:23.1Z</time>
      </trkpt>
      <trkpt lat="48.36999" lon="-3.50408">
        <ele>175</ele>
        <time>2015-04-07T13:11:28.1Z</time>
      </trkpt>
      <trkpt lat="48.36998" lon="-3.50399">
        <ele>175</ele>
        <time>2015-04-07T13:11:34.1Z</time>
      </trkpt>
      <trkpt lat="48.36997" lon="-3.50394">
        <ele>175</ele>
        <time>2015-04-07T13:11:39.1Z</time>
      </trkpt>
      <trkpt lat="48.36997" lon="-3.50387">
        <ele>175</ele>
        <time>2015-04-07T13:11:44.1Z</time>
      </trkpt>
      <trkpt lat="48.36996" lon="-3.50381">
        <ele>176</ele>
        <time>2015-04-07T13:11:49.1Z</time>
      </trkpt>
      <trkpt lat="48.36995" lon="-3.50374">
        <ele>177</ele>
        <time>2015-04-07T13:11:54.1Z</time>
      </trkpt>
      <trkpt lat="48.36993" lon="-3.50366">
        <ele>177</ele>
        <time>2015-04-07T13:12:00.1Z</time>
      </trkpt>
      <trkpt lat="48.36993" lon="-3.5036">
        <ele>176</ele>
        <time>2015-04-07T13:12:05.1Z</time>
      </trkpt>
      <trkpt lat="48.36992" lon="-3.50353">
        <ele>177</ele>
        <time>2015-04-07T13:12:10.1Z</time>
      </trkpt>
      <trkpt lat="48.36991" lon="-3.50346">
        <ele>178</ele>
        <time>2015-04-07T13:12:15.1Z</time>
      </trkpt>
      <trkpt lat="48.3699" lon="-3.50339">
        <ele>177</ele>
        <time>2015-04-07T13:12:20.1Z</time>
      </trkpt>
      <trkpt lat="48.36988" lon="-3.50332">
        <ele>178</ele>
        <time>2015-04-07T13:12:26.1Z</time>
      </trkpt>
      <trkpt lat="48.36987" lon="-3.50326">
        <ele>178</ele>
        <time>2015-04-07T13:12:31.1Z</time>
      </trkpt>
      <trkpt lat="48.36985" lon="-3.50319">
        <ele>179</ele>
        <time>2015-04-07T13:12:36.1Z</time>
      </trkpt>
      <trkpt lat="48.36984" lon="-3.50311">
        <ele>179</ele>
        <time>2015-04-07T13:12:42.1Z</time>
      </trkpt>
      <trkpt lat="48.36983" lon="-3.50304">
        <ele>178</ele>
        <time>2015-04-07T13:12:48.1Z</time>
      </trkpt>
      <trkpt lat="48.36983" lon="-3.50299">
        <ele>178</ele>
        <time>2015-04-07T13:12:55.1Z</time>
      </trkpt>
      <trkpt lat="48.36983" lon="-3.50298">
        <ele>178</ele>
        <time>2015-04-07T13:13:00.1Z</time>
      </trkpt>
      <trkpt lat="48.36982" lon="-3.50292">
        <ele>178</ele>
        <time>2015-04-07T13:13:05.1Z</time>
      </trkpt>
      <trkpt lat="48.36982" lon="-3.50284">
        <ele>179</ele>
        <time>2015-04-07T13:13:11.1Z</time>
      </trkpt>
      <trkpt lat="48.36982" lon="-3.50274">
        <ele>179</ele>
        <time>2015-04-07T13:13:17.1Z</time>
      </trkpt>
      <trkpt lat="48.36981" lon="-3.50267">
        <ele>179</ele>
        <time>2015-04-07T13:13:22.1Z</time>
      </trkpt>
      <trkpt lat="48.3698" lon="-3.50259">
        <ele>179</ele>
        <time>2015-04-07T13:13:28.1Z</time>
      </trkpt>
      <trkpt lat="48.3698" lon="-3.50251">
        <ele>179</ele>
        <time>2015-04-07T13:13:33.1Z</time>
      </trkpt>
      <trkpt lat="48.36979" lon="-3.50244">
        <ele>179</ele>
        <time>2015-04-07T13:13:38.1Z</time>
      </trkpt>
      <trkpt lat="48.36979" lon="-3.50236">
        <ele>179</ele>
        <time>2015-04-07T13:13:43.1Z</time>
      </trkpt>
      <trkpt lat="48.36977" lon="-3.50227">
        <ele>179</ele>
        <time>2015-04-07T13:13:49.1Z</time>
      </trkpt>
      <trkpt lat="48.36977" lon="-3.50218">
        <ele>179</ele>
        <time>2015-04-07T13:13:55.1Z</time>
      </trkpt>
      <trkpt lat="48.36976" lon="-3.50208">
        <ele>179</ele>
        <time>2015-04-07T13:14:01.1Z</time>
      </trkpt>
      <trkpt lat="48.36976" lon="-3.50201">
        <ele>179</ele>
        <time>2015-04-07T13:14:06.1Z</time>
      </trkpt>
      <trkpt lat="48.36976" lon="-3.50192">
        <ele>179</ele>
        <time>2015-04-07T13:14:12.1Z</time>
      </trkpt>
      <trkpt lat="48.36976" lon="-3.50184">
        <ele>179</ele>
        <time>2015-04-07T13:14:17.1Z</time>
      </trkpt>
      <trkpt lat="48.36976" lon="-3.50178">
        <ele>179</ele>
        <time>2015-04-07T13:14:23.1Z</time>
      </trkpt>
      <trkpt lat="48.36976" lon="-3.50173">
        <ele>179</ele>
        <time>2015-04-07T13:14:28.1Z</time>
      </trkpt>
      <trkpt lat="48.36976" lon="-3.50165">
        <ele>179</ele>
        <time>2015-04-07T13:14:33.1Z</time>
      </trkpt>
      <trkpt lat="48.36975" lon="-3.50156">
        <ele>179</ele>
        <time>2015-04-07T13:14:39.1Z</time>
      </trkpt>
      <trkpt lat="48.36975" lon="-3.50147">
        <ele>179</ele>
        <time>2015-04-07T13:14:45.1Z</time>
      </trkpt>
      <trkpt lat="48.36974" lon="-3.50138">
        <ele>179</ele>
        <time>2015-04-07T13:14:51.1Z</time>
      </trkpt>
      <trkpt lat="48.36975" lon="-3.5013">
        <ele>179</ele>
        <time>2015-04-07T13:14:56.1Z</time>
      </trkpt>
      <trkpt lat="48.36975" lon="-3.50121">
        <ele>179</ele>
        <time>2015-04-07T13:15:02.1Z</time>
      </trkpt>
      <trkpt lat="48.36976" lon="-3.50114">
        <ele>178</ele>
        <time>2015-04-07T13:15:07.1Z</time>
      </trkpt>
      <trkpt lat="48.36976" lon="-3.50107">
        <ele>178</ele>
        <time>2015-04-07T13:15:12.1Z</time>
      </trkpt>
      <trkpt lat="48.36976" lon="-3.501">
        <ele>178</ele>
        <time>2015-04-07T13:15:17.1Z</time>
      </trkpt>
      <trkpt lat="48.36977" lon="-3.50092">
        <ele>178</ele>
        <time>2015-04-07T13:15:23.1Z</time>
      </trkpt>
      <trkpt lat="48.36977" lon="-3.50082">
        <ele>177</ele>
        <time>2015-04-07T13:15:29.1Z</time>
      </trkpt>
      <trkpt lat="48.36975" lon="-3.50073">
        <ele>178</ele>
        <time>2015-04-07T13:15:35.1Z</time>
      </trkpt>
      <trkpt lat="48.36975" lon="-3.50066">
        <ele>178</ele>
        <time>2015-04-07T13:15:40.1Z</time>
      </trkpt>
      <trkpt lat="48.36975" lon="-3.50057">
        <ele>178</ele>
        <time>2015-04-07T13:15:46.1Z</time>
      </trkpt>
      <trkpt lat="48.36976" lon="-3.50049">
        <ele>178</ele>
        <time>2015-04-07T13:15:51.1Z</time>
      </trkpt>
      <trkpt lat="48.36977" lon="-3.50041">
        <ele>178</ele>
        <time>2015-04-07T13:15:57.1Z</time>
      </trkpt>
      <trkpt lat="48.36977" lon="-3.50035">
        <ele>177</ele>
        <time>2015-04-07T13:16:02.1Z</time>
      </trkpt>
      <trkpt lat="48.36978" lon="-3.5003">
        <ele>177</ele>
        <time>2015-04-07T13:16:07.1Z</time>
      </trkpt>
      <trkpt lat="48.36981" lon="-3.50027">
        <ele>177</ele>
        <time>2015-04-07T13:16:13.1Z</time>
      </trkpt>
      <trkpt lat="48.36982" lon="-3.50026">
        <ele>178</ele>
        <time>2015-04-07T13:16:21.1Z</time>
      </trkpt>
      <trkpt lat="48.36982" lon="-3.50027">
        <ele>178</ele>
        <time>2015-04-07T13:16:26.1Z</time>
      </trkpt>
      <trkpt lat="48.36981" lon="-3.50027">
        <ele>177</ele>
        <time>2015-04-07T13:16:31.1Z</time>
      </trkpt>
      <trkpt lat="48.36982" lon="-3.50027">
        <ele>177</ele>
        <time>2015-04-07T13:16:38.1Z</time>
      </trkpt>
      <trkpt lat="48.36981" lon="-3.50028">
        <ele>178</ele>
        <time>2015-04-07T13:16:43.1Z</time>
      </trkpt>
      <trkpt lat="48.3698" lon="-3.50027">
        <ele>178</ele>
        <time>2015-04-07T13:16:49.1Z</time>
      </trkpt>
      <trkpt lat="48.36981" lon="-3.50027">
        <ele>178</ele>
        <time>2015-04-07T13:16:57.1Z</time>
      </trkpt>
      <trkpt lat="48.36981" lon="-3.50027">
        <ele>178</ele>
        <time>2015-04-07T13:17:02.1Z</time>
      </trkpt>
      <trkpt lat="48.36981" lon="-3.50027">
        <ele>178</ele>
        <time>2015-04-07T13:17:07.1Z</time>
      </trkpt>
      <trkpt lat="48.36981" lon="-3.50027">
        <ele>179</ele>
        <time>2015-04-07T13:17:15.1Z</time>
      </trkpt>
      <trkpt lat="48.36981" lon="-3.50027">
        <ele>179</ele>
        <time>2015-04-07T13:17:21.1Z</time>
      </trkpt>
      <trkpt lat="48.36981" lon="-3.50026">
        <ele>179</ele>
        <time>2015-04-07T13:17:27.1Z</time>
      </trkpt>
      <trkpt lat="48.36981" lon="-3.50026">
        <ele>180</ele>
        <time>2015-04-07T13:17:32.1Z</time>
      </trkpt>
      <trkpt lat="48.36981" lon="-3.50026">
        <ele>178</ele>
        <time>2015-04-07T13:17:39.1Z</time>
      </trkpt>
      <trkpt lat="48.36981" lon="-3.50026">
        <ele>178</ele>
        <time>2015-04-07T13:17:44.1Z</time>
      </trkpt>
      <trkpt lat="48.36983" lon="-3.50028">
        <ele>178</ele>
        <time>2015-04-07T13:17:50.1Z</time>
      </trkpt>
      <trkpt lat="48.36985" lon="-3.5003">
        <ele>177</ele>
        <time>2015-04-07T13:17:55.1Z</time>
      </trkpt>
      <trkpt lat="48.36986" lon="-3.50028">
        <ele>177</ele>
        <time>2015-04-07T13:18:01.1Z</time>
      </trkpt>
      <trkpt lat="48.36988" lon="-3.50028">
        <ele>178</ele>
        <time>2015-04-07T13:18:06.1Z</time>
      </trkpt>
      <trkpt lat="48.36991" lon="-3.50025">
        <ele>178</ele>
        <time>2015-04-07T13:18:12.1Z</time>
      </trkpt>
      <trkpt lat="48.36995" lon="-3.50022">
        <ele>178</ele>
        <time>2015-04-07T13:18:18.1Z</time>
      </trkpt>
      <trkpt lat="48.37" lon="-3.50021">
        <ele>177</ele>
        <time>2015-04-07T13:18:24.1Z</time>
      </trkpt>
      <trkpt lat="48.37004" lon="-3.50016">
        <ele>177</ele>
        <time>2015-04-07T13:18:29.1Z</time>
      </trkpt>
      <trkpt lat="48.37008" lon="-3.50013">
        <ele>178</ele>
        <time>2015-04-07T13:18:34.1Z</time>
      </trkpt>
      <trkpt lat="48.37012" lon="-3.50008">
        <ele>177</ele>
        <time>2015-04-07T13:18:40.1Z</time>
      </trkpt>
      <trkpt lat="48.37016" lon="-3.50005">
        <ele>176</ele>
        <time>2015-04-07T13:18:45.1Z</time>
      </trkpt>
      <trkpt lat="48.37021" lon="-3.50001">
        <ele>176</ele>
        <time>2015-04-07T13:18:51.1Z</time>
      </trkpt>
      <trkpt lat="48.37026" lon="-3.49995">
        <ele>175</ele>
        <time>2015-04-07T13:18:57.1Z</time>
      </trkpt>
      <trkpt lat="48.37031" lon="-3.49991">
        <ele>175</ele>
        <time>2015-04-07T13:19:02.1Z</time>
      </trkpt>
      <trkpt lat="48.37035" lon="-3.49987">
        <ele>175</ele>
        <time>2015-04-07T13:19:07.1Z</time>
      </trkpt>
      <trkpt lat="48.3704" lon="-3.49982">
        <ele>174</ele>
        <time>2015-04-07T13:19:12.1Z</time>
      </trkpt>
      <trkpt lat="48.37046" lon="-3.49976">
        <ele>174</ele>
        <time>2015-04-07T13:19:18.1Z</time>
      </trkpt>
      <trkpt lat="48.37052" lon="-3.49972">
        <ele>174</ele>
        <time>2015-04-07T13:19:23.1Z</time>
      </trkpt>
      <trkpt lat="48.37058" lon="-3.49965">
        <ele>175</ele>
        <time>2015-04-07T13:19:29.1Z</time>
      </trkpt>
      <trkpt lat="48.37063" lon="-3.49961">
        <ele>175</ele>
        <time>2015-04-07T13:19:34.1Z</time>
      </trkpt>
      <trkpt lat="48.37069" lon="-3.49955">
        <ele>176</ele>
        <time>2015-04-07T13:19:40.1Z</time>
      </trkpt>
      <trkpt lat="48.37076" lon="-3.4995">
        <ele>176</ele>
        <time>2015-04-07T13:19:46.1Z</time>
      </trkpt>
      <trkpt lat="48.37082" lon="-3.49945">
        <ele>176</ele>
        <time>2015-04-07T13:19:51.1Z</time>
      </trkpt>
      <trkpt lat="48.37088" lon="-3.4994">
        <ele>176</ele>
        <time>2015-04-07T13:19:57.1Z</time>
      </trkpt>
      <trkpt lat="48.37093" lon="-3.49937">
        <ele>176</ele>
        <time>2015-04-07T13:20:02.1Z</time>
      </trkpt>
      <trkpt lat="48.37099" lon="-3.49933">
        <ele>177</ele>
        <time>2015-04-07T13:20:08.1Z</time>
      </trkpt>
      <trkpt lat="48.37104" lon="-3.49929">
        <ele>178</ele>
        <time>2015-04-07T13:20:13.1Z</time>
      </trkpt>
      <trkpt lat="48.37109" lon="-3.49926">
        <ele>178</ele>
        <time>2015-04-07T13:20:19.1Z</time>
      </trkpt>
      <trkpt lat="48.37113" lon="-3.49921">
        <ele>178</ele>
        <time>2015-04-07T13:20:24.1Z</time>
      </trkpt>
      <trkpt lat="48.37119" lon="-3.49917">
        <ele>178</ele>
        <time>2015-04-07T13:20:30.1Z</time>
      </trkpt>
      <trkpt lat="48.37123" lon="-3.49912">
        <ele>178</ele>
        <time>2015-04-07T13:20:35.1Z</time>
      </trkpt>
      <trkpt lat="48.37127" lon="-3.49908">
        <ele>178</ele>
        <time>2015-04-07T13:20:40.1Z</time>
      </trkpt>
      <trkpt lat="48.37132" lon="-3.49903">
        <ele>179</ele>
        <time>2015-04-07T13:20:46.1Z</time>
      </trkpt>
      <trkpt lat="48.37137" lon="-3.49898">
        <ele>179</ele>
        <time>2015-04-07T13:20:51.1Z</time>
      </trkpt>
      <trkpt lat="48.37142" lon="-3.49893">
        <ele>179</ele>
        <time>2015-04-07T13:20:57.1Z</time>
      </trkpt>
      <trkpt lat="48.37146" lon="-3.49889">
        <ele>180</ele>
        <time>2015-04-07T13:21:02.1Z</time>
      </trkpt>
      <trkpt lat="48.37151" lon="-3.49884">
        <ele>180</ele>
        <time>2015-04-07T13:21:08.1Z</time>
      </trkpt>
      <trkpt lat="48.37155" lon="-3.4988">
        <ele>181</ele>
        <time>2015-04-07T13:21:13.1Z</time>
      </trkpt>
      <trkpt lat="48.3716" lon="-3.49876">
        <ele>181</ele>
        <time>2015-04-07T13:21:19.1Z</time>
      </trkpt>
      <trkpt lat="48.37164" lon="-3.49871">
        <ele>182</ele>
        <time>2015-04-07T13:21:24.1Z</time>
      </trkpt>
      <trkpt lat="48.37167" lon="-3.49869">
        <ele>181</ele>
        <time>2015-04-07T13:21:30.1Z</time>
      </trkpt>
      <trkpt lat="48.37168" lon="-3.49869">
        <ele>181</ele>
        <time>2015-04-07T13:21:36.1Z</time>
      </trkpt>
      <trkpt lat="48.37169" lon="-3.49867">
        <ele>181</ele>
        <time>2015-04-07T13:21:41.1Z</time>
      </trkpt>
      <trkpt lat="48.37169" lon="-3.49867">
        <ele>182</ele>
        <time>2015-04-07T13:21:46.1Z</time>
      </trkpt>
      <trkpt lat="48.3717" lon="-3.49868">
        <ele>182</ele>
        <time>2015-04-07T13:21:52.1Z</time>
      </trkpt>
      <trkpt lat="48.3717" lon="-3.49868">
        <ele>182</ele>
        <time>2015-04-07T13:21:57.1Z</time>
      </trkpt>
      <trkpt lat="48.37173" lon="-3.49864">
        <ele>182</ele>
        <time>2015-04-07T13:22:03.1Z</time>
      </trkpt>
      <trkpt lat="48.37178" lon="-3.4986">
        <ele>182</ele>
        <time>2015-04-07T13:22:09.1Z</time>
      </trkpt>
      <trkpt lat="48.37183" lon="-3.49856">
        <ele>182</ele>
        <time>2015-04-07T13:22:14.1Z</time>
      </trkpt>
      <trkpt lat="48.37187" lon="-3.49852">
        <ele>182</ele>
        <time>2015-04-07T13:22:19.1Z</time>
      </trkpt>
      <trkpt lat="48.37191" lon="-3.49848">
        <ele>183</ele>
        <time>2015-04-07T13:22:24.1Z</time>
      </trkpt>
      <trkpt lat="48.37197" lon="-3.49843">
        <ele>183</ele>
        <time>2015-04-07T13:22:30.1Z</time>
      </trkpt>
      <trkpt lat="48.37201" lon="-3.49839">
        <ele>183</ele>
        <time>2015-04-07T13:22:35.1Z</time>
      </trkpt>
      <trkpt lat="48.37205" lon="-3.49834">
        <ele>184</ele>
        <time>2015-04-07T13:22:40.1Z</time>
      </trkpt>
      <trkpt lat="48.3721" lon="-3.4983">
        <ele>184</ele>
        <time>2015-04-07T13:22:45.1Z</time>
      </trkpt>
      <trkpt lat="48.37216" lon="-3.49826">
        <ele>184</ele>
        <time>2015-04-07T13:22:51.1Z</time>
      </trkpt>
      <trkpt lat="48.37221" lon="-3.49821">
        <ele>185</ele>
        <time>2015-04-07T13:22:57.1Z</time>
      </trkpt>
      <trkpt lat="48.37226" lon="-3.49817">
        <ele>185</ele>
        <time>2015-04-07T13:23:02.1Z</time>
      </trkpt>
      <trkpt lat="48.3723" lon="-3.49813">
        <ele>185</ele>
        <time>2015-04-07T13:23:07.1Z</time>
      </trkpt>
      <trkpt lat="48.37234" lon="-3.4981">
        <ele>185</ele>
        <time>2015-04-07T13:23:12.1Z</time>
      </trkpt>
      <trkpt lat="48.37239" lon="-3.49805">
        <ele>185</ele>
        <time>2015-04-07T13:23:18.1Z</time>
      </trkpt>
      <trkpt lat="48.37244" lon="-3.49801">
        <ele>185</ele>
        <time>2015-04-07T13:23:23.1Z</time>
      </trkpt>
      <trkpt lat="48.37249" lon="-3.49797">
        <ele>185</ele>
        <time>2015-04-07T13:23:29.1Z</time>
      </trkpt>
      <trkpt lat="48.37254" lon="-3.49792">
        <ele>186</ele>
        <time>2015-04-07T13:23:34.1Z</time>
      </trkpt>
      <trkpt lat="48.37259" lon="-3.49787">
        <ele>186</ele>
        <time>2015-04-07T13:23:40.1Z</time>
      </trkpt>
      <trkpt lat="48.37263" lon="-3.49784">
        <ele>186</ele>
        <time>2015-04-07T13:23:45.1Z</time>
      </trkpt>
      <trkpt lat="48.37268" lon="-3.4978">
        <ele>186</ele>
        <time>2015-04-07T13:23:50.1Z</time>
      </trkpt>
      <trkpt lat="48.37273" lon="-3.49776">
        <ele>186</ele>
        <time>2015-04-07T13:23:56.1Z</time>
      </trkpt>
      <trkpt lat="48.37278" lon="-3.49771">
        <ele>187</ele>
        <time>2015-04-07T13:24:02.1Z</time>
      </trkpt>
      <trkpt lat="48.37282" lon="-3.49767">
        <ele>187</ele>
        <time>2015-04-07T13:24:07.1Z</time>
      </trkpt>
      <trkpt lat="48.37287" lon="-3.49763">
        <ele>187</ele>
        <time>2015-04-07T13:24:13.1Z</time>
      </trkpt>
      <trkpt lat="48.37291" lon="-3.49759">
        <ele>187</ele>
        <time>2015-04-07T13:24:18.1Z</time>
      </trkpt>
      <trkpt lat="48.37295" lon="-3.49756">
        <ele>187</ele>
        <time>2015-04-07T13:24:23.1Z</time>
      </trkpt>
      <trkpt lat="48.373" lon="-3.49751">
        <ele>187</ele>
        <time>2015-04-07T13:24:29.1Z</time>
      </trkpt>
      <trkpt lat="48.37305" lon="-3.49748">
        <ele>187</ele>
        <time>2015-04-07T13:24:34.1Z</time>
      </trkpt>
      <trkpt lat="48.37309" lon="-3.49744">
        <ele>187</ele>
        <time>2015-04-07T13:24:40.1Z</time>
      </trkpt>
      <trkpt lat="48.37313" lon="-3.4974">
        <ele>187</ele>
        <time>2015-04-07T13:24:45.1Z</time>
      </trkpt>
      <trkpt lat="48.37315" lon="-3.49738">
        <ele>187</ele>
        <time>2015-04-07T13:24:53.1Z</time>
      </trkpt>
      <trkpt lat="48.37318" lon="-3.49735">
        <ele>187</ele>
        <time>2015-04-07T13:24:58.1Z</time>
      </trkpt>
      <trkpt lat="48.37323" lon="-3.49731">
        <ele>188</ele>
        <time>2015-04-07T13:25:04.1Z</time>
      </trkpt>
      <trkpt lat="48.37326" lon="-3.49728">
        <ele>188</ele>
        <time>2015-04-07T13:25:09.1Z</time>
      </trkpt>
      <trkpt lat="48.3733" lon="-3.49724">
        <ele>188</ele>
        <time>2015-04-07T13:25:15.1Z</time>
      </trkpt>
      <trkpt lat="48.37332" lon="-3.49723">
        <ele>188</ele>
        <time>2015-04-07T13:25:21.1Z</time>
      </trkpt>
      <trkpt lat="48.37336" lon="-3.4972">
        <ele>188</ele>
        <time>2015-04-07T13:25:26.1Z</time>
      </trkpt>
      <trkpt lat="48.37342" lon="-3.49716">
        <ele>187</ele>
        <time>2015-04-07T13:25:32.1Z</time>
      </trkpt>
      <trkpt lat="48.37347" lon="-3.49714">
        <ele>187</ele>
        <time>2015-04-07T13:25:37.1Z</time>
      </trkpt>
      <trkpt lat="48.37353" lon="-3.49711">
        <ele>187</ele>
        <time>2015-04-07T13:25:43.1Z</time>
      </trkpt>
      <trkpt lat="48.37358" lon="-3.4971">
        <ele>187</ele>
        <time>2015-04-07T13:25:48.1Z</time>
      </trkpt>
      <trkpt lat="48.37363" lon="-3.49708">
        <ele>187</ele>
        <time>2015-04-07T13:25:53.1Z</time>
      </trkpt>
      <trkpt lat="48.37368" lon="-3.49709">
        <ele>187</ele>
        <time>2015-04-07T13:25:59.1Z</time>
      </trkpt>
      <trkpt lat="48.37373" lon="-3.4971">
        <ele>187</ele>
        <time>2015-04-07T13:26:04.1Z</time>
      </trkpt>
      <trkpt lat="48.37375" lon="-3.4971">
        <ele>187</ele>
        <time>2015-04-07T13:26:10.1Z</time>
      </trkpt>
      <trkpt lat="48.37377" lon="-3.4971">
        <ele>187</ele>
        <time>2015-04-07T13:26:15.1Z</time>
      </trkpt>
      <trkpt lat="48.37377" lon="-3.4971">
        <ele>187</ele>
        <time>2015-04-07T13:26:21.1Z</time>
      </trkpt>
      <trkpt lat="48.37377" lon="-3.49708">
        <ele>187</ele>
        <time>2015-04-07T13:26:27.1Z</time>
      </trkpt>
      <trkpt lat="48.37377" lon="-3.49707">
        <ele>187</ele>
        <time>2015-04-07T13:26:33.1Z</time>
      </trkpt>
      <trkpt lat="48.37378" lon="-3.49708">
        <ele>186</ele>
        <time>2015-04-07T13:26:38.1Z</time>
      </trkpt>
      <trkpt lat="48.37382" lon="-3.49712">
        <ele>186</ele>
        <time>2015-04-07T13:26:44.1Z</time>
      </trkpt>
      <trkpt lat="48.37385" lon="-3.49715">
        <ele>187</ele>
        <time>2015-04-07T13:26:49.1Z</time>
      </trkpt>
      <trkpt lat="48.37389" lon="-3.49718">
        <ele>186</ele>
        <time>2015-04-07T13:26:54.1Z</time>
      </trkpt>
      <trkpt lat="48.37392" lon="-3.49722">
        <ele>186</ele>
        <time>2015-04-07T13:27:00.1Z</time>
      </trkpt>
      <trkpt lat="48.37392" lon="-3.49723">
        <ele>186</ele>
        <time>2015-04-07T13:27:05.1Z</time>
      </trkpt>
      <trkpt lat="48.37393" lon="-3.49724">
        <ele>186</ele>
        <time>2015-04-07T13:27:11.1Z</time>
      </trkpt>
      <trkpt lat="48.37393" lon="-3.49725">
        <ele>186</ele>
        <time>2015-04-07T13:27:17.1Z</time>
      </trkpt>
      <trkpt lat="48.37394" lon="-3.49725">
        <ele>186</ele>
        <time>2015-04-07T13:27:23.1Z</time>
      </trkpt>
      <trkpt lat="48.37394" lon="-3.49725">
        <ele>186</ele>
        <time>2015-04-07T13:27:29.1Z</time>
      </trkpt>
      <trkpt lat="48.37394" lon="-3.49725">
        <ele>185</ele>
        <time>2015-04-07T13:27:36.1Z</time>
      </trkpt>
      <trkpt lat="48.37395" lon="-3.49725">
        <ele>186</ele>
        <time>2015-04-07T13:27:42.1Z</time>
      </trkpt>
      <trkpt lat="48.37395" lon="-3.49724">
        <ele>185</ele>
        <time>2015-04-07T13:27:48.1Z</time>
      </trkpt>
      <trkpt lat="48.37396" lon="-3.49724">
        <ele>186</ele>
        <time>2015-04-07T13:27:55.1Z</time>
      </trkpt>
      <trkpt lat="48.37396" lon="-3.49724">
        <ele>186</ele>
        <time>2015-04-07T13:28:01.1Z</time>
      </trkpt>
      <trkpt lat="48.37396" lon="-3.49723">
        <ele>186</ele>
        <time>2015-04-07T13:28:07.1Z</time>
      </trkpt>
      <trkpt lat="48.37396" lon="-3.49724">
        <ele>186</ele>
        <time>2015-04-07T13:28:15.1Z</time>
      </trkpt>
      <trkpt lat="48.37395" lon="-3.49724">
        <ele>185</ele>
        <time>2015-04-07T13:28:22.1Z</time>
      </trkpt>
      <trkpt lat="48.37395" lon="-3.49726">
        <ele>185</ele>
        <time>2015-04-07T13:28:27.1Z</time>
      </trkpt>
      <trkpt lat="48.37396" lon="-3.49727">
        <ele>186</ele>
        <time>2015-04-07T13:28:33.1Z</time>
      </trkpt>
      <trkpt lat="48.37396" lon="-3.49727">
        <ele>186</ele>
        <time>2015-04-07T13:28:39.1Z</time>
      </trkpt>
      <trkpt lat="48.37396" lon="-3.49727">
        <ele>186</ele>
        <time>2015-04-07T13:28:45.1Z</time>
      </trkpt>
      <trkpt lat="48.37397" lon="-3.49727">
        <ele>186</ele>
        <time>2015-04-07T13:28:50.1Z</time>
      </trkpt>
      <trkpt lat="48.37398" lon="-3.49728">
        <ele>186</ele>
        <time>2015-04-07T13:28:55.1Z</time>
      </trkpt>
      <trkpt lat="48.37402" lon="-3.49733">
        <ele>185</ele>
        <time>2015-04-07T13:29:01.1Z</time>
      </trkpt>
      <trkpt lat="48.37407" lon="-3.49737">
        <ele>185</ele>
        <time>2015-04-07T13:29:07.1Z</time>
      </trkpt>
      <trkpt lat="48.37411" lon="-3.49741">
        <ele>185</ele>
        <time>2015-04-07T13:29:12.1Z</time>
      </trkpt>
      <trkpt lat="48.37415" lon="-3.49745">
        <ele>185</ele>
        <time>2015-04-07T13:29:17.1Z</time>
      </trkpt>
      <trkpt lat="48.3742" lon="-3.49749">
        <ele>185</ele>
        <time>2015-04-07T13:29:22.1Z</time>
      </trkpt>
      <trkpt lat="48.37424" lon="-3.49753">
        <ele>185</ele>
        <time>2015-04-07T13:29:27.1Z</time>
      </trkpt>
      <trkpt lat="48.37429" lon="-3.49758">
        <ele>185</ele>
        <time>2015-04-07T13:29:32.1Z</time>
      </trkpt>
      <trkpt lat="48.37435" lon="-3.49764">
        <ele>184</ele>
        <time>2015-04-07T13:29:38.1Z</time>
      </trkpt>
      <trkpt lat="48.37439" lon="-3.49769">
        <ele>184</ele>
        <time>2015-04-07T13:29:43.1Z</time>
      </trkpt>
      <trkpt lat="48.37445" lon="-3.49774">
        <ele>184</ele>
        <time>2015-04-07T13:29:48.1Z</time>
      </trkpt>
      <trkpt lat="48.37449" lon="-3.49778">
        <ele>184</ele>
        <time>2015-04-07T13:29:53.1Z</time>
      </trkpt>
      <trkpt lat="48.37455" lon="-3.49783">
        <ele>183</ele>
        <time>2015-04-07T13:29:59.1Z</time>
      </trkpt>
      <trkpt lat="48.3746" lon="-3.49788">
        <ele>183</ele>
        <time>2015-04-07T13:30:04.1Z</time>
      </trkpt>
      <trkpt lat="48.37467" lon="-3.49794">
        <ele>182</ele>
        <time>2015-04-07T13:30:10.1Z</time>
      </trkpt>
      <trkpt lat="48.37474" lon="-3.49799">
        <ele>182</ele>
        <time>2015-04-07T13:30:16.1Z</time>
      </trkpt>
      <trkpt lat="48.37479" lon="-3.49803">
        <ele>182</ele>
        <time>2015-04-07T13:30:21.1Z</time>
      </trkpt>
      <trkpt lat="48.37486" lon="-3.49809">
        <ele>182</ele>
        <time>2015-04-07T13:30:27.1Z</time>
      </trkpt>
      <trkpt lat="48.37492" lon="-3.49814">
        <ele>182</ele>
        <time>2015-04-07T13:30:33.1Z</time>
      </trkpt>
      <trkpt lat="48.37498" lon="-3.4982">
        <ele>182</ele>
        <time>2015-04-07T13:30:39.1Z</time>
      </trkpt>
      <trkpt lat="48.37503" lon="-3.49826">
        <ele>182</ele>
        <time>2015-04-07T13:30:45.1Z</time>
      </trkpt>
      <trkpt lat="48.37506" lon="-3.49828">
        <ele>182</ele>
        <time>2015-04-07T13:30:50.1Z</time>
      </trkpt>
      <trkpt lat="48.37511" lon="-3.49832">
        <ele>181</ele>
        <time>2015-04-07T13:30:55.1Z</time>
      </trkpt>
      <trkpt lat="48.37516" lon="-3.49837">
        <ele>180</ele>
        <time>2015-04-07T13:31:01.1Z</time>
      </trkpt>
      <trkpt lat="48.37521" lon="-3.49842">
        <ele>180</ele>
        <time>2015-04-07T13:31:06.1Z</time>
      </trkpt>
      <trkpt lat="48.37526" lon="-3.49846">
        <ele>181</ele>
        <time>2015-04-07T13:31:11.1Z</time>
      </trkpt>
      <trkpt lat="48.37533" lon="-3.49851">
        <ele>181</ele>
        <time>2015-04-07T13:31:17.1Z</time>
      </trkpt>
      <trkpt lat="48.37539" lon="-3.49854">
        <ele>181</ele>
        <time>2015-04-07T13:31:22.1Z</time>
      </trkpt>
      <trkpt lat="48.37545" lon="-3.49858">
        <ele>181</ele>
        <time>2015-04-07T13:31:27.1Z</time>
      </trkpt>
      <trkpt lat="48.37552" lon="-3.49861">
        <ele>181</ele>
        <time>2015-04-07T13:31:33.1Z</time>
      </trkpt>
      <trkpt lat="48.37558" lon="-3.49864">
        <ele>180</ele>
        <time>2015-04-07T13:31:38.1Z</time>
      </trkpt>
      <trkpt lat="48.37566" lon="-3.49866">
        <ele>180</ele>
        <time>2015-04-07T13:31:44.1Z</time>
      </trkpt>
      <trkpt lat="48.37572" lon="-3.49868">
        <ele>180</ele>
        <time>2015-04-07T13:31:50.1Z</time>
      </trkpt>
      <trkpt lat="48.37578" lon="-3.49869">
        <ele>179</ele>
        <time>2015-04-07T13:31:55.1Z</time>
      </trkpt>
      <trkpt lat="48.37583" lon="-3.4987">
        <ele>179</ele>
        <time>2015-04-07T13:32:00.1Z</time>
      </trkpt>
      <trkpt lat="48.37589" lon="-3.49871">
        <ele>178</ele>
        <time>2015-04-07T13:32:05.1Z</time>
      </trkpt>
      <trkpt lat="48.37596" lon="-3.49873">
        <ele>178</ele>
        <time>2015-04-07T13:32:11.1Z</time>
      </trkpt>
      <trkpt lat="48.376" lon="-3.49874">
        <ele>178</ele>
        <time>2015-04-07T13:32:16.1Z</time>
      </trkpt>
      <trkpt lat="48.37606" lon="-3.49876">
        <ele>177</ele>
        <time>2015-04-07T13:32:22.1Z</time>
      </trkpt>
      <trkpt lat="48.37611" lon="-3.49878">
        <ele>177</ele>
        <time>2015-04-07T13:32:27.1Z</time>
      </trkpt>
      <trkpt lat="48.37616" lon="-3.4988">
        <ele>177</ele>
        <time>2015-04-07T13:32:32.1Z</time>
      </trkpt>
      <trkpt lat="48.37621" lon="-3.49882">
        <ele>176</ele>
        <time>2015-04-07T13:32:37.1Z</time>
      </trkpt>
      <trkpt lat="48.37627" lon="-3.49885">
        <ele>175</ele>
        <time>2015-04-07T13:32:43.1Z</time>
      </trkpt>
      <trkpt lat="48.37631" lon="-3.49888">
        <ele>174</ele>
        <time>2015-04-07T13:32:48.1Z</time>
      </trkpt>
      <trkpt lat="48.37637" lon="-3.49891">
        <ele>174</ele>
        <time>2015-04-07T13:32:54.1Z</time>
      </trkpt>
      <trkpt lat="48.37644" lon="-3.49894">
        <ele>174</ele>
        <time>2015-04-07T13:33:00.1Z</time>
      </trkpt>
      <trkpt lat="48.3765" lon="-3.49896">
        <ele>173</ele>
        <time>2015-04-07T13:33:05.1Z</time>
      </trkpt>
      <trkpt lat="48.37657" lon="-3.49897">
        <ele>172</ele>
        <time>2015-04-07T13:33:11.1Z</time>
      </trkpt>
      <trkpt lat="48.37663" lon="-3.49899">
        <ele>172</ele>
        <time>2015-04-07T13:33:16.1Z</time>
      </trkpt>
      <trkpt lat="48.37668" lon="-3.49901">
        <ele>171</ele>
        <time>2015-04-07T13:33:21.1Z</time>
      </trkpt>
      <trkpt lat="48.37675" lon="-3.49902">
        <ele>170</ele>
        <time>2015-04-07T13:33:27.1Z</time>
      </trkpt>
      <trkpt lat="48.3768" lon="-3.49903">
        <ele>169</ele>
        <time>2015-04-07T13:33:32.1Z</time>
      </trkpt>
      <trkpt lat="48.37687" lon="-3.49905">
        <ele>168</ele>
        <time>2015-04-07T13:33:38.1Z</time>
      </trkpt>
      <trkpt lat="48.37691" lon="-3.49907">
        <ele>167</ele>
        <time>2015-04-07T13:33:43.1Z</time>
      </trkpt>
      <trkpt lat="48.37698" lon="-3.49909">
        <ele>166</ele>
        <time>2015-04-07T13:33:49.1Z</time>
      </trkpt>
      <trkpt lat="48.37702" lon="-3.4991">
        <ele>165</ele>
        <time>2015-04-07T13:33:54.1Z</time>
      </trkpt>
      <trkpt lat="48.37706" lon="-3.49911">
        <ele>165</ele>
        <time>2015-04-07T13:33:59.1Z</time>
      </trkpt>
      <trkpt lat="48.37711" lon="-3.49913">
        <ele>164</ele>
        <time>2015-04-07T13:34:04.1Z</time>
      </trkpt>
      <trkpt lat="48.37715" lon="-3.49914">
        <ele>163</ele>
        <time>2015-04-07T13:34:09.1Z</time>
      </trkpt>
      <trkpt lat="48.37721" lon="-3.49916">
        <ele>162</ele>
        <time>2015-04-07T13:34:15.1Z</time>
      </trkpt>
      <trkpt lat="48.37727" lon="-3.49918">
        <ele>161</ele>
        <time>2015-04-07T13:34:21.1Z</time>
      </trkpt>
      <trkpt lat="48.37733" lon="-3.49919">
        <ele>161</ele>
        <time>2015-04-07T13:34:27.1Z</time>
      </trkpt>
      <trkpt lat="48.37738" lon="-3.4992">
        <ele>160</ele>
        <time>2015-04-07T13:34:33.1Z</time>
      </trkpt>
      <trkpt lat="48.37744" lon="-3.4992">
        <ele>160</ele>
        <time>2015-04-07T13:34:38.1Z</time>
      </trkpt>
      <trkpt lat="48.37751" lon="-3.49918">
        <ele>159</ele>
        <time>2015-04-07T13:34:44.1Z</time>
      </trkpt>
      <trkpt lat="48.37756" lon="-3.49915">
        <ele>159</ele>
        <time>2015-04-07T13:34:49.1Z</time>
      </trkpt>
      <trkpt lat="48.37762" lon="-3.4991">
        <ele>158</ele>
        <time>2015-04-07T13:34:55.1Z</time>
      </trkpt>
      <trkpt lat="48.37767" lon="-3.49906">
        <ele>157</ele>
        <time>2015-04-07T13:35:00.1Z</time>
      </trkpt>
      <trkpt lat="48.37772" lon="-3.49901">
        <ele>157</ele>
        <time>2015-04-07T13:35:06.1Z</time>
      </trkpt>
      <trkpt lat="48.37776" lon="-3.49898">
        <ele>156</ele>
        <time>2015-04-07T13:35:11.1Z</time>
      </trkpt>
      <trkpt lat="48.37779" lon="-3.49893">
        <ele>156</ele>
        <time>2015-04-07T13:35:16.1Z</time>
      </trkpt>
      <trkpt lat="48.3778" lon="-3.49891">
        <ele>156</ele>
        <time>2015-04-07T13:35:21.1Z</time>
      </trkpt>
      <trkpt lat="48.3778" lon="-3.49891">
        <ele>155</ele>
        <time>2015-04-07T13:35:26.1Z</time>
      </trkpt>
      <trkpt lat="48.37781" lon="-3.4989">
        <ele>155</ele>
        <time>2015-04-07T13:35:31.1Z</time>
      </trkpt>
      <trkpt lat="48.37783" lon="-3.49887">
        <ele>156</ele>
        <time>2015-04-07T13:35:37.1Z</time>
      </trkpt>
      <trkpt lat="48.37787" lon="-3.4988">
        <ele>156</ele>
        <time>2015-04-07T13:35:43.1Z</time>
      </trkpt>
      <trkpt lat="48.3779" lon="-3.49875">
        <ele>155</ele>
        <time>2015-04-07T13:35:48.1Z</time>
      </trkpt>
      <trkpt lat="48.37794" lon="-3.49873">
        <ele>154</ele>
        <time>2015-04-07T13:35:53.1Z</time>
      </trkpt>
      <trkpt lat="48.37798" lon="-3.49871">
        <ele>154</ele>
        <time>2015-04-07T13:35:58.1Z</time>
      </trkpt>
      <trkpt lat="48.37801" lon="-3.49873">
        <ele>153</ele>
        <time>2015-04-07T13:36:03.1Z</time>
      </trkpt>
      <trkpt lat="48.37803" lon="-3.49874">
        <ele>153</ele>
        <time>2015-04-07T13:36:09.1Z</time>
      </trkpt>
      <trkpt lat="48.37806" lon="-3.49878">
        <ele>152</ele>
        <time>2015-04-07T13:36:14.1Z</time>
      </trkpt>
      <trkpt lat="48.3781" lon="-3.49883">
        <ele>152</ele>
        <time>2015-04-07T13:36:20.1Z</time>
      </trkpt>
      <trkpt lat="48.37814" lon="-3.49888">
        <ele>152</ele>
        <time>2015-04-07T13:36:25.1Z</time>
      </trkpt>
      <trkpt lat="48.37817" lon="-3.49893">
        <ele>152</ele>
        <time>2015-04-07T13:36:30.1Z</time>
      </trkpt>
      <trkpt lat="48.37822" lon="-3.499">
        <ele>152</ele>
        <time>2015-04-07T13:36:36.1Z</time>
      </trkpt>
      <trkpt lat="48.37825" lon="-3.49905">
        <ele>151</ele>
        <time>2015-04-07T13:36:41.1Z</time>
      </trkpt>
      <trkpt lat="48.3783" lon="-3.49911">
        <ele>150</ele>
        <time>2015-04-07T13:36:47.1Z</time>
      </trkpt>
      <trkpt lat="48.3783" lon="-3.49911">
        <ele>150</ele>
        <time>2015-04-07T13:36:54.1Z</time>
      </trkpt>
      <trkpt lat="48.37832" lon="-3.49915">
        <ele>150</ele>
        <time>2015-04-07T13:37:00.1Z</time>
      </trkpt>
      <trkpt lat="48.37836" lon="-3.49921">
        <ele>150</ele>
        <time>2015-04-07T13:37:06.1Z</time>
      </trkpt>
      <trkpt lat="48.3784" lon="-3.49926">
        <ele>149</ele>
        <time>2015-04-07T13:37:11.1Z</time>
      </trkpt>
      <trkpt lat="48.37844" lon="-3.49932">
        <ele>149</ele>
        <time>2015-04-07T13:37:16.1Z</time>
      </trkpt>
      <trkpt lat="48.37847" lon="-3.49938">
        <ele>149</ele>
        <time>2015-04-07T13:37:21.1Z</time>
      </trkpt>
      <trkpt lat="48.37851" lon="-3.49945">
        <ele>149</ele>
        <time>2015-04-07T13:37:27.1Z</time>
      </trkpt>
      <trkpt lat="48.37851" lon="-3.49948">
        <ele>149</ele>
        <time>2015-04-07T13:37:32.1Z</time>
      </trkpt>
      <trkpt lat="48.37853" lon="-3.49957">
        <ele>149</ele>
        <time>2015-04-07T13:37:38.1Z</time>
      </trkpt>
      <trkpt lat="48.37854" lon="-3.49964">
        <ele>148</ele>
        <time>2015-04-07T13:37:43.1Z</time>
      </trkpt>
      <trkpt lat="48.37854" lon="-3.49965">
        <ele>148</ele>
        <time>2015-04-07T13:37:50.1Z</time>
      </trkpt>
      <trkpt lat="48.37854" lon="-3.49965">
        <ele>147</ele>
        <time>2015-04-07T13:37:56.1Z</time>
      </trkpt>
      <trkpt lat="48.37854" lon="-3.49965">
        <ele>147</ele>
        <time>2015-04-07T13:38:01.1Z</time>
      </trkpt>
      <trkpt lat="48.37854" lon="-3.49962">
        <ele>148</ele>
        <time>2015-04-07T13:38:06.1Z</time>
      </trkpt>
      <trkpt lat="48.37852" lon="-3.49954">
        <ele>148</ele>
        <time>2015-04-07T13:38:12.1Z</time>
      </trkpt>
      <trkpt lat="48.37851" lon="-3.49949">
        <ele>148</ele>
        <time>2015-04-07T13:38:18.1Z</time>
      </trkpt>
      <trkpt lat="48.37851" lon="-3.49946">
        <ele>148</ele>
        <time>2015-04-07T13:38:24.1Z</time>
      </trkpt>
      <trkpt lat="48.37851" lon="-3.49944">
        <ele>147</ele>
        <time>2015-04-07T13:38:29.1Z</time>
      </trkpt>
      <trkpt lat="48.37851" lon="-3.49944">
        <ele>146</ele>
        <time>2015-04-07T13:38:35.1Z</time>
      </trkpt>
      <trkpt lat="48.3785" lon="-3.49944">
        <ele>147</ele>
        <time>2015-04-07T13:38:40.1Z</time>
      </trkpt>
      <trkpt lat="48.3785" lon="-3.49944">
        <ele>147</ele>
        <time>2015-04-07T13:38:45.1Z</time>
      </trkpt>
      <trkpt lat="48.3785" lon="-3.49943">
        <ele>148</ele>
        <time>2015-04-07T13:38:51.1Z</time>
      </trkpt>
      <trkpt lat="48.3785" lon="-3.49944">
        <ele>148</ele>
        <time>2015-04-07T13:38:58.1Z</time>
      </trkpt>
      <trkpt lat="48.3785" lon="-3.49944">
        <ele>148</ele>
        <time>2015-04-07T13:39:03.1Z</time>
      </trkpt>
      <trkpt lat="48.37851" lon="-3.49944">
        <ele>148</ele>
        <time>2015-04-07T13:39:09.1Z</time>
      </trkpt>
      <trkpt lat="48.3785" lon="-3.49945">
        <ele>148</ele>
        <time>2015-04-07T13:39:14.1Z</time>
      </trkpt>
      <trkpt lat="48.3785" lon="-3.49945">
        <ele>148</ele>
        <time>2015-04-07T13:39:20.1Z</time>
      </trkpt>
      <trkpt lat="48.3785" lon="-3.49945">
        <ele>148</ele>
        <time>2015-04-07T13:39:26.1Z</time>
      </trkpt>
      <trkpt lat="48.37849" lon="-3.49945">
        <ele>149</ele>
        <time>2015-04-07T13:39:31.1Z</time>
      </trkpt>
      <trkpt lat="48.37849" lon="-3.49945">
        <ele>148</ele>
        <time>2015-04-07T13:39:37.1Z</time>
      </trkpt>
      <trkpt lat="48.3785" lon="-3.49944">
        <ele>148</ele>
        <time>2015-04-07T13:39:43.1Z</time>
      </trkpt>
      <trkpt lat="48.3785" lon="-3.49944">
        <ele>148</ele>
        <time>2015-04-07T13:39:49.1Z</time>
      </trkpt>
      <trkpt lat="48.3785" lon="-3.49943">
        <ele>148</ele>
        <time>2015-04-07T13:39:55.1Z</time>
      </trkpt>
      <trkpt lat="48.3785" lon="-3.49943">
        <ele>148</ele>
        <time>2015-04-07T13:40:02.1Z</time>
      </trkpt>
      <trkpt lat="48.3785" lon="-3.49942">
        <ele>147</ele>
        <time>2015-04-07T13:40:08.1Z</time>
      </trkpt>
      <trkpt lat="48.3785" lon="-3.49943">
        <ele>147</ele>
        <time>2015-04-07T13:40:14.1Z</time>
      </trkpt>
      <trkpt lat="48.3785" lon="-3.49943">
        <ele>147</ele>
        <time>2015-04-07T13:40:19.1Z</time>
      </trkpt>
      <trkpt lat="48.3785" lon="-3.49943">
        <ele>147</ele>
        <time>2015-04-07T13:40:24.1Z</time>
      </trkpt>
      <trkpt lat="48.3785" lon="-3.49943">
        <ele>147</ele>
        <time>2015-04-07T13:40:35.1Z</time>
      </trkpt>
      <trkpt lat="48.3785" lon="-3.49943">
        <ele>148</ele>
        <time>2015-04-07T13:40:43.1Z</time>
      </trkpt>
      <trkpt lat="48.3785" lon="-3.49943">
        <ele>148</ele>
        <time>2015-04-07T13:40:56.1Z</time>
      </trkpt>
      <trkpt lat="48.3785" lon="-3.49944">
        <ele>148</ele>
        <time>2015-04-07T13:41:03.1Z</time>
      </trkpt>
      <trkpt lat="48.3785" lon="-3.49944">
        <ele>148</ele>
        <time>2015-04-07T13:41:09.1Z</time>
      </trkpt>
      <trkpt lat="48.3785" lon="-3.49945">
        <ele>148</ele>
        <time>2015-04-07T13:41:14.1Z</time>
      </trkpt>
      <trkpt lat="48.37851" lon="-3.49945">
        <ele>148</ele>
        <time>2015-04-07T13:41:19.1Z</time>
      </trkpt>
      <trkpt lat="48.37851" lon="-3.49945">
        <ele>148</ele>
        <time>2015-04-07T13:41:24.1Z</time>
      </trkpt>
      <trkpt lat="48.37852" lon="-3.49945">
        <ele>148</ele>
        <time>2015-04-07T13:41:29.1Z</time>
      </trkpt>
      <trkpt lat="48.37853" lon="-3.49945">
        <ele>147</ele>
        <time>2015-04-07T13:41:35.1Z</time>
      </trkpt>
      <trkpt lat="48.37854" lon="-3.49944">
        <ele>147</ele>
        <time>2015-04-07T13:41:40.1Z</time>
      </trkpt>
      <trkpt lat="48.37853" lon="-3.49945">
        <ele>147</ele>
        <time>2015-04-07T13:41:46.1Z</time>
      </trkpt>
      <trkpt lat="48.37852" lon="-3.49946">
        <ele>149</ele>
        <time>2015-04-07T13:41:51.1Z</time>
      </trkpt>
      <trkpt lat="48.37851" lon="-3.49946">
        <ele>149</ele>
        <time>2015-04-07T13:41:57.1Z</time>
      </trkpt>
      <trkpt lat="48.3785" lon="-3.49948">
        <ele>148</ele>
        <time>2015-04-07T13:42:02.1Z</time>
      </trkpt>
      <trkpt lat="48.37849" lon="-3.49948">
        <ele>148</ele>
        <time>2015-04-07T13:42:08.1Z</time>
      </trkpt>
      <trkpt lat="48.3785" lon="-3.49956">
        <ele>149</ele>
        <time>2015-04-07T13:42:14.1Z</time>
      </trkpt>
      <trkpt lat="48.37851" lon="-3.49966">
        <ele>149</ele>
        <time>2015-04-07T13:42:20.1Z</time>
      </trkpt>
      <trkpt lat="48.37852" lon="-3.49973">
        <ele>148</ele>
        <time>2015-04-07T13:42:25.1Z</time>
      </trkpt>
      <trkpt lat="48.37854" lon="-3.49979">
        <ele>148</ele>
        <time>2015-04-07T13:42:30.1Z</time>
      </trkpt>
      <trkpt lat="48.37856" lon="-3.49983">
        <ele>148</ele>
        <time>2015-04-07T13:42:36.1Z</time>
      </trkpt>
      <trkpt lat="48.37858" lon="-3.49991">
        <ele>149</ele>
        <time>2015-04-07T13:42:42.1Z</time>
      </trkpt>
      <trkpt lat="48.3786" lon="-3.49998">
        <ele>149</ele>
        <time>2015-04-07T13:42:47.1Z</time>
      </trkpt>
      <trkpt lat="48.37862" lon="-3.50006">
        <ele>149</ele>
        <time>2015-04-07T13:42:53.1Z</time>
      </trkpt>
      <trkpt lat="48.37864" lon="-3.50014">
        <ele>149</ele>
        <time>2015-04-07T13:42:59.1Z</time>
      </trkpt>
      <trkpt lat="48.37865" lon="-3.50022">
        <ele>149</ele>
        <time>2015-04-07T13:43:04.1Z</time>
      </trkpt>
      <trkpt lat="48.37867" lon="-3.50031">
        <ele>150</ele>
        <time>2015-04-07T13:43:10.1Z</time>
      </trkpt>
      <trkpt lat="48.37868" lon="-3.50041">
        <ele>150</ele>
        <time>2015-04-07T13:43:16.1Z</time>
      </trkpt>
      <trkpt lat="48.3787" lon="-3.50048">
        <ele>151</ele>
        <time>2015-04-07T13:43:21.1Z</time>
      </trkpt>
      <trkpt lat="48.37872" lon="-3.50057">
        <ele>151</ele>
        <time>2015-04-07T13:43:27.1Z</time>
      </trkpt>
      <trkpt lat="48.37873" lon="-3.50064">
        <ele>151</ele>
        <time>2015-04-07T13:43:32.1Z</time>
      </trkpt>
      <trkpt lat="48.37875" lon="-3.50073">
        <ele>152</ele>
        <time>2015-04-07T13:43:38.1Z</time>
      </trkpt>
      <trkpt lat="48.37877" lon="-3.50081">
        <ele>152</ele>
        <time>2015-04-07T13:43:43.1Z</time>
      </trkpt>
      <trkpt lat="48.37878" lon="-3.50091">
        <ele>152</ele>
        <time>2015-04-07T13:43:49.1Z</time>
      </trkpt>
      <trkpt lat="48.3788" lon="-3.50098">
        <ele>152</ele>
        <time>2015-04-07T13:43:54.1Z</time>
      </trkpt>
      <trkpt lat="48.37882" lon="-3.50107">
        <ele>152</ele>
        <time>2015-04-07T13:44:00.1Z</time>
      </trkpt>
      <trkpt lat="48.37883" lon="-3.50115">
        <ele>152</ele>
        <time>2015-04-07T13:44:05.1Z</time>
      </trkpt>
      <trkpt lat="48.37883" lon="-3.50126">
        <ele>153</ele>
        <time>2015-04-07T13:44:11.1Z</time>
      </trkpt>
      <trkpt lat="48.37883" lon="-3.50135">
        <ele>153</ele>
        <time>2015-04-07T13:44:16.1Z</time>
      </trkpt>
      <trkpt lat="48.37885" lon="-3.50146">
        <ele>152</ele>
        <time>2015-04-07T13:44:22.1Z</time>
      </trkpt>
      <trkpt lat="48.37886" lon="-3.50154">
        <ele>151</ele>
        <time>2015-04-07T13:44:27.1Z</time>
      </trkpt>
      <trkpt lat="48.37887" lon="-3.50161">
        <ele>151</ele>
        <time>2015-04-07T13:44:32.1Z</time>
      </trkpt>
      <trkpt lat="48.37888" lon="-3.50169">
        <ele>151</ele>
        <time>2015-04-07T13:44:38.1Z</time>
      </trkpt>
      <trkpt lat="48.37888" lon="-3.50177">
        <ele>150</ele>
        <time>2015-04-07T13:44:43.1Z</time>
      </trkpt>
      <trkpt lat="48.37888" lon="-3.50182">
        <ele>150</ele>
        <time>2015-04-07T13:44:48.1Z</time>
      </trkpt>
      <trkpt lat="48.37889" lon="-3.50188">
        <ele>149</ele>
        <time>2015-04-07T13:44:53.1Z</time>
      </trkpt>
      <trkpt lat="48.3789" lon="-3.50194">
        <ele>149</ele>
        <time>2015-04-07T13:44:59.1Z</time>
      </trkpt>
      <trkpt lat="48.37891" lon="-3.50198">
        <ele>149</ele>
        <time>2015-04-07T13:45:04.1Z</time>
      </trkpt>
      <trkpt lat="48.37891" lon="-3.50202">
        <ele>149</ele>
        <time>2015-04-07T13:45:09.1Z</time>
      </trkpt>
      <trkpt lat="48.37891" lon="-3.50201">
        <ele>149</ele>
        <time>2015-04-07T13:45:14.1Z</time>
      </trkpt>
      <trkpt lat="48.37889" lon="-3.50199">
        <ele>149</ele>
        <time>2015-04-07T13:45:19.1Z</time>
      </trkpt>
      <trkpt lat="48.37889" lon="-3.50196">
        <ele>149</ele>
        <time>2015-04-07T13:45:25.1Z</time>
      </trkpt>
      <trkpt lat="48.37889" lon="-3.50195">
        <ele>149</ele>
        <time>2015-04-07T13:45:30.1Z</time>
      </trkpt>
      <trkpt lat="48.37889" lon="-3.50194">
        <ele>149</ele>
        <time>2015-04-07T13:45:35.1Z</time>
      </trkpt>
      <trkpt lat="48.3789" lon="-3.50194">
        <ele>149</ele>
        <time>2015-04-07T13:45:41.1Z</time>
      </trkpt>
      <trkpt lat="48.37891" lon="-3.50193">
        <ele>149</ele>
        <time>2015-04-07T13:45:46.1Z</time>
      </trkpt>
      <trkpt lat="48.37891" lon="-3.50192">
        <ele>149</ele>
        <time>2015-04-07T13:45:52.1Z</time>
      </trkpt>
      <trkpt lat="48.37891" lon="-3.50192">
        <ele>149</ele>
        <time>2015-04-07T13:45:58.1Z</time>
      </trkpt>
      <trkpt lat="48.3789" lon="-3.50191">
        <ele>149</ele>
        <time>2015-04-07T13:46:04.1Z</time>
      </trkpt>
      <trkpt lat="48.37888" lon="-3.50192">
        <ele>149</ele>
        <time>2015-04-07T13:46:09.1Z</time>
      </trkpt>
      <trkpt lat="48.37888" lon="-3.50192">
        <ele>149</ele>
        <time>2015-04-07T13:46:15.1Z</time>
      </trkpt>
      <trkpt lat="48.37888" lon="-3.50194">
        <ele>149</ele>
        <time>2015-04-07T13:46:21.1Z</time>
      </trkpt>
      <trkpt lat="48.37887" lon="-3.50195">
        <ele>149</ele>
        <time>2015-04-07T13:46:27.1Z</time>
      </trkpt>
      <trkpt lat="48.37887" lon="-3.50195">
        <ele>149</ele>
        <time>2015-04-07T13:46:32.1Z</time>
      </trkpt>
      <trkpt lat="48.37887" lon="-3.50196">
        <ele>149</ele>
        <time>2015-04-07T13:46:38.1Z</time>
      </trkpt>
      <trkpt lat="48.37888" lon="-3.50195">
        <ele>149</ele>
        <time>2015-04-07T13:46:44.1Z</time>
      </trkpt>
      <trkpt lat="48.37889" lon="-3.50196">
        <ele>149</ele>
        <time>2015-04-07T13:46:50.1Z</time>
      </trkpt>
      <trkpt lat="48.37888" lon="-3.50198">
        <ele>149</ele>
        <time>2015-04-07T13:46:55.1Z</time>
      </trkpt>
      <trkpt lat="48.37887" lon="-3.50197">
        <ele>149</ele>
        <time>2015-04-07T13:47:00.1Z</time>
      </trkpt>
      <trkpt lat="48.37886" lon="-3.50197">
        <ele>150</ele>
        <time>2015-04-07T13:47:06.1Z</time>
      </trkpt>
      <trkpt lat="48.37887" lon="-3.50196">
        <ele>150</ele>
        <time>2015-04-07T13:47:11.1Z</time>
      </trkpt>
      <trkpt lat="48.37887" lon="-3.50197">
        <ele>150</ele>
        <time>2015-04-07T13:47:17.1Z</time>
      </trkpt>
      <trkpt lat="48.37886" lon="-3.50197">
        <ele>150</ele>
        <time>2015-04-07T13:47:26.1Z</time>
      </trkpt>
      <trkpt lat="48.37886" lon="-3.50197">
        <ele>150</ele>
        <time>2015-04-07T13:47:31.1Z</time>
      </trkpt>
      <trkpt lat="48.37886" lon="-3.50197">
        <ele>150</ele>
        <time>2015-04-07T13:47:39.1Z</time>
      </trkpt>
      <trkpt lat="48.37886" lon="-3.50197">
        <ele>150</ele>
        <time>2015-04-07T13:47:45.1Z</time>
      </trkpt>
      <trkpt lat="48.37885" lon="-3.50197">
        <ele>150</ele>
        <time>2015-04-07T13:47:50.1Z</time>
      </trkpt>
      <trkpt lat="48.37885" lon="-3.50197">
        <ele>150</ele>
        <time>2015-04-07T13:47:56.1Z</time>
      </trkpt>
      <trkpt lat="48.37885" lon="-3.50197">
        <ele>150</ele>
        <time>2015-04-07T13:48:01.1Z</time>
      </trkpt>
      <trkpt lat="48.37885" lon="-3.50196">
        <ele>150</ele>
        <time>2015-04-07T13:48:06.1Z</time>
      </trkpt>
      <trkpt lat="48.37885" lon="-3.50196">
        <ele>150</ele>
        <time>2015-04-07T13:48:11.1Z</time>
      </trkpt>
      <trkpt lat="48.37883" lon="-3.50196">
        <ele>150</ele>
        <time>2015-04-07T13:48:16.1Z</time>
      </trkpt>
      <trkpt lat="48.37883" lon="-3.50197">
        <ele>150</ele>
        <time>2015-04-07T13:48:22.1Z</time>
      </trkpt>
      <trkpt lat="48.37882" lon="-3.50198">
        <ele>149</ele>
        <time>2015-04-07T13:48:28.1Z</time>
      </trkpt>
      <trkpt lat="48.37882" lon="-3.502">
        <ele>149</ele>
        <time>2015-04-07T13:48:34.1Z</time>
      </trkpt>
      <trkpt lat="48.37882" lon="-3.502">
        <ele>150</ele>
        <time>2015-04-07T13:48:39.1Z</time>
      </trkpt>
      <trkpt lat="48.37882" lon="-3.50201">
        <ele>150</ele>
        <time>2015-04-07T13:48:44.1Z</time>
      </trkpt>
      <trkpt lat="48.37882" lon="-3.50202">
        <ele>150</ele>
        <time>2015-04-07T13:48:51.1Z</time>
      </trkpt>
      <trkpt lat="48.37882" lon="-3.50203">
        <ele>150</ele>
        <time>2015-04-07T13:48:57.1Z</time>
      </trkpt>
      <trkpt lat="48.37884" lon="-3.50208">
        <ele>151</ele>
        <time>2015-04-07T13:49:03.1Z</time>
      </trkpt>
      <trkpt lat="48.37886" lon="-3.50203">
        <ele>150</ele>
        <time>2015-04-07T13:49:09.1Z</time>
      </trkpt>
      <trkpt lat="48.37887" lon="-3.502">
        <ele>149</ele>
        <time>2015-04-07T13:49:14.1Z</time>
      </trkpt>
      <trkpt lat="48.37889" lon="-3.50198">
        <ele>149</ele>
        <time>2015-04-07T13:49:19.1Z</time>
      </trkpt>
      <trkpt lat="48.37891" lon="-3.50197">
        <ele>149</ele>
        <time>2015-04-07T13:49:25.1Z</time>
      </trkpt>
      <trkpt lat="48.37891" lon="-3.50197">
        <ele>149</ele>
        <time>2015-04-07T13:49:30.1Z</time>
      </trkpt>
      <trkpt lat="48.37892" lon="-3.50196">
        <ele>149</ele>
        <time>2015-04-07T13:49:35.1Z</time>
      </trkpt>
      <trkpt lat="48.37893" lon="-3.50196">
        <ele>149</ele>
        <time>2015-04-07T13:49:40.1Z</time>
      </trkpt>
      <trkpt lat="48.37894" lon="-3.50195">
        <ele>150</ele>
        <time>2015-04-07T13:49:46.1Z</time>
      </trkpt>
      <trkpt lat="48.37895" lon="-3.50195">
        <ele>149</ele>
        <time>2015-04-07T13:49:51.1Z</time>
      </trkpt>
      <trkpt lat="48.37896" lon="-3.50194">
        <ele>149</ele>
        <time>2015-04-07T13:49:56.1Z</time>
      </trkpt>
      <trkpt lat="48.37896" lon="-3.50194">
        <ele>149</ele>
        <time>2015-04-07T13:50:02.1Z</time>
      </trkpt>
      <trkpt lat="48.37897" lon="-3.50194">
        <ele>149</ele>
        <time>2015-04-07T13:50:07.1Z</time>
      </trkpt>
      <trkpt lat="48.37897" lon="-3.50194">
        <ele>149</ele>
        <time>2015-04-07T13:50:12.1Z</time>
      </trkpt>
      <trkpt lat="48.37895" lon="-3.50192">
        <ele>150</ele>
        <time>2015-04-07T13:50:18.1Z</time>
      </trkpt>
      <trkpt lat="48.37894" lon="-3.50191">
        <ele>149</ele>
        <time>2015-04-07T13:50:23.1Z</time>
      </trkpt>
      <trkpt lat="48.37893" lon="-3.50183">
        <ele>150</ele>
        <time>2015-04-07T13:50:29.1Z</time>
      </trkpt>
      <trkpt lat="48.3789" lon="-3.50175">
        <ele>150</ele>
        <time>2015-04-07T13:50:35.1Z</time>
      </trkpt>
      <trkpt lat="48.37889" lon="-3.50166">
        <ele>150</ele>
        <time>2015-04-07T13:50:41.1Z</time>
      </trkpt>
      <trkpt lat="48.37888" lon="-3.5016">
        <ele>150</ele>
        <time>2015-04-07T13:50:46.1Z</time>
      </trkpt>
      <trkpt lat="48.37887" lon="-3.50152">
        <ele>151</ele>
        <time>2015-04-07T13:50:52.1Z</time>
      </trkpt>
      <trkpt lat="48.37885" lon="-3.50145">
        <ele>151</ele>
        <time>2015-04-07T13:50:57.1Z</time>
      </trkpt>
      <trkpt lat="48.37884" lon="-3.50138">
        <ele>152</ele>
        <time>2015-04-07T13:51:02.1Z</time>
      </trkpt>
      <trkpt lat="48.37883" lon="-3.5013">
        <ele>152</ele>
        <time>2015-04-07T13:51:08.1Z</time>
      </trkpt>
      <trkpt lat="48.37882" lon="-3.50122">
        <ele>152</ele>
        <time>2015-04-07T13:51:13.1Z</time>
      </trkpt>
      <trkpt lat="48.3788" lon="-3.50113">
        <ele>151</ele>
        <time>2015-04-07T13:51:19.1Z</time>
      </trkpt>
      <trkpt lat="48.37879" lon="-3.50106">
        <ele>151</ele>
        <time>2015-04-07T13:51:24.1Z</time>
      </trkpt>
      <trkpt lat="48.37878" lon="-3.50097">
        <ele>151</ele>
        <time>2015-04-07T13:51:30.1Z</time>
      </trkpt>
      <trkpt lat="48.37877" lon="-3.50088">
        <ele>152</ele>
        <time>2015-04-07T13:51:35.1Z</time>
      </trkpt>
      <trkpt lat="48.37876" lon="-3.50078">
        <ele>152</ele>
        <time>2015-04-07T13:51:41.1Z</time>
      </trkpt>
      <trkpt lat="48.37875" lon="-3.5007">
        <ele>152</ele>
        <time>2015-04-07T13:51:46.1Z</time>
      </trkpt>
      <trkpt lat="48.37873" lon="-3.50061">
        <ele>152</ele>
        <time>2015-04-07T13:51:52.1Z</time>
      </trkpt>
      <trkpt lat="48.37871" lon="-3.50051">
        <ele>152</ele>
        <time>2015-04-07T13:51:58.1Z</time>
      </trkpt>
      <trkpt lat="48.3787" lon="-3.50043">
        <ele>151</ele>
        <time>2015-04-07T13:52:03.1Z</time>
      </trkpt>
      <trkpt lat="48.37869" lon="-3.50034">
        <ele>151</ele>
        <time>2015-04-07T13:52:09.1Z</time>
      </trkpt>
      <trkpt lat="48.37868" lon="-3.50024">
        <ele>150</ele>
        <time>2015-04-07T13:52:15.1Z</time>
      </trkpt>
      <trkpt lat="48.37867" lon="-3.50016">
        <ele>150</ele>
        <time>2015-04-07T13:52:20.1Z</time>
      </trkpt>
      <trkpt lat="48.37865" lon="-3.50009">
        <ele>149</ele>
        <time>2015-04-07T13:52:25.1Z</time>
      </trkpt>
      <trkpt lat="48.37863" lon="-3.5">
        <ele>149</ele>
        <time>2015-04-07T13:52:31.1Z</time>
      </trkpt>
      <trkpt lat="48.37861" lon="-3.49992">
        <ele>149</ele>
        <time>2015-04-07T13:52:36.1Z</time>
      </trkpt>
      <trkpt lat="48.37859" lon="-3.49984">
        <ele>149</ele>
        <time>2015-04-07T13:52:42.1Z</time>
      </trkpt>
      <trkpt lat="48.37856" lon="-3.49976">
        <ele>150</ele>
        <time>2015-04-07T13:52:47.1Z</time>
      </trkpt>
      <trkpt lat="48.37855" lon="-3.49967">
        <ele>150</ele>
        <time>2015-04-07T13:52:53.1Z</time>
      </trkpt>
      <trkpt lat="48.37853" lon="-3.49957">
        <ele>150</ele>
        <time>2015-04-07T13:52:59.1Z</time>
      </trkpt>
      <trkpt lat="48.3785" lon="-3.49948">
        <ele>150</ele>
        <time>2015-04-07T13:53:05.1Z</time>
      </trkpt>
      <trkpt lat="48.3785" lon="-3.49948">
        <ele>148</ele>
        <time>2015-04-07T13:53:10.1Z</time>
      </trkpt>
      <trkpt lat="48.3785" lon="-3.49947">
        <ele>148</ele>
        <time>2015-04-07T13:53:15.1Z</time>
      </trkpt>
      <trkpt lat="48.3785" lon="-3.49946">
        <ele>148</ele>
        <time>2015-04-07T13:53:21.1Z</time>
      </trkpt>
      <trkpt lat="48.3785" lon="-3.49945">
        <ele>148</ele>
        <time>2015-04-07T13:53:28.1Z</time>
      </trkpt>
      <trkpt lat="48.37849" lon="-3.49945">
        <ele>148</ele>
        <time>2015-04-07T13:53:33.1Z</time>
      </trkpt>
      <trkpt lat="48.37849" lon="-3.49945">
        <ele>148</ele>
        <time>2015-04-07T13:53:39.1Z</time>
      </trkpt>
      <trkpt lat="48.37849" lon="-3.49945">
        <ele>148</ele>
        <time>2015-04-07T13:53:44.1Z</time>
      </trkpt>
      <trkpt lat="48.37849" lon="-3.49945">
        <ele>148</ele>
        <time>2015-04-07T13:53:51.1Z</time>
      </trkpt>
      <trkpt lat="48.37848" lon="-3.4994">
        <ele>149</ele>
        <time>2015-04-07T13:53:56.1Z</time>
      </trkpt>
      <trkpt lat="48.37844" lon="-3.49933">
        <ele>149</ele>
        <time>2015-04-07T13:54:01.1Z</time>
      </trkpt>
      <trkpt lat="48.37841" lon="-3.49924">
        <ele>149</ele>
        <time>2015-04-07T13:54:07.1Z</time>
      </trkpt>
      <trkpt lat="48.37838" lon="-3.49918">
        <ele>148</ele>
        <time>2015-04-07T13:54:12.1Z</time>
      </trkpt>
      <trkpt lat="48.37836" lon="-3.4991">
        <ele>149</ele>
        <time>2015-04-07T13:54:18.1Z</time>
      </trkpt>
      <trkpt lat="48.37832" lon="-3.49904">
        <ele>150</ele>
        <time>2015-04-07T13:54:23.1Z</time>
      </trkpt>
      <trkpt lat="48.37828" lon="-3.49898">
        <ele>150</ele>
        <time>2015-04-07T13:54:29.1Z</time>
      </trkpt>
      <trkpt lat="48.37824" lon="-3.49893">
        <ele>151</ele>
        <time>2015-04-07T13:54:34.1Z</time>
      </trkpt>
      <trkpt lat="48.37822" lon="-3.49892">
        <ele>152</ele>
        <time>2015-04-07T13:54:41.1Z</time>
      </trkpt>
      <trkpt lat="48.37822" lon="-3.49892">
        <ele>151</ele>
        <time>2015-04-07T13:54:47.1Z</time>
      </trkpt>
      <trkpt lat="48.37819" lon="-3.49888">
        <ele>152</ele>
        <time>2015-04-07T13:54:52.1Z</time>
      </trkpt>
      <trkpt lat="48.37814" lon="-3.49883">
        <ele>152</ele>
        <time>2015-04-07T13:54:58.1Z</time>
      </trkpt>
      <trkpt lat="48.37811" lon="-3.49879">
        <ele>152</ele>
        <time>2015-04-07T13:55:03.1Z</time>
      </trkpt>
      <trkpt lat="48.37808" lon="-3.49873">
        <ele>153</ele>
        <time>2015-04-07T13:55:09.1Z</time>
      </trkpt>
      <trkpt lat="48.37804" lon="-3.49869">
        <ele>154</ele>
        <time>2015-04-07T13:55:14.1Z</time>
      </trkpt>
      <trkpt lat="48.378" lon="-3.49863">
        <ele>154</ele>
        <time>2015-04-07T13:55:20.1Z</time>
      </trkpt>
      <trkpt lat="48.37797" lon="-3.49856">
        <ele>155</ele>
        <time>2015-04-07T13:55:26.1Z</time>
      </trkpt>
      <trkpt lat="48.37798" lon="-3.49849">
        <ele>155</ele>
        <time>2015-04-07T13:55:31.1Z</time>
      </trkpt>
      <trkpt lat="48.37798" lon="-3.49841">
        <ele>154</ele>
        <time>2015-04-07T13:55:37.1Z</time>
      </trkpt>
      <trkpt lat="48.37799" lon="-3.49833">
        <ele>154</ele>
        <time>2015-04-07T13:55:42.1Z</time>
      </trkpt>
      <trkpt lat="48.37799" lon="-3.49825">
        <ele>154</ele>
        <time>2015-04-07T13:55:48.1Z</time>
      </trkpt>
      <trkpt lat="48.37799" lon="-3.49817">
        <ele>154</ele>
        <time>2015-04-07T13:55:53.1Z</time>
      </trkpt>
      <trkpt lat="48.37799" lon="-3.49807">
        <ele>154</ele>
        <time>2015-04-07T13:55:59.1Z</time>
      </trkpt>
      <trkpt lat="48.37799" lon="-3.49797">
        <ele>153</ele>
        <time>2015-04-07T13:56:05.1Z</time>
      </trkpt>
      <trkpt lat="48.37798" lon="-3.49787">
        <ele>153</ele>
        <time>2015-04-07T13:56:11.1Z</time>
      </trkpt>
      <trkpt lat="48.37797" lon="-3.49779">
        <ele>152</ele>
        <time>2015-04-07T13:56:16.1Z</time>
      </trkpt>
      <trkpt lat="48.37796" lon="-3.4977">
        <ele>152</ele>
        <time>2015-04-07T13:56:21.1Z</time>
      </trkpt>
      <trkpt lat="48.37794" lon="-3.49761">
        <ele>151</ele>
        <time>2015-04-07T13:56:27.1Z</time>
      </trkpt>
      <trkpt lat="48.37793" lon="-3.49753">
        <ele>151</ele>
        <time>2015-04-07T13:56:32.1Z</time>
      </trkpt>
      <trkpt lat="48.37791" lon="-3.49743">
        <ele>151</ele>
        <time>2015-04-07T13:56:38.1Z</time>
      </trkpt>
      <trkpt lat="48.3779" lon="-3.49735">
        <ele>150</ele>
        <time>2015-04-07T13:56:43.1Z</time>
      </trkpt>
      <trkpt lat="48.37788" lon="-3.49728">
        <ele>149</ele>
        <time>2015-04-07T13:56:48.1Z</time>
      </trkpt>
      <trkpt lat="48.37787" lon="-3.49719">
        <ele>149</ele>
        <time>2015-04-07T13:56:54.1Z</time>
      </trkpt>
      <trkpt lat="48.37784" lon="-3.4971">
        <ele>148</ele>
        <time>2015-04-07T13:57:00.1Z</time>
      </trkpt>
      <trkpt lat="48.37782" lon="-3.49701">
        <ele>147</ele>
        <time>2015-04-07T13:57:06.1Z</time>
      </trkpt>
      <trkpt lat="48.3778" lon="-3.49694">
        <ele>146</ele>
        <time>2015-04-07T13:57:11.1Z</time>
      </trkpt>
      <trkpt lat="48.37777" lon="-3.49686">
        <ele>146</ele>
        <time>2015-04-07T13:57:16.1Z</time>
      </trkpt>
      <trkpt lat="48.37773" lon="-3.49678">
        <ele>145</ele>
        <time>2015-04-07T13:57:22.1Z</time>
      </trkpt>
      <trkpt lat="48.37771" lon="-3.49671">
        <ele>144</ele>
        <time>2015-04-07T13:57:28.1Z</time>
      </trkpt>
      <trkpt lat="48.37768" lon="-3.49663">
        <ele>144</ele>
        <time>2015-04-07T13:57:34.1Z</time>
      </trkpt>
      <trkpt lat="48.37767" lon="-3.49654">
        <ele>143</ele>
        <time>2015-04-07T13:57:39.1Z</time>
      </trkpt>
      <trkpt lat="48.37765" lon="-3.49643">
        <ele>142</ele>
        <time>2015-04-07T13:57:45.1Z</time>
      </trkpt>
      <trkpt lat="48.37763" lon="-3.49634">
        <ele>141</ele>
        <time>2015-04-07T13:57:50.1Z</time>
      </trkpt>
      <trkpt lat="48.37761" lon="-3.49622">
        <ele>141</ele>
        <time>2015-04-07T13:57:56.1Z</time>
      </trkpt>
      <trkpt lat="48.37759" lon="-3.49613">
        <ele>140</ele>
        <time>2015-04-07T13:58:01.1Z</time>
      </trkpt>
      <trkpt lat="48.37756" lon="-3.49608">
        <ele>140</ele>
        <time>2015-04-07T13:58:07.1Z</time>
      </trkpt>
      <trkpt lat="48.37755" lon="-3.49605">
        <ele>139</ele>
        <time>2015-04-07T13:58:13.1Z</time>
      </trkpt>
      <trkpt lat="48.37752" lon="-3.49598">
        <ele>139</ele>
        <time>2015-04-07T13:58:18.1Z</time>
      </trkpt>
      <trkpt lat="48.3775" lon="-3.49591">
        <ele>139</ele>
        <time>2015-04-07T13:58:23.1Z</time>
      </trkpt>
      <trkpt lat="48.37748" lon="-3.49584">
        <ele>139</ele>
        <time>2015-04-07T13:58:28.1Z</time>
      </trkpt>
      <trkpt lat="48.37748" lon="-3.49578">
        <ele>139</ele>
        <time>2015-04-07T13:58:33.1Z</time>
      </trkpt>
      <trkpt lat="48.37748" lon="-3.4957">
        <ele>139</ele>
        <time>2015-04-07T13:58:39.1Z</time>
      </trkpt>
      <trkpt lat="48.37748" lon="-3.49565">
        <ele>139</ele>
        <time>2015-04-07T13:58:44.1Z</time>
      </trkpt>
      <trkpt lat="48.37748" lon="-3.49559">
        <ele>139</ele>
        <time>2015-04-07T13:58:49.1Z</time>
      </trkpt>
      <trkpt lat="48.37749" lon="-3.49554">
        <ele>139</ele>
        <time>2015-04-07T13:58:54.1Z</time>
      </trkpt>
      <trkpt lat="48.37751" lon="-3.49552">
        <ele>139</ele>
        <time>2015-04-07T13:59:00.1Z</time>
      </trkpt>
      <trkpt lat="48.37754" lon="-3.49549">
        <ele>140</ele>
        <time>2015-04-07T13:59:06.1Z</time>
      </trkpt>
      <trkpt lat="48.37756" lon="-3.49547">
        <ele>140</ele>
        <time>2015-04-07T13:59:11.1Z</time>
      </trkpt>
      <trkpt lat="48.37758" lon="-3.49545">
        <ele>141</ele>
        <time>2015-04-07T13:59:16.1Z</time>
      </trkpt>
      <trkpt lat="48.37762" lon="-3.49543">
        <ele>143</ele>
        <time>2015-04-07T13:59:22.1Z</time>
      </trkpt>
      <trkpt lat="48.37765" lon="-3.49544">
        <ele>143</ele>
        <time>2015-04-07T13:59:27.1Z</time>
      </trkpt>
      <trkpt lat="48.37767" lon="-3.49545">
        <ele>144</ele>
        <time>2015-04-07T13:59:33.1Z</time>
      </trkpt>
      <trkpt lat="48.3777" lon="-3.49545">
        <ele>145</ele>
        <time>2015-04-07T13:59:38.1Z</time>
      </trkpt>
      <trkpt lat="48.37773" lon="-3.49543">
        <ele>145</ele>
        <time>2015-04-07T13:59:44.1Z</time>
      </trkpt>
      <trkpt lat="48.37775" lon="-3.4954">
        <ele>146</ele>
        <time>2015-04-07T13:59:49.1Z</time>
      </trkpt>
      <trkpt lat="48.37778" lon="-3.49538">
        <ele>147</ele>
        <time>2015-04-07T13:59:54.1Z</time>
      </trkpt>
      <trkpt lat="48.37779" lon="-3.49537">
        <ele>147</ele>
        <time>2015-04-07T14:00:00.1Z</time>
      </trkpt>
      <trkpt lat="48.37781" lon="-3.49537">
        <ele>147</ele>
        <time>2015-04-07T14:00:05.1Z</time>
      </trkpt>
      <trkpt lat="48.37783" lon="-3.49537">
        <ele>147</ele>
        <time>2015-04-07T14:00:10.1Z</time>
      </trkpt>
      <trkpt lat="48.37785" lon="-3.49535">
        <ele>147</ele>
        <time>2015-04-07T14:00:16.1Z</time>
      </trkpt>
      <trkpt lat="48.37788" lon="-3.49532">
        <ele>148</ele>
        <time>2015-04-07T14:00:21.1Z</time>
      </trkpt>
      <trkpt lat="48.37791" lon="-3.49526">
        <ele>149</ele>
        <time>2015-04-07T14:00:27.1Z</time>
      </trkpt>
      <trkpt lat="48.37794" lon="-3.49522">
        <ele>149</ele>
        <time>2015-04-07T14:00:32.1Z</time>
      </trkpt>
      <trkpt lat="48.37796" lon="-3.49516">
        <ele>150</ele>
        <time>2015-04-07T14:00:38.1Z</time>
      </trkpt>
      <trkpt lat="48.37798" lon="-3.4951">
        <ele>151</ele>
        <time>2015-04-07T14:00:43.1Z</time>
      </trkpt>
      <trkpt lat="48.37798" lon="-3.49503">
        <ele>151</ele>
        <time>2015-04-07T14:00:48.1Z</time>
      </trkpt>
      <trkpt lat="48.37799" lon="-3.49496">
        <ele>152</ele>
        <time>2015-04-07T14:00:54.1Z</time>
      </trkpt>
      <trkpt lat="48.378" lon="-3.49489">
        <ele>152</ele>
        <time>2015-04-07T14:00:59.1Z</time>
      </trkpt>
      <trkpt lat="48.37801" lon="-3.49482">
        <ele>152</ele>
        <time>2015-04-07T14:01:04.1Z</time>
      </trkpt>
      <trkpt lat="48.37803" lon="-3.49475">
        <ele>153</ele>
        <time>2015-04-07T14:01:10.1Z</time>
      </trkpt>
      <trkpt lat="48.37805" lon="-3.49469">
        <ele>154</ele>
        <time>2015-04-07T14:01:16.1Z</time>
      </trkpt>
      <trkpt lat="48.37809" lon="-3.49465">
        <ele>154</ele>
        <time>2015-04-07T14:01:21.1Z</time>
      </trkpt>
      <trkpt lat="48.37812" lon="-3.49461">
        <ele>155</ele>
        <time>2015-04-07T14:01:26.1Z</time>
      </trkpt>
      <trkpt lat="48.37815" lon="-3.49459">
        <ele>155</ele>
        <time>2015-04-07T14:01:32.1Z</time>
      </trkpt>
      <trkpt lat="48.37817" lon="-3.49459">
        <ele>155</ele>
        <time>2015-04-07T14:01:38.1Z</time>
      </trkpt>
      <trkpt lat="48.37817" lon="-3.49457">
        <ele>155</ele>
        <time>2015-04-07T14:01:43.1Z</time>
      </trkpt>
      <trkpt lat="48.37817" lon="-3.49457">
        <ele>155</ele>
        <time>2015-04-07T14:01:49.1Z</time>
      </trkpt>
      <trkpt lat="48.37816" lon="-3.49456">
        <ele>155</ele>
        <time>2015-04-07T14:01:54.1Z</time>
      </trkpt>
      <trkpt lat="48.37815" lon="-3.49456">
        <ele>155</ele>
        <time>2015-04-07T14:02:00.1Z</time>
      </trkpt>
      <trkpt lat="48.37815" lon="-3.49456">
        <ele>155</ele>
        <time>2015-04-07T14:02:06.1Z</time>
      </trkpt>
      <trkpt lat="48.37814" lon="-3.49455">
        <ele>155</ele>
        <time>2015-04-07T14:02:12.1Z</time>
      </trkpt>
      <trkpt lat="48.37814" lon="-3.49455">
        <ele>155</ele>
        <time>2015-04-07T14:02:17.1Z</time>
      </trkpt>
      <trkpt lat="48.37813" lon="-3.49454">
        <ele>155</ele>
        <time>2015-04-07T14:02:23.1Z</time>
      </trkpt>
      <trkpt lat="48.37812" lon="-3.49454">
        <ele>155</ele>
        <time>2015-04-07T14:02:29.1Z</time>
      </trkpt>
      <trkpt lat="48.37812" lon="-3.49455">
        <ele>154</ele>
        <time>2015-04-07T14:02:34.1Z</time>
      </trkpt>
      <trkpt lat="48.37812" lon="-3.49455">
        <ele>155</ele>
        <time>2015-04-07T14:02:39.1Z</time>
      </trkpt>
      <trkpt lat="48.37812" lon="-3.49456">
        <ele>155</ele>
        <time>2015-04-07T14:02:44.1Z</time>
      </trkpt>
      <trkpt lat="48.37812" lon="-3.49456">
        <ele>155</ele>
        <time>2015-04-07T14:02:51.1Z</time>
      </trkpt>
      <trkpt lat="48.37813" lon="-3.49459">
        <ele>155</ele>
        <time>2015-04-07T14:02:57.1Z</time>
      </trkpt>
      <trkpt lat="48.37813" lon="-3.4946">
        <ele>155</ele>
        <time>2015-04-07T14:03:03.1Z</time>
      </trkpt>
      <trkpt lat="48.37812" lon="-3.49459">
        <ele>155</ele>
        <time>2015-04-07T14:03:09.1Z</time>
      </trkpt>
      <trkpt lat="48.37817" lon="-3.49457">
        <ele>155</ele>
        <time>2015-04-07T14:03:14.1Z</time>
      </trkpt>
      <trkpt lat="48.37822" lon="-3.49456">
        <ele>156</ele>
        <time>2015-04-07T14:03:20.1Z</time>
      </trkpt>
      <trkpt lat="48.37826" lon="-3.49455">
        <ele>156</ele>
        <time>2015-04-07T14:03:25.1Z</time>
      </trkpt>
      <trkpt lat="48.3783" lon="-3.49455">
        <ele>156</ele>
        <time>2015-04-07T14:03:30.1Z</time>
      </trkpt>
      <trkpt lat="48.37836" lon="-3.49454">
        <ele>156</ele>
        <time>2015-04-07T14:03:36.1Z</time>
      </trkpt>
      <trkpt lat="48.37841" lon="-3.49453">
        <ele>157</ele>
        <time>2015-04-07T14:03:41.1Z</time>
      </trkpt>
      <trkpt lat="48.37846" lon="-3.49453">
        <ele>157</ele>
        <time>2015-04-07T14:03:47.1Z</time>
      </trkpt>
      <trkpt lat="48.37851" lon="-3.49453">
        <ele>157</ele>
        <time>2015-04-07T14:03:52.1Z</time>
      </trkpt>
      <trkpt lat="48.37857" lon="-3.49452">
        <ele>156</ele>
        <time>2015-04-07T14:03:58.1Z</time>
      </trkpt>
      <trkpt lat="48.37862" lon="-3.49452">
        <ele>156</ele>
        <time>2015-04-07T14:04:03.1Z</time>
      </trkpt>
      <trkpt lat="48.37868" lon="-3.49451">
        <ele>157</ele>
        <time>2015-04-07T14:04:08.1Z</time>
      </trkpt>
      <trkpt lat="48.37874" lon="-3.4945">
        <ele>156</ele>
        <time>2015-04-07T14:04:14.1Z</time>
      </trkpt>
      <trkpt lat="48.3788" lon="-3.4945">
        <ele>157</ele>
        <time>2015-04-07T14:04:19.1Z</time>
      </trkpt>
      <trkpt lat="48.37886" lon="-3.49448">
        <ele>157</ele>
        <time>2015-04-07T14:04:25.1Z</time>
      </trkpt>
      <trkpt lat="48.37891" lon="-3.49447">
        <ele>158</ele>
        <time>2015-04-07T14:04:30.1Z</time>
      </trkpt>
      <trkpt lat="48.37897" lon="-3.49446">
        <ele>158</ele>
        <time>2015-04-07T14:04:36.1Z</time>
      </trkpt>
      <trkpt lat="48.37902" lon="-3.49443">
        <ele>158</ele>
        <time>2015-04-07T14:04:41.1Z</time>
      </trkpt>
      <trkpt lat="48.37909" lon="-3.49439">
        <ele>158</ele>
        <time>2015-04-07T14:04:47.1Z</time>
      </trkpt>
      <trkpt lat="48.37913" lon="-3.49434">
        <ele>158</ele>
        <time>2015-04-07T14:04:52.1Z</time>
      </trkpt>
      <trkpt lat="48.37918" lon="-3.49427">
        <ele>158</ele>
        <time>2015-04-07T14:04:57.1Z</time>
      </trkpt>
      <trkpt lat="48.37921" lon="-3.49421">
        <ele>158</ele>
        <time>2015-04-07T14:05:02.1Z</time>
      </trkpt>
      <trkpt lat="48.37924" lon="-3.49412">
        <ele>158</ele>
        <time>2015-04-07T14:05:08.1Z</time>
      </trkpt>
      <trkpt lat="48.37926" lon="-3.49403">
        <ele>159</ele>
        <time>2015-04-07T14:05:14.1Z</time>
      </trkpt>
      <trkpt lat="48.37928" lon="-3.49394">
        <ele>159</ele>
        <time>2015-04-07T14:05:20.1Z</time>
      </trkpt>
      <trkpt lat="48.37929" lon="-3.49387">
        <ele>159</ele>
        <time>2015-04-07T14:05:25.1Z</time>
      </trkpt>
      <trkpt lat="48.37931" lon="-3.49378">
        <ele>160</ele>
        <time>2015-04-07T14:05:31.1Z</time>
      </trkpt>
      <trkpt lat="48.37932" lon="-3.49371">
        <ele>160</ele>
        <time>2015-04-07T14:05:36.1Z</time>
      </trkpt>
      <trkpt lat="48.37933" lon="-3.49364">
        <ele>159</ele>
        <time>2015-04-07T14:05:41.1Z</time>
      </trkpt>
      <trkpt lat="48.37934" lon="-3.49356">
        <ele>159</ele>
        <time>2015-04-07T14:05:47.1Z</time>
      </trkpt>
      <trkpt lat="48.37936" lon="-3.49349">
        <ele>159</ele>
        <time>2015-04-07T14:05:52.1Z</time>
      </trkpt>
      <trkpt lat="48.37938" lon="-3.4934">
        <ele>159</ele>
        <time>2015-04-07T14:05:58.1Z</time>
      </trkpt>
      <trkpt lat="48.3794" lon="-3.49332">
        <ele>159</ele>
        <time>2015-04-07T14:06:04.1Z</time>
      </trkpt>
      <trkpt lat="48.37941" lon="-3.49325">
        <ele>159</ele>
        <time>2015-04-07T14:06:09.1Z</time>
      </trkpt>
      <trkpt lat="48.37943" lon="-3.49317">
        <ele>159</ele>
        <time>2015-04-07T14:06:15.1Z</time>
      </trkpt>
      <trkpt lat="48.37944" lon="-3.49311">
        <ele>159</ele>
        <time>2015-04-07T14:06:20.1Z</time>
      </trkpt>
      <trkpt lat="48.37946" lon="-3.49303">
        <ele>159</ele>
        <time>2015-04-07T14:06:26.1Z</time>
      </trkpt>
      <trkpt lat="48.37946" lon="-3.49297">
        <ele>159</ele>
        <time>2015-04-07T14:06:31.1Z</time>
      </trkpt>
      <trkpt lat="48.37944" lon="-3.49291">
        <ele>158</ele>
        <time>2015-04-07T14:06:37.1Z</time>
      </trkpt>
      <trkpt lat="48.37944" lon="-3.49291">
        <ele>157</ele>
        <time>2015-04-07T14:06:43.1Z</time>
      </trkpt>
      <trkpt lat="48.37944" lon="-3.49292">
        <ele>157</ele>
        <time>2015-04-07T14:06:49.1Z</time>
      </trkpt>
      <trkpt lat="48.37944" lon="-3.49292">
        <ele>159</ele>
        <time>2015-04-07T14:06:54.1Z</time>
      </trkpt>
      <trkpt lat="48.37944" lon="-3.49293">
        <ele>158</ele>
        <time>2015-04-07T14:07:00.1Z</time>
      </trkpt>
      <trkpt lat="48.37943" lon="-3.49293">
        <ele>158</ele>
        <time>2015-04-07T14:07:05.1Z</time>
      </trkpt>
      <trkpt lat="48.37942" lon="-3.49293">
        <ele>158</ele>
        <time>2015-04-07T14:07:11.1Z</time>
      </trkpt>
      <trkpt lat="48.37942" lon="-3.49293">
        <ele>157</ele>
        <time>2015-04-07T14:07:25.1Z</time>
      </trkpt>
      <trkpt lat="48.37942" lon="-3.49293">
        <ele>158</ele>
        <time>2015-04-07T14:07:31.1Z</time>
      </trkpt>
      <trkpt lat="48.37943" lon="-3.49293">
        <ele>158</ele>
        <time>2015-04-07T14:07:36.1Z</time>
      </trkpt>
      <trkpt lat="48.37942" lon="-3.49293">
        <ele>158</ele>
        <time>2015-04-07T14:07:46.1Z</time>
      </trkpt>
      <trkpt lat="48.37941" lon="-3.49292">
        <ele>157</ele>
        <time>2015-04-07T14:07:53.1Z</time>
      </trkpt>
      <trkpt lat="48.37939" lon="-3.49291">
        <ele>157</ele>
        <time>2015-04-07T14:07:59.1Z</time>
      </trkpt>
      <trkpt lat="48.37941" lon="-3.49291">
        <ele>156</ele>
        <time>2015-04-07T14:08:05.1Z</time>
      </trkpt>
      <trkpt lat="48.37944" lon="-3.49287">
        <ele>158</ele>
        <time>2015-04-07T14:08:10.1Z</time>
      </trkpt>
      <trkpt lat="48.37945" lon="-3.4928">
        <ele>158</ele>
        <time>2015-04-07T14:08:15.1Z</time>
      </trkpt>
      <trkpt lat="48.37947" lon="-3.49272">
        <ele>158</ele>
        <time>2015-04-07T14:08:21.1Z</time>
      </trkpt>
      <trkpt lat="48.37949" lon="-3.49266">
        <ele>158</ele>
        <time>2015-04-07T14:08:26.1Z</time>
      </trkpt>
      <trkpt lat="48.37951" lon="-3.49259">
        <ele>158</ele>
        <time>2015-04-07T14:08:31.1Z</time>
      </trkpt>
      <trkpt lat="48.37952" lon="-3.4925">
        <ele>157</ele>
        <time>2015-04-07T14:08:37.1Z</time>
      </trkpt>
      <trkpt lat="48.37954" lon="-3.49241">
        <ele>156</ele>
        <time>2015-04-07T14:08:43.1Z</time>
      </trkpt>
      <trkpt lat="48.37956" lon="-3.49232">
        <ele>156</ele>
        <time>2015-04-07T14:08:49.1Z</time>
      </trkpt>
      <trkpt lat="48.3796" lon="-3.49223">
        <ele>156</ele>
        <time>2015-04-07T14:08:55.1Z</time>
      </trkpt>
      <trkpt lat="48.37962" lon="-3.49215">
        <ele>157</ele>
        <time>2015-04-07T14:09:00.1Z</time>
      </trkpt>
      <trkpt lat="48.37965" lon="-3.49206">
        <ele>157</ele>
        <time>2015-04-07T14:09:06.1Z</time>
      </trkpt>
      <trkpt lat="48.37969" lon="-3.49197">
        <ele>156</ele>
        <time>2015-04-07T14:09:12.1Z</time>
      </trkpt>
      <trkpt lat="48.37974" lon="-3.49189">
        <ele>156</ele>
        <time>2015-04-07T14:09:18.1Z</time>
      </trkpt>
      <trkpt lat="48.37978" lon="-3.49183">
        <ele>155</ele>
        <time>2015-04-07T14:09:23.1Z</time>
      </trkpt>
      <trkpt lat="48.37982" lon="-3.49177">
        <ele>155</ele>
        <time>2015-04-07T14:09:28.1Z</time>
      </trkpt>
      <trkpt lat="48.37986" lon="-3.4917">
        <ele>154</ele>
        <time>2015-04-07T14:09:34.1Z</time>
      </trkpt>
      <trkpt lat="48.37989" lon="-3.49165">
        <ele>153</ele>
        <time>2015-04-07T14:09:39.1Z</time>
      </trkpt>
      <trkpt lat="48.37993" lon="-3.49158">
        <ele>153</ele>
        <time>2015-04-07T14:09:45.1Z</time>
      </trkpt>
      <trkpt lat="48.37997" lon="-3.49151">
        <ele>153</ele>
        <time>2015-04-07T14:09:51.1Z</time>
      </trkpt>
      <trkpt lat="48.38" lon="-3.49145">
        <ele>153</ele>
        <time>2015-04-07T14:09:56.1Z</time>
      </trkpt>
      <trkpt lat="48.38004" lon="-3.49138">
        <ele>152</ele>
        <time>2015-04-07T14:10:02.1Z</time>
      </trkpt>
      <trkpt lat="48.38008" lon="-3.49131">
        <ele>152</ele>
        <time>2015-04-07T14:10:07.1Z</time>
      </trkpt>
      <trkpt lat="48.38012" lon="-3.49123">
        <ele>152</ele>
        <time>2015-04-07T14:10:13.1Z</time>
      </trkpt>
      <trkpt lat="48.38015" lon="-3.49115">
        <ele>152</ele>
        <time>2015-04-07T14:10:19.1Z</time>
      </trkpt>
      <trkpt lat="48.38019" lon="-3.49108">
        <ele>152</ele>
        <time>2015-04-07T14:10:25.1Z</time>
      </trkpt>
      <trkpt lat="48.38022" lon="-3.491">
        <ele>152</ele>
        <time>2015-04-07T14:10:30.1Z</time>
      </trkpt>
      <trkpt lat="48.38025" lon="-3.4909">
        <ele>151</ele>
        <time>2015-04-07T14:10:36.1Z</time>
      </trkpt>
      <trkpt lat="48.38026" lon="-3.4908">
        <ele>151</ele>
        <time>2015-04-07T14:10:41.1Z</time>
      </trkpt>
      <trkpt lat="48.38028" lon="-3.4907">
        <ele>150</ele>
        <time>2015-04-07T14:10:47.1Z</time>
      </trkpt>
      <trkpt lat="48.38029" lon="-3.4906">
        <ele>150</ele>
        <time>2015-04-07T14:10:53.1Z</time>
      </trkpt>
      <trkpt lat="48.38029" lon="-3.49052">
        <ele>151</ele>
        <time>2015-04-07T14:10:58.1Z</time>
      </trkpt>
      <trkpt lat="48.3803" lon="-3.49043">
        <ele>150</ele>
        <time>2015-04-07T14:11:04.1Z</time>
      </trkpt>
      <trkpt lat="48.3803" lon="-3.49032">
        <ele>151</ele>
        <time>2015-04-07T14:11:10.1Z</time>
      </trkpt>
      <trkpt lat="48.38031" lon="-3.49024">
        <ele>151</ele>
        <time>2015-04-07T14:11:15.1Z</time>
      </trkpt>
      <trkpt lat="48.38032" lon="-3.49014">
        <ele>151</ele>
        <time>2015-04-07T14:11:21.1Z</time>
      </trkpt>
      <trkpt lat="48.38033" lon="-3.49003">
        <ele>151</ele>
        <time>2015-04-07T14:11:27.1Z</time>
      </trkpt>
      <trkpt lat="48.38033" lon="-3.48993">
        <ele>151</ele>
        <time>2015-04-07T14:11:33.1Z</time>
      </trkpt>
      <trkpt lat="48.38032" lon="-3.48985">
        <ele>151</ele>
        <time>2015-04-07T14:11:38.1Z</time>
      </trkpt>
      <trkpt lat="48.38032" lon="-3.48977">
        <ele>152</ele>
        <time>2015-04-07T14:11:43.1Z</time>
      </trkpt>
      <trkpt lat="48.38032" lon="-3.48968">
        <ele>153</ele>
        <time>2015-04-07T14:11:49.1Z</time>
      </trkpt>
      <trkpt lat="48.38033" lon="-3.4896">
        <ele>153</ele>
        <time>2015-04-07T14:11:55.1Z</time>
      </trkpt>
      <trkpt lat="48.38035" lon="-3.48955">
        <ele>154</ele>
        <time>2015-04-07T14:12:01.1Z</time>
      </trkpt>
      <trkpt lat="48.38036" lon="-3.48954">
        <ele>153</ele>
        <time>2015-04-07T14:12:06.1Z</time>
      </trkpt>
      <trkpt lat="48.38037" lon="-3.48954">
        <ele>153</ele>
        <time>2015-04-07T14:12:12.1Z</time>
      </trkpt>
      <trkpt lat="48.38037" lon="-3.48955">
        <ele>153</ele>
        <time>2015-04-07T14:12:18.1Z</time>
      </trkpt>
      <trkpt lat="48.38036" lon="-3.48956">
        <ele>153</ele>
        <time>2015-04-07T14:12:24.1Z</time>
      </trkpt>
      <trkpt lat="48.38036" lon="-3.48956">
        <ele>154</ele>
        <time>2015-04-07T14:12:29.1Z</time>
      </trkpt>
      <trkpt lat="48.38036" lon="-3.48956">
        <ele>154</ele>
        <time>2015-04-07T14:12:34.1Z</time>
      </trkpt>
      <trkpt lat="48.38036" lon="-3.48956">
        <ele>154</ele>
        <time>2015-04-07T14:12:42.1Z</time>
      </trkpt>
      <trkpt lat="48.38037" lon="-3.48955">
        <ele>153</ele>
        <time>2015-04-07T14:12:47.1Z</time>
      </trkpt>
      <trkpt lat="48.38037" lon="-3.48953">
        <ele>153</ele>
        <time>2015-04-07T14:12:53.1Z</time>
      </trkpt>
      <trkpt lat="48.38037" lon="-3.48953">
        <ele>153</ele>
        <time>2015-04-07T14:12:58.1Z</time>
      </trkpt>
      <trkpt lat="48.38038" lon="-3.48953">
        <ele>153</ele>
        <time>2015-04-07T14:13:04.1Z</time>
      </trkpt>
      <trkpt lat="48.38038" lon="-3.48952">
        <ele>154</ele>
        <time>2015-04-07T14:13:09.1Z</time>
      </trkpt>
      <trkpt lat="48.38038" lon="-3.48953">
        <ele>154</ele>
        <time>2015-04-07T14:13:16.1Z</time>
      </trkpt>
      <trkpt lat="48.38039" lon="-3.48953">
        <ele>153</ele>
        <time>2015-04-07T14:13:22.1Z</time>
      </trkpt>
      <trkpt lat="48.38039" lon="-3.48953">
        <ele>153</ele>
        <time>2015-04-07T14:13:27.1Z</time>
      </trkpt>
      <trkpt lat="48.38039" lon="-3.48954">
        <ele>153</ele>
        <time>2015-04-07T14:13:32.1Z</time>
      </trkpt>
      <trkpt lat="48.38039" lon="-3.48953">
        <ele>153</ele>
        <time>2015-04-07T14:13:38.1Z</time>
      </trkpt>
      <trkpt lat="48.38037" lon="-3.48951">
        <ele>153</ele>
        <time>2015-04-07T14:13:44.1Z</time>
      </trkpt>
      <trkpt lat="48.38036" lon="-3.4895">
        <ele>153</ele>
        <time>2015-04-07T14:13:50.1Z</time>
      </trkpt>
      <trkpt lat="48.38034" lon="-3.48946">
        <ele>154</ele>
        <time>2015-04-07T14:13:58.1Z</time>
      </trkpt>
      <trkpt lat="48.38034" lon="-3.48942">
        <ele>154</ele>
        <time>2015-04-07T14:14:04.1Z</time>
      </trkpt>
      <trkpt lat="48.38034" lon="-3.48937">
        <ele>154</ele>
        <time>2015-04-07T14:14:09.1Z</time>
      </trkpt>
      <trkpt lat="48.38034" lon="-3.4893">
        <ele>154</ele>
        <time>2015-04-07T14:14:15.1Z</time>
      </trkpt>
      <trkpt lat="48.38034" lon="-3.48922">
        <ele>155</ele>
        <time>2015-04-07T14:14:21.1Z</time>
      </trkpt>
      <trkpt lat="48.38033" lon="-3.48915">
        <ele>154</ele>
        <time>2015-04-07T14:14:27.1Z</time>
      </trkpt>
      <trkpt lat="48.38033" lon="-3.48908">
        <ele>155</ele>
        <time>2015-04-07T14:14:33.1Z</time>
      </trkpt>
      <trkpt lat="48.38033" lon="-3.48903">
        <ele>155</ele>
        <time>2015-04-07T14:14:38.1Z</time>
      </trkpt>
      <trkpt lat="48.38032" lon="-3.48897">
        <ele>156</ele>
        <time>2015-04-07T14:14:44.1Z</time>
      </trkpt>
      <trkpt lat="48.38033" lon="-3.48889">
        <ele>156</ele>
        <time>2015-04-07T14:14:50.1Z</time>
      </trkpt>
      <trkpt lat="48.38033" lon="-3.48883">
        <ele>156</ele>
        <time>2015-04-07T14:14:56.1Z</time>
      </trkpt>
      <trkpt lat="48.38033" lon="-3.48877">
        <ele>156</ele>
        <time>2015-04-07T14:15:01.1Z</time>
      </trkpt>
      <trkpt lat="48.38032" lon="-3.48871">
        <ele>156</ele>
        <time>2015-04-07T14:15:06.1Z</time>
      </trkpt>
      <trkpt lat="48.38033" lon="-3.48867">
        <ele>157</ele>
        <time>2015-04-07T14:15:12.1Z</time>
      </trkpt>
      <trkpt lat="48.38031" lon="-3.48858">
        <ele>157</ele>
        <time>2015-04-07T14:15:18.1Z</time>
      </trkpt>
      <trkpt lat="48.38031" lon="-3.4885">
        <ele>157</ele>
        <time>2015-04-07T14:15:24.1Z</time>
      </trkpt>
      <trkpt lat="48.3803" lon="-3.48843">
        <ele>157</ele>
        <time>2015-04-07T14:15:29.1Z</time>
      </trkpt>
      <trkpt lat="48.38029" lon="-3.48836">
        <ele>158</ele>
        <time>2015-04-07T14:15:34.1Z</time>
      </trkpt>
      <trkpt lat="48.38028" lon="-3.48828">
        <ele>158</ele>
        <time>2015-04-07T14:15:40.1Z</time>
      </trkpt>
      <trkpt lat="48.38028" lon="-3.4882">
        <ele>159</ele>
        <time>2015-04-07T14:15:45.1Z</time>
      </trkpt>
      <trkpt lat="48.38026" lon="-3.48812">
        <ele>159</ele>
        <time>2015-04-07T14:15:51.1Z</time>
      </trkpt>
      <trkpt lat="48.38025" lon="-3.48804">
        <ele>159</ele>
        <time>2015-04-07T14:15:56.1Z</time>
      </trkpt>
      <trkpt lat="48.38024" lon="-3.48797">
        <ele>160</ele>
        <time>2015-04-07T14:16:02.1Z</time>
      </trkpt>
      <trkpt lat="48.38022" lon="-3.4879">
        <ele>161</ele>
        <time>2015-04-07T14:16:07.1Z</time>
      </trkpt>
      <trkpt lat="48.38021" lon="-3.48783">
        <ele>161</ele>
        <time>2015-04-07T14:16:13.1Z</time>
      </trkpt>
      <trkpt lat="48.3802" lon="-3.48777">
        <ele>161</ele>
        <time>2015-04-07T14:16:18.1Z</time>
      </trkpt>
      <trkpt lat="48.38019" lon="-3.48771">
        <ele>161</ele>
        <time>2015-04-07T14:16:23.1Z</time>
      </trkpt>
      <trkpt lat="48.38018" lon="-3.48764">
        <ele>161</ele>
        <time>2015-04-07T14:16:29.1Z</time>
      </trkpt>
      <trkpt lat="48.38017" lon="-3.48758">
        <ele>161</ele>
        <time>2015-04-07T14:16:34.1Z</time>
      </trkpt>
      <trkpt lat="48.38016" lon="-3.48751">
        <ele>162</ele>
        <time>2015-04-07T14:16:40.1Z</time>
      </trkpt>
      <trkpt lat="48.38015" lon="-3.48748">
        <ele>162</ele>
        <time>2015-04-07T14:16:46.1Z</time>
      </trkpt>
      <trkpt lat="48.38015" lon="-3.48742">
        <ele>163</ele>
        <time>2015-04-07T14:16:52.1Z</time>
      </trkpt>
      <trkpt lat="48.38014" lon="-3.48736">
        <ele>163</ele>
        <time>2015-04-07T14:16:57.1Z</time>
      </trkpt>
      <trkpt lat="48.38013" lon="-3.48728">
        <ele>163</ele>
        <time>2015-04-07T14:17:03.1Z</time>
      </trkpt>
      <trkpt lat="48.38012" lon="-3.48723">
        <ele>164</ele>
        <time>2015-04-07T14:17:08.1Z</time>
      </trkpt>
      <trkpt lat="48.38012" lon="-3.48716">
        <ele>163</ele>
        <time>2015-04-07T14:17:14.1Z</time>
      </trkpt>
      <trkpt lat="48.38015" lon="-3.48712">
        <ele>164</ele>
        <time>2015-04-07T14:17:19.1Z</time>
      </trkpt>
      <trkpt lat="48.38018" lon="-3.48709">
        <ele>164</ele>
        <time>2015-04-07T14:17:24.1Z</time>
      </trkpt>
      <trkpt lat="48.38019" lon="-3.48708">
        <ele>164</ele>
        <time>2015-04-07T14:17:31.1Z</time>
      </trkpt>
      <trkpt lat="48.38019" lon="-3.48709">
        <ele>165</ele>
        <time>2015-04-07T14:17:36.1Z</time>
      </trkpt>
      <trkpt lat="48.38023" lon="-3.4871">
        <ele>164</ele>
        <time>2015-04-07T14:17:42.1Z</time>
      </trkpt>
      <trkpt lat="48.38027" lon="-3.48711">
        <ele>164</ele>
        <time>2015-04-07T14:17:48.1Z</time>
      </trkpt>
      <trkpt lat="48.38031" lon="-3.48712">
        <ele>164</ele>
        <time>2015-04-07T14:17:53.1Z</time>
      </trkpt>
      <trkpt lat="48.38034" lon="-3.48713">
        <ele>164</ele>
        <time>2015-04-07T14:17:58.1Z</time>
      </trkpt>
      <trkpt lat="48.3804" lon="-3.48714">
        <ele>164</ele>
        <time>2015-04-07T14:18:04.1Z</time>
      </trkpt>
      <trkpt lat="48.38045" lon="-3.48717">
        <ele>164</ele>
        <time>2015-04-07T14:18:10.1Z</time>
      </trkpt>
      <trkpt lat="48.3805" lon="-3.48718">
        <ele>164</ele>
        <time>2015-04-07T14:18:15.1Z</time>
      </trkpt>
      <trkpt lat="48.38055" lon="-3.48719">
        <ele>163</ele>
        <time>2015-04-07T14:18:20.1Z</time>
      </trkpt>
      <trkpt lat="48.3806" lon="-3.4872">
        <ele>163</ele>
        <time>2015-04-07T14:18:25.1Z</time>
      </trkpt>
      <trkpt lat="48.38066" lon="-3.48721">
        <ele>163</ele>
        <time>2015-04-07T14:18:31.1Z</time>
      </trkpt>
      <trkpt lat="48.38072" lon="-3.48723">
        <ele>162</ele>
        <time>2015-04-07T14:18:37.1Z</time>
      </trkpt>
      <trkpt lat="48.38077" lon="-3.48724">
        <ele>163</ele>
        <time>2015-04-07T14:18:42.1Z</time>
      </trkpt>
      <trkpt lat="48.38084" lon="-3.48725">
        <ele>163</ele>
        <time>2015-04-07T14:18:48.1Z</time>
      </trkpt>
      <trkpt lat="48.38089" lon="-3.48726">
        <ele>162</ele>
        <time>2015-04-07T14:18:53.1Z</time>
      </trkpt>
      <trkpt lat="48.38096" lon="-3.48727">
        <ele>162</ele>
        <time>2015-04-07T14:18:59.1Z</time>
      </trkpt>
      <trkpt lat="48.38101" lon="-3.48728">
        <ele>162</ele>
        <time>2015-04-07T14:19:04.1Z</time>
      </trkpt>
      <trkpt lat="48.38107" lon="-3.48728">
        <ele>163</ele>
        <time>2015-04-07T14:19:10.1Z</time>
      </trkpt>
      <trkpt lat="48.38112" lon="-3.48728">
        <ele>163</ele>
        <time>2015-04-07T14:19:15.1Z</time>
      </trkpt>
      <trkpt lat="48.38117" lon="-3.48729">
        <ele>163</ele>
        <time>2015-04-07T14:19:21.1Z</time>
      </trkpt>
      <trkpt lat="48.38123" lon="-3.48729">
        <ele>163</ele>
        <time>2015-04-07T14:19:27.1Z</time>
      </trkpt>
      <trkpt lat="48.38128" lon="-3.4873">
        <ele>163</ele>
        <time>2015-04-07T14:19:33.1Z</time>
      </trkpt>
      <trkpt lat="48.38133" lon="-3.48732">
        <ele>163</ele>
        <time>2015-04-07T14:19:39.1Z</time>
      </trkpt>
      <trkpt lat="48.38137" lon="-3.48733">
        <ele>163</ele>
        <time>2015-04-07T14:19:45.1Z</time>
      </trkpt>
      <trkpt lat="48.38141" lon="-3.48735">
        <ele>164</ele>
        <time>2015-04-07T14:19:50.1Z</time>
      </trkpt>
      <trkpt lat="48.38143" lon="-3.48735">
        <ele>163</ele>
        <time>2015-04-07T14:19:56.1Z</time>
      </trkpt>
      <trkpt lat="48.38143" lon="-3.48734">
        <ele>162</ele>
        <time>2015-04-07T14:20:02.1Z</time>
      </trkpt>
      <trkpt lat="48.38144" lon="-3.48734">
        <ele>162</ele>
        <time>2015-04-07T14:20:08.1Z</time>
      </trkpt>
      <trkpt lat="48.38144" lon="-3.48734">
        <ele>162</ele>
        <time>2015-04-07T14:20:13.1Z</time>
      </trkpt>
      <trkpt lat="48.38144" lon="-3.4873">
        <ele>161</ele>
        <time>2015-04-07T14:20:18.1Z</time>
      </trkpt>
      <trkpt lat="48.38143" lon="-3.4873">
        <ele>162</ele>
        <time>2015-04-07T14:20:24.1Z</time>
      </trkpt>
      <trkpt lat="48.38143" lon="-3.4873">
        <ele>163</ele>
        <time>2015-04-07T14:20:29.1Z</time>
      </trkpt>
      <trkpt lat="48.38142" lon="-3.48732">
        <ele>164</ele>
        <time>2015-04-07T14:20:35.1Z</time>
      </trkpt>
      <trkpt lat="48.38143" lon="-3.48732">
        <ele>163</ele>
        <time>2015-04-07T14:20:40.1Z</time>
      </trkpt>
      <trkpt lat="48.38143" lon="-3.48733">
        <ele>162</ele>
        <time>2015-04-07T14:20:48.1Z</time>
      </trkpt>
      <trkpt lat="48.38142" lon="-3.48733">
        <ele>162</ele>
        <time>2015-04-07T14:20:54.1Z</time>
      </trkpt>
      <trkpt lat="48.38142" lon="-3.48734">
        <ele>162</ele>
        <time>2015-04-07T14:20:59.1Z</time>
      </trkpt>
      <trkpt lat="48.38142" lon="-3.48735">
        <ele>163</ele>
        <time>2015-04-07T14:21:05.1Z</time>
      </trkpt>
      <trkpt lat="48.38143" lon="-3.48735">
        <ele>163</ele>
        <time>2015-04-07T14:21:10.1Z</time>
      </trkpt>
      <trkpt lat="48.38143" lon="-3.48735">
        <ele>163</ele>
        <time>2015-04-07T14:21:16.1Z</time>
      </trkpt>
      <trkpt lat="48.38143" lon="-3.48734">
        <ele>162</ele>
        <time>2015-04-07T14:21:22.1Z</time>
      </trkpt>
      <trkpt lat="48.38143" lon="-3.48734">
        <ele>161</ele>
        <time>2015-04-07T14:21:27.1Z</time>
      </trkpt>
      <trkpt lat="48.3814" lon="-3.48733">
        <ele>162</ele>
        <time>2015-04-07T14:21:32.1Z</time>
      </trkpt>
      <trkpt lat="48.38136" lon="-3.48731">
        <ele>163</ele>
        <time>2015-04-07T14:21:38.1Z</time>
      </trkpt>
      <trkpt lat="48.38134" lon="-3.48729">
        <ele>163</ele>
        <time>2015-04-07T14:21:43.1Z</time>
      </trkpt>
      <trkpt lat="48.38129" lon="-3.48727">
        <ele>163</ele>
        <time>2015-04-07T14:21:49.1Z</time>
      </trkpt>
      <trkpt lat="48.38125" lon="-3.48726">
        <ele>163</ele>
        <time>2015-04-07T14:21:54.1Z</time>
      </trkpt>
      <trkpt lat="48.38121" lon="-3.48725">
        <ele>163</ele>
        <time>2015-04-07T14:21:59.1Z</time>
      </trkpt>
      <trkpt lat="48.38115" lon="-3.48723">
        <ele>163</ele>
        <time>2015-04-07T14:22:05.1Z</time>
      </trkpt>
      <trkpt lat="48.38111" lon="-3.48722">
        <ele>163</ele>
        <time>2015-04-07T14:22:10.1Z</time>
      </trkpt>
      <trkpt lat="48.38105" lon="-3.48721">
        <ele>163</ele>
        <time>2015-04-07T14:22:16.1Z</time>
      </trkpt>
      <trkpt lat="48.381" lon="-3.4872">
        <ele>163</ele>
        <time>2015-04-07T14:22:21.1Z</time>
      </trkpt>
      <trkpt lat="48.38094" lon="-3.48718">
        <ele>163</ele>
        <time>2015-04-07T14:22:27.1Z</time>
      </trkpt>
      <trkpt lat="48.38089" lon="-3.48717">
        <ele>163</ele>
        <time>2015-04-07T14:22:32.1Z</time>
      </trkpt>
      <trkpt lat="48.38083" lon="-3.48716">
        <ele>162</ele>
        <time>2015-04-07T14:22:37.1Z</time>
      </trkpt>
      <trkpt lat="48.38078" lon="-3.48715">
        <ele>162</ele>
        <time>2015-04-07T14:22:42.1Z</time>
      </trkpt>
      <trkpt lat="48.38072" lon="-3.48714">
        <ele>162</ele>
        <time>2015-04-07T14:22:47.1Z</time>
      </trkpt>
      <trkpt lat="48.38066" lon="-3.48714">
        <ele>163</ele>
        <time>2015-04-07T14:22:53.1Z</time>
      </trkpt>
      <trkpt lat="48.38064" lon="-3.48714">
        <ele>163</ele>
        <time>2015-04-07T14:22:58.1Z</time>
      </trkpt>
      <trkpt lat="48.38064" lon="-3.48713">
        <ele>163</ele>
        <time>2015-04-07T14:23:05.1Z</time>
      </trkpt>
      <trkpt lat="48.38063" lon="-3.48713">
        <ele>163</ele>
        <time>2015-04-07T14:23:10.1Z</time>
      </trkpt>
      <trkpt lat="48.38059" lon="-3.48712">
        <ele>163</ele>
        <time>2015-04-07T14:23:16.1Z</time>
      </trkpt>
      <trkpt lat="48.38054" lon="-3.4871">
        <ele>163</ele>
        <time>2015-04-07T14:23:21.1Z</time>
      </trkpt>
      <trkpt lat="48.38048" lon="-3.48709">
        <ele>163</ele>
        <time>2015-04-07T14:23:26.1Z</time>
      </trkpt>
      <trkpt lat="48.38042" lon="-3.48708">
        <ele>164</ele>
        <time>2015-04-07T14:23:32.1Z</time>
      </trkpt>
      <trkpt lat="48.38036" lon="-3.48708">
        <ele>164</ele>
        <time>2015-04-07T14:23:37.1Z</time>
      </trkpt>
      <trkpt lat="48.3803" lon="-3.48708">
        <ele>164</ele>
        <time>2015-04-07T14:23:43.1Z</time>
      </trkpt>
      <trkpt lat="48.38024" lon="-3.48708">
        <ele>165</ele>
        <time>2015-04-07T14:23:49.1Z</time>
      </trkpt>
      <trkpt lat="48.38019" lon="-3.48708">
        <ele>164</ele>
        <time>2015-04-07T14:23:55.1Z</time>
      </trkpt>
      <trkpt lat="48.38014" lon="-3.48707">
        <ele>165</ele>
        <time>2015-04-07T14:24:01.1Z</time>
      </trkpt>
      <trkpt lat="48.38013" lon="-3.48707">
        <ele>165</ele>
        <time>2015-04-07T14:24:09.1Z</time>
      </trkpt>
      <trkpt lat="48.38013" lon="-3.48706">
        <ele>165</ele>
        <time>2015-04-07T14:24:14.1Z</time>
      </trkpt>
      <trkpt lat="48.3801" lon="-3.48698">
        <ele>165</ele>
        <time>2015-04-07T14:24:20.1Z</time>
      </trkpt>
      <trkpt lat="48.38009" lon="-3.4869">
        <ele>166</ele>
        <time>2015-04-07T14:24:25.1Z</time>
      </trkpt>
      <trkpt lat="48.38008" lon="-3.48681">
        <ele>166</ele>
        <time>2015-04-07T14:24:31.1Z</time>
      </trkpt>
      <trkpt lat="48.38007" lon="-3.48673">
        <ele>166</ele>
        <time>2015-04-07T14:24:37.1Z</time>
      </trkpt>
      <trkpt lat="48.38006" lon="-3.48665">
        <ele>166</ele>
        <time>2015-04-07T14:24:42.1Z</time>
      </trkpt>
      <trkpt lat="48.38005" lon="-3.48657">
        <ele>167</ele>
        <time>2015-04-07T14:24:48.1Z</time>
      </trkpt>
      <trkpt lat="48.38005" lon="-3.48648">
        <ele>168</ele>
        <time>2015-04-07T14:24:54.1Z</time>
      </trkpt>
      <trkpt lat="48.38004" lon="-3.4864">
        <ele>168</ele>
        <time>2015-04-07T14:24:59.1Z</time>
      </trkpt>
      <trkpt lat="48.38003" lon="-3.48633">
        <ele>168</ele>
        <time>2015-04-07T14:25:04.1Z</time>
      </trkpt>
      <trkpt lat="48.38002" lon="-3.48625">
        <ele>169</ele>
        <time>2015-04-07T14:25:10.1Z</time>
      </trkpt>
      <trkpt lat="48.38001" lon="-3.48615">
        <ele>169</ele>
        <time>2015-04-07T14:25:16.1Z</time>
      </trkpt>
      <trkpt lat="48.38001" lon="-3.48606">
        <ele>171</ele>
        <time>2015-04-07T14:25:22.1Z</time>
      </trkpt>
      <trkpt lat="48.38001" lon="-3.486">
        <ele>172</ele>
        <time>2015-04-07T14:25:27.1Z</time>
      </trkpt>
      <trkpt lat="48.38001" lon="-3.48591">
        <ele>172</ele>
        <time>2015-04-07T14:25:33.1Z</time>
      </trkpt>
      <trkpt lat="48.38001" lon="-3.48582">
        <ele>172</ele>
        <time>2015-04-07T14:25:39.1Z</time>
      </trkpt>
      <trkpt lat="48.38001" lon="-3.48574">
        <ele>172</ele>
        <time>2015-04-07T14:25:45.1Z</time>
      </trkpt>
      <trkpt lat="48.38001" lon="-3.48565">
        <ele>173</ele>
        <time>2015-04-07T14:25:51.1Z</time>
      </trkpt>
      <trkpt lat="48.38001" lon="-3.48558">
        <ele>173</ele>
        <time>2015-04-07T14:25:56.1Z</time>
      </trkpt>
      <trkpt lat="48.38001" lon="-3.4855">
        <ele>174</ele>
        <time>2015-04-07T14:26:02.1Z</time>
      </trkpt>
      <trkpt lat="48.38001" lon="-3.48541">
        <ele>174</ele>
        <time>2015-04-07T14:26:08.1Z</time>
      </trkpt>
      <trkpt lat="48.38001" lon="-3.48532">
        <ele>173</ele>
        <time>2015-04-07T14:26:14.1Z</time>
      </trkpt>
      <trkpt lat="48.38002" lon="-3.48523">
        <ele>174</ele>
        <time>2015-04-07T14:26:20.1Z</time>
      </trkpt>
      <trkpt lat="48.38001" lon="-3.48515">
        <ele>174</ele>
        <time>2015-04-07T14:26:26.1Z</time>
      </trkpt>
      <trkpt lat="48.38001" lon="-3.48508">
        <ele>174</ele>
        <time>2015-04-07T14:26:31.1Z</time>
      </trkpt>
      <trkpt lat="48.38001" lon="-3.485">
        <ele>174</ele>
        <time>2015-04-07T14:26:36.1Z</time>
      </trkpt>
      <trkpt lat="48.38" lon="-3.48491">
        <ele>174</ele>
        <time>2015-04-07T14:26:42.1Z</time>
      </trkpt>
      <trkpt lat="48.38001" lon="-3.48482">
        <ele>174</ele>
        <time>2015-04-07T14:26:48.1Z</time>
      </trkpt>
      <trkpt lat="48.38" lon="-3.48474">
        <ele>174</ele>
        <time>2015-04-07T14:26:54.1Z</time>
      </trkpt>
      <trkpt lat="48.38001" lon="-3.48466">
        <ele>174</ele>
        <time>2015-04-07T14:27:00.1Z</time>
      </trkpt>
      <trkpt lat="48.38001" lon="-3.48458">
        <ele>174</ele>
        <time>2015-04-07T14:27:05.1Z</time>
      </trkpt>
      <trkpt lat="48.38002" lon="-3.4845">
        <ele>175</ele>
        <time>2015-04-07T14:27:10.1Z</time>
      </trkpt>
      <trkpt lat="48.38003" lon="-3.48443">
        <ele>175</ele>
        <time>2015-04-07T14:27:15.1Z</time>
      </trkpt>
      <trkpt lat="48.38006" lon="-3.48436">
        <ele>174</ele>
        <time>2015-04-07T14:27:21.1Z</time>
      </trkpt>
      <trkpt lat="48.3801" lon="-3.48434">
        <ele>175</ele>
        <time>2015-04-07T14:27:26.1Z</time>
      </trkpt>
      <trkpt lat="48.38015" lon="-3.48434">
        <ele>175</ele>
        <time>2015-04-07T14:27:31.1Z</time>
      </trkpt>
      <trkpt lat="48.38019" lon="-3.48435">
        <ele>174</ele>
        <time>2015-04-07T14:27:36.1Z</time>
      </trkpt>
      <trkpt lat="48.38024" lon="-3.48436">
        <ele>174</ele>
        <time>2015-04-07T14:27:41.1Z</time>
      </trkpt>
      <trkpt lat="48.3803" lon="-3.48437">
        <ele>174</ele>
        <time>2015-04-07T14:27:47.1Z</time>
      </trkpt>
      <trkpt lat="48.38035" lon="-3.48438">
        <ele>174</ele>
        <time>2015-04-07T14:27:52.1Z</time>
      </trkpt>
      <trkpt lat="48.3804" lon="-3.4844">
        <ele>174</ele>
        <time>2015-04-07T14:27:58.1Z</time>
      </trkpt>
      <trkpt lat="48.38044" lon="-3.48441">
        <ele>174</ele>
        <time>2015-04-07T14:28:03.1Z</time>
      </trkpt>
      <trkpt lat="48.3805" lon="-3.48442">
        <ele>174</ele>
        <time>2015-04-07T14:28:09.1Z</time>
      </trkpt>
      <trkpt lat="48.38054" lon="-3.48443">
        <ele>174</ele>
        <time>2015-04-07T14:28:14.1Z</time>
      </trkpt>
      <trkpt lat="48.3806" lon="-3.48443">
        <ele>174</ele>
        <time>2015-04-07T14:28:20.1Z</time>
      </trkpt>
      <trkpt lat="48.38065" lon="-3.48444">
        <ele>174</ele>
        <time>2015-04-07T14:28:26.1Z</time>
      </trkpt>
      <trkpt lat="48.3807" lon="-3.48442">
        <ele>173</ele>
        <time>2015-04-07T14:28:31.1Z</time>
      </trkpt>
      <trkpt lat="48.38075" lon="-3.4844">
        <ele>173</ele>
        <time>2015-04-07T14:28:37.1Z</time>
      </trkpt>
      <trkpt lat="48.38076" lon="-3.4844">
        <ele>174</ele>
        <time>2015-04-07T14:28:42.1Z</time>
      </trkpt>
      <trkpt lat="48.38076" lon="-3.48436">
        <ele>173</ele>
        <time>2015-04-07T14:28:47.1Z</time>
      </trkpt>
      <trkpt lat="48.38077" lon="-3.48437">
        <ele>173</ele>
        <time>2015-04-07T14:28:53.1Z</time>
      </trkpt>
      <trkpt lat="48.38077" lon="-3.48436">
        <ele>173</ele>
        <time>2015-04-07T14:28:58.1Z</time>
      </trkpt>
      <trkpt lat="48.38077" lon="-3.48436">
        <ele>172</ele>
        <time>2015-04-07T14:29:04.1Z</time>
      </trkpt>
      <trkpt lat="48.38076" lon="-3.48436">
        <ele>174</ele>
        <time>2015-04-07T14:29:11.1Z</time>
      </trkpt>
      <trkpt lat="48.38076" lon="-3.48434">
        <ele>175</ele>
        <time>2015-04-07T14:29:16.1Z</time>
      </trkpt>
      <trkpt lat="48.38076" lon="-3.48435">
        <ele>174</ele>
        <time>2015-04-07T14:29:22.1Z</time>
      </trkpt>
      <trkpt lat="48.38077" lon="-3.48436">
        <ele>173</ele>
        <time>2015-04-07T14:29:27.1Z</time>
      </trkpt>
      <trkpt lat="48.38076" lon="-3.48436">
        <ele>174</ele>
        <time>2015-04-07T14:29:34.1Z</time>
      </trkpt>
      <trkpt lat="48.38077" lon="-3.48437">
        <ele>174</ele>
        <time>2015-04-07T14:29:41.1Z</time>
      </trkpt>
      <trkpt lat="48.38077" lon="-3.48435">
        <ele>173</ele>
        <time>2015-04-07T14:29:47.1Z</time>
      </trkpt>
      <trkpt lat="48.38077" lon="-3.48435">
        <ele>173</ele>
        <time>2015-04-07T14:29:52.1Z</time>
      </trkpt>
      <trkpt lat="48.38077" lon="-3.48436">
        <ele>172</ele>
        <time>2015-04-07T14:29:59.1Z</time>
      </trkpt>
      <trkpt lat="48.38077" lon="-3.48436">
        <ele>172</ele>
        <time>2015-04-07T14:30:04.1Z</time>
      </trkpt>
      <trkpt lat="48.38076" lon="-3.48436">
        <ele>173</ele>
        <time>2015-04-07T14:30:10.1Z</time>
      </trkpt>
      <trkpt lat="48.38076" lon="-3.48435">
        <ele>173</ele>
        <time>2015-04-07T14:30:15.1Z</time>
      </trkpt>
      <trkpt lat="48.38076" lon="-3.48434">
        <ele>174</ele>
        <time>2015-04-07T14:30:23.1Z</time>
      </trkpt>
      <trkpt lat="48.38076" lon="-3.48434">
        <ele>174</ele>
        <time>2015-04-07T14:30:28.1Z</time>
      </trkpt>
      <trkpt lat="48.38076" lon="-3.48434">
        <ele>176</ele>
        <time>2015-04-07T14:30:36.1Z</time>
      </trkpt>
      <trkpt lat="48.38076" lon="-3.48433">
        <ele>177</ele>
        <time>2015-04-07T14:30:42.1Z</time>
      </trkpt>
      <trkpt lat="48.38077" lon="-3.48434">
        <ele>174</ele>
        <time>2015-04-07T14:30:49.1Z</time>
      </trkpt>
      <trkpt lat="48.38077" lon="-3.48435">
        <ele>174</ele>
        <time>2015-04-07T14:30:56.1Z</time>
      </trkpt>
      <trkpt lat="48.38076" lon="-3.48436">
        <ele>174</ele>
        <time>2015-04-07T14:31:02.1Z</time>
      </trkpt>
      <trkpt lat="48.38076" lon="-3.48436">
        <ele>174</ele>
        <time>2015-04-07T14:31:07.1Z</time>
      </trkpt>
      <trkpt lat="48.38076" lon="-3.48436">
        <ele>173</ele>
        <time>2015-04-07T14:31:12.1Z</time>
      </trkpt>
      <trkpt lat="48.38076" lon="-3.48437">
        <ele>173</ele>
        <time>2015-04-07T14:31:18.1Z</time>
      </trkpt>
      <trkpt lat="48.38076" lon="-3.48437">
        <ele>172</ele>
        <time>2015-04-07T14:31:24.1Z</time>
      </trkpt>
      <trkpt lat="48.38076" lon="-3.48438">
        <ele>172</ele>
        <time>2015-04-07T14:31:31.1Z</time>
      </trkpt>
      <trkpt lat="48.38076" lon="-3.48439">
        <ele>173</ele>
        <time>2015-04-07T14:31:37.1Z</time>
      </trkpt>
      <trkpt lat="48.38076" lon="-3.48439">
        <ele>173</ele>
        <time>2015-04-07T14:31:42.1Z</time>
      </trkpt>
      <trkpt lat="48.38075" lon="-3.48439">
        <ele>173</ele>
        <time>2015-04-07T14:31:48.1Z</time>
      </trkpt>
      <trkpt lat="48.38075" lon="-3.48439">
        <ele>173</ele>
        <time>2015-04-07T14:31:56.1Z</time>
      </trkpt>
      <trkpt lat="48.38075" lon="-3.48439">
        <ele>173</ele>
        <time>2015-04-07T14:32:02.1Z</time>
      </trkpt>
      <trkpt lat="48.38076" lon="-3.48439">
        <ele>173</ele>
        <time>2015-04-07T14:32:08.1Z</time>
      </trkpt>
      <trkpt lat="48.38077" lon="-3.4844">
        <ele>174</ele>
        <time>2015-04-07T14:32:14.1Z</time>
      </trkpt>
      <trkpt lat="48.38082" lon="-3.48442">
        <ele>175</ele>
        <time>2015-04-07T14:32:19.1Z</time>
      </trkpt>
      <trkpt lat="48.38087" lon="-3.48443">
        <ele>175</ele>
        <time>2015-04-07T14:32:25.1Z</time>
      </trkpt>
      <trkpt lat="48.38092" lon="-3.48444">
        <ele>175</ele>
        <time>2015-04-07T14:32:30.1Z</time>
      </trkpt>
      <trkpt lat="48.38097" lon="-3.48445">
        <ele>174</ele>
        <time>2015-04-07T14:32:36.1Z</time>
      </trkpt>
      <trkpt lat="48.38102" lon="-3.48446">
        <ele>174</ele>
        <time>2015-04-07T14:32:41.1Z</time>
      </trkpt>
      <trkpt lat="48.38107" lon="-3.48447">
        <ele>174</ele>
        <time>2015-04-07T14:32:46.1Z</time>
      </trkpt>
      <trkpt lat="48.38113" lon="-3.48449">
        <ele>174</ele>
        <time>2015-04-07T14:32:52.1Z</time>
      </trkpt>
      <trkpt lat="48.38118" lon="-3.4845">
        <ele>174</ele>
        <time>2015-04-07T14:32:57.1Z</time>
      </trkpt>
      <trkpt lat="48.38124" lon="-3.4845">
        <ele>173</ele>
        <time>2015-04-07T14:33:03.1Z</time>
      </trkpt>
      <trkpt lat="48.38129" lon="-3.48451">
        <ele>174</ele>
        <time>2015-04-07T14:33:08.1Z</time>
      </trkpt>
      <trkpt lat="48.38135" lon="-3.48453">
        <ele>174</ele>
        <time>2015-04-07T14:33:14.1Z</time>
      </trkpt>
      <trkpt lat="48.3814" lon="-3.48456">
        <ele>174</ele>
        <time>2015-04-07T14:33:19.1Z</time>
      </trkpt>
      <trkpt lat="48.38145" lon="-3.48458">
        <ele>174</ele>
        <time>2015-04-07T14:33:24.1Z</time>
      </trkpt>
      <trkpt lat="48.38152" lon="-3.4846">
        <ele>174</ele>
        <time>2015-04-07T14:33:30.1Z</time>
      </trkpt>
      <trkpt lat="48.38157" lon="-3.4846">
        <ele>174</ele>
        <time>2015-04-07T14:33:35.1Z</time>
      </trkpt>
      <trkpt lat="48.38163" lon="-3.4846">
        <ele>175</ele>
        <time>2015-04-07T14:33:41.1Z</time>
      </trkpt>
      <trkpt lat="48.38168" lon="-3.48462">
        <ele>174</ele>
        <time>2015-04-07T14:33:46.1Z</time>
      </trkpt>
      <trkpt lat="48.38173" lon="-3.48462">
        <ele>174</ele>
        <time>2015-04-07T14:33:51.1Z</time>
      </trkpt>
      <trkpt lat="48.38177" lon="-3.48463">
        <ele>175</ele>
        <time>2015-04-07T14:33:56.1Z</time>
      </trkpt>
      <trkpt lat="48.38179" lon="-3.48463">
        <ele>175</ele>
        <time>2015-04-07T14:34:02.1Z</time>
      </trkpt>
      <trkpt lat="48.38179" lon="-3.48464">
        <ele>174</ele>
        <time>2015-04-07T14:34:08.1Z</time>
      </trkpt>
      <trkpt lat="48.38181" lon="-3.48465">
        <ele>174</ele>
        <time>2015-04-07T14:34:14.1Z</time>
      </trkpt>
      <trkpt lat="48.38186" lon="-3.48466">
        <ele>174</ele>
        <time>2015-04-07T14:34:20.1Z</time>
      </trkpt>
      <trkpt lat="48.3819" lon="-3.48466">
        <ele>174</ele>
        <time>2015-04-07T14:34:25.1Z</time>
      </trkpt>
      <trkpt lat="48.38195" lon="-3.48466">
        <ele>175</ele>
        <time>2015-04-07T14:34:31.1Z</time>
      </trkpt>
      <trkpt lat="48.38199" lon="-3.48466">
        <ele>175</ele>
        <time>2015-04-07T14:34:37.1Z</time>
      </trkpt>
      <trkpt lat="48.38202" lon="-3.48467">
        <ele>175</ele>
        <time>2015-04-07T14:34:43.1Z</time>
      </trkpt>
      <trkpt lat="48.38206" lon="-3.48468">
        <ele>175</ele>
        <time>2015-04-07T14:34:48.1Z</time>
      </trkpt>
      <trkpt lat="48.38212" lon="-3.48469">
        <ele>175</ele>
        <time>2015-04-07T14:34:53.1Z</time>
      </trkpt>
      <trkpt lat="48.38217" lon="-3.48471">
        <ele>175</ele>
        <time>2015-04-07T14:34:59.1Z</time>
      </trkpt>
      <trkpt lat="48.38222" lon="-3.48472">
        <ele>175</ele>
        <time>2015-04-07T14:35:04.1Z</time>
      </trkpt>
      <trkpt lat="48.38227" lon="-3.48473">
        <ele>175</ele>
        <time>2015-04-07T14:35:10.1Z</time>
      </trkpt>
      <trkpt lat="48.38232" lon="-3.48473">
        <ele>175</ele>
        <time>2015-04-07T14:35:15.1Z</time>
      </trkpt>
      <trkpt lat="48.38237" lon="-3.48472">
        <ele>175</ele>
        <time>2015-04-07T14:35:21.1Z</time>
      </trkpt>
      <trkpt lat="48.38241" lon="-3.48473">
        <ele>175</ele>
        <time>2015-04-07T14:35:26.1Z</time>
      </trkpt>
      <trkpt lat="48.38246" lon="-3.48475">
        <ele>176</ele>
        <time>2015-04-07T14:35:32.1Z</time>
      </trkpt>
      <trkpt lat="48.38249" lon="-3.48478">
        <ele>176</ele>
        <time>2015-04-07T14:35:37.1Z</time>
      </trkpt>
      <trkpt lat="48.38252" lon="-3.48479">
        <ele>175</ele>
        <time>2015-04-07T14:35:42.1Z</time>
      </trkpt>
      <trkpt lat="48.38256" lon="-3.48481">
        <ele>175</ele>
        <time>2015-04-07T14:35:48.1Z</time>
      </trkpt>
      <trkpt lat="48.3826" lon="-3.48482">
        <ele>176</ele>
        <time>2015-04-07T14:35:53.1Z</time>
      </trkpt>
      <trkpt lat="48.38266" lon="-3.48484">
        <ele>176</ele>
        <time>2015-04-07T14:35:59.1Z</time>
      </trkpt>
      <trkpt lat="48.3827" lon="-3.48485">
        <ele>176</ele>
        <time>2015-04-07T14:36:04.1Z</time>
      </trkpt>
      <trkpt lat="48.38276" lon="-3.48487">
        <ele>176</ele>
        <time>2015-04-07T14:36:10.1Z</time>
      </trkpt>
      <trkpt lat="48.38282" lon="-3.4849">
        <ele>176</ele>
        <time>2015-04-07T14:36:16.1Z</time>
      </trkpt>
      <trkpt lat="48.38287" lon="-3.48492">
        <ele>176</ele>
        <time>2015-04-07T14:36:21.1Z</time>
      </trkpt>
      <trkpt lat="48.38293" lon="-3.48494">
        <ele>176</ele>
        <time>2015-04-07T14:36:26.1Z</time>
      </trkpt>
      <trkpt lat="48.38298" lon="-3.48495">
        <ele>176</ele>
        <time>2015-04-07T14:36:31.1Z</time>
      </trkpt>
      <trkpt lat="48.38305" lon="-3.48496">
        <ele>177</ele>
        <time>2015-04-07T14:36:37.1Z</time>
      </trkpt>
      <trkpt lat="48.38311" lon="-3.48496">
        <ele>177</ele>
        <time>2015-04-07T14:36:43.1Z</time>
      </trkpt>
      <trkpt lat="48.38317" lon="-3.48497">
        <ele>177</ele>
        <time>2015-04-07T14:36:49.1Z</time>
      </trkpt>
      <trkpt lat="48.38321" lon="-3.48498">
        <ele>177</ele>
        <time>2015-04-07T14:36:54.1Z</time>
      </trkpt>
      <trkpt lat="48.38327" lon="-3.485">
        <ele>178</ele>
        <time>2015-04-07T14:37:00.1Z</time>
      </trkpt>
      <trkpt lat="48.38333" lon="-3.48499">
        <ele>178</ele>
        <time>2015-04-07T14:37:05.1Z</time>
      </trkpt>
      <trkpt lat="48.3834" lon="-3.48498">
        <ele>178</ele>
        <time>2015-04-07T14:37:11.1Z</time>
      </trkpt>
      <trkpt lat="48.38345" lon="-3.48498">
        <ele>178</ele>
        <time>2015-04-07T14:37:16.1Z</time>
      </trkpt>
      <trkpt lat="48.38351" lon="-3.48497">
        <ele>178</ele>
        <time>2015-04-07T14:37:21.1Z</time>
      </trkpt>
      <trkpt lat="48.38357" lon="-3.48498">
        <ele>178</ele>
        <time>2015-04-07T14:37:27.1Z</time>
      </trkpt>
      <trkpt lat="48.38364" lon="-3.48498">
        <ele>178</ele>
        <time>2015-04-07T14:37:33.1Z</time>
      </trkpt>
      <trkpt lat="48.38371" lon="-3.48499">
        <ele>179</ele>
        <time>2015-04-07T14:37:39.1Z</time>
      </trkpt>
      <trkpt lat="48.38377" lon="-3.48502">
        <ele>179</ele>
        <time>2015-04-07T14:37:45.1Z</time>
      </trkpt>
      <trkpt lat="48.38384" lon="-3.48503">
        <ele>179</ele>
        <time>2015-04-07T14:37:51.1Z</time>
      </trkpt>
      <trkpt lat="48.38391" lon="-3.48503">
        <ele>179</ele>
        <time>2015-04-07T14:37:57.1Z</time>
      </trkpt>
      <trkpt lat="48.38396" lon="-3.48503">
        <ele>179</ele>
        <time>2015-04-07T14:38:02.1Z</time>
      </trkpt>
      <trkpt lat="48.38401" lon="-3.48505">
        <ele>179</ele>
        <time>2015-04-07T14:38:07.1Z</time>
      </trkpt>
      <trkpt lat="48.38408" lon="-3.48506">
        <ele>179</ele>
        <time>2015-04-07T14:38:13.1Z</time>
      </trkpt>
      <trkpt lat="48.38411" lon="-3.48506">
        <ele>179</ele>
        <time>2015-04-07T14:38:19.1Z</time>
      </trkpt>
      <trkpt lat="48.38415" lon="-3.48506">
        <ele>179</ele>
        <time>2015-04-07T14:38:25.1Z</time>
      </trkpt>
      <trkpt lat="48.3842" lon="-3.48506">
        <ele>180</ele>
        <time>2015-04-07T14:38:31.1Z</time>
      </trkpt>
      <trkpt lat="48.38424" lon="-3.48505">
        <ele>180</ele>
        <time>2015-04-07T14:38:37.1Z</time>
      </trkpt>
      <trkpt lat="48.38425" lon="-3.48506">
        <ele>180</ele>
        <time>2015-04-07T14:38:42.1Z</time>
      </trkpt>
      <trkpt lat="48.38427" lon="-3.48506">
        <ele>181</ele>
        <time>2015-04-07T14:38:47.1Z</time>
      </trkpt>
      <trkpt lat="48.3843" lon="-3.48506">
        <ele>180</ele>
        <time>2015-04-07T14:38:53.1Z</time>
      </trkpt>
      <trkpt lat="48.38433" lon="-3.48505">
        <ele>180</ele>
        <time>2015-04-07T14:38:59.1Z</time>
      </trkpt>
      <trkpt lat="48.38439" lon="-3.48499">
        <ele>180</ele>
        <time>2015-04-07T14:39:05.1Z</time>
      </trkpt>
      <trkpt lat="48.38444" lon="-3.48493">
        <ele>181</ele>
        <time>2015-04-07T14:39:11.1Z</time>
      </trkpt>
      <trkpt lat="48.38446" lon="-3.48487">
        <ele>181</ele>
        <time>2015-04-07T14:39:16.1Z</time>
      </trkpt>
      <trkpt lat="48.3845" lon="-3.4848">
        <ele>181</ele>
        <time>2015-04-07T14:39:21.1Z</time>
      </trkpt>
      <trkpt lat="48.38454" lon="-3.48473">
        <ele>181</ele>
        <time>2015-04-07T14:39:27.1Z</time>
      </trkpt>
      <trkpt lat="48.38459" lon="-3.4847">
        <ele>181</ele>
        <time>2015-04-07T14:39:32.1Z</time>
      </trkpt>
      <trkpt lat="48.38464" lon="-3.48465">
        <ele>182</ele>
        <time>2015-04-07T14:39:38.1Z</time>
      </trkpt>
      <trkpt lat="48.38468" lon="-3.4846">
        <ele>182</ele>
        <time>2015-04-07T14:39:43.1Z</time>
      </trkpt>
      <trkpt lat="48.38472" lon="-3.48454">
        <ele>182</ele>
        <time>2015-04-07T14:39:48.1Z</time>
      </trkpt>
      <trkpt lat="48.38474" lon="-3.48447">
        <ele>182</ele>
        <time>2015-04-07T14:39:53.1Z</time>
      </trkpt>
      <trkpt lat="48.38478" lon="-3.4844">
        <ele>183</ele>
        <time>2015-04-07T14:39:59.1Z</time>
      </trkpt>
      <trkpt lat="48.38483" lon="-3.48436">
        <ele>183</ele>
        <time>2015-04-07T14:40:04.1Z</time>
      </trkpt>
      <trkpt lat="48.38487" lon="-3.48432">
        <ele>183</ele>
        <time>2015-04-07T14:40:09.1Z</time>
      </trkpt>
      <trkpt lat="48.38491" lon="-3.48428">
        <ele>183</ele>
        <time>2015-04-07T14:40:14.1Z</time>
      </trkpt>
      <trkpt lat="48.38496" lon="-3.48424">
        <ele>183</ele>
        <time>2015-04-07T14:40:19.1Z</time>
      </trkpt>
      <trkpt lat="48.38499" lon="-3.48417">
        <ele>183</ele>
        <time>2015-04-07T14:40:24.1Z</time>
      </trkpt>
      <trkpt lat="48.38501" lon="-3.48411">
        <ele>184</ele>
        <time>2015-04-07T14:40:29.1Z</time>
      </trkpt>
      <trkpt lat="48.38502" lon="-3.48403">
        <ele>184</ele>
        <time>2015-04-07T14:40:35.1Z</time>
      </trkpt>
      <trkpt lat="48.38503" lon="-3.48401">
        <ele>183</ele>
        <time>2015-04-07T14:40:41.1Z</time>
      </trkpt>
      <trkpt lat="48.38503" lon="-3.484">
        <ele>183</ele>
        <time>2015-04-07T14:40:47.1Z</time>
      </trkpt>
      <trkpt lat="48.38484" lon="-3.48434">
        <ele>185</ele>
        <time>2015-04-07T14:40:52.1Z</time>
      </trkpt>
      <trkpt lat="48.3848" lon="-3.48442">
        <ele>185</ele>
        <time>2015-04-07T14:40:58.1Z</time>
      </trkpt>
      <trkpt lat="48.38476" lon="-3.48449">
        <ele>185</ele>
        <time>2015-04-07T14:41:03.1Z</time>
      </trkpt>
      <trkpt lat="48.38475" lon="-3.48463">
        <ele>185</ele>
        <time>2015-04-07T14:41:09.1Z</time>
      </trkpt>
      <trkpt lat="48.38476" lon="-3.48473">
        <ele>184</ele>
        <time>2015-04-07T14:41:15.1Z</time>
      </trkpt>
      <trkpt lat="48.3848" lon="-3.4848">
        <ele>184</ele>
        <time>2015-04-07T14:41:20.1Z</time>
      </trkpt>
      <trkpt lat="48.38485" lon="-3.48488">
        <ele>184</ele>
        <time>2015-04-07T14:41:26.1Z</time>
      </trkpt>
      <trkpt lat="48.38489" lon="-3.48496">
        <ele>184</ele>
        <time>2015-04-07T14:41:31.1Z</time>
      </trkpt>
      <trkpt lat="48.38494" lon="-3.48506">
        <ele>185</ele>
        <time>2015-04-07T14:41:37.1Z</time>
      </trkpt>
      <trkpt lat="48.38499" lon="-3.4851">
        <ele>187</ele>
        <time>2015-04-07T14:41:42.1Z</time>
      </trkpt>
      <trkpt lat="48.38504" lon="-3.48512">
        <ele>186</ele>
        <time>2015-04-07T14:41:47.1Z</time>
      </trkpt>
      <trkpt lat="48.38511" lon="-3.48514">
        <ele>186</ele>
        <time>2015-04-07T14:41:53.1Z</time>
      </trkpt>
      <trkpt lat="48.38516" lon="-3.48516">
        <ele>185</ele>
        <time>2015-04-07T14:41:58.1Z</time>
      </trkpt>
      <trkpt lat="48.38522" lon="-3.48517">
        <ele>186</ele>
        <time>2015-04-07T14:42:04.1Z</time>
      </trkpt>
      <trkpt lat="48.38524" lon="-3.4852">
        <ele>186</ele>
        <time>2015-04-07T14:42:10.1Z</time>
      </trkpt>
      <trkpt lat="48.38528" lon="-3.48524">
        <ele>186</ele>
        <time>2015-04-07T14:42:15.1Z</time>
      </trkpt>
      <trkpt lat="48.38532" lon="-3.48529">
        <ele>185</ele>
        <time>2015-04-07T14:42:21.1Z</time>
      </trkpt>
      <trkpt lat="48.38536" lon="-3.48533">
        <ele>185</ele>
        <time>2015-04-07T14:42:26.1Z</time>
      </trkpt>
      <trkpt lat="48.3854" lon="-3.48537">
        <ele>185</ele>
        <time>2015-04-07T14:42:32.1Z</time>
      </trkpt>
      <trkpt lat="48.38542" lon="-3.4854">
        <ele>185</ele>
        <time>2015-04-07T14:42:37.1Z</time>
      </trkpt>
      <trkpt lat="48.38543" lon="-3.48542">
        <ele>185</ele>
        <time>2015-04-07T14:42:43.1Z</time>
      </trkpt>
      <trkpt lat="48.38547" lon="-3.4855">
        <ele>185</ele>
        <time>2015-04-07T14:42:49.1Z</time>
      </trkpt>
      <trkpt lat="48.3855" lon="-3.48556">
        <ele>185</ele>
        <time>2015-04-07T14:42:54.1Z</time>
      </trkpt>
      <trkpt lat="48.38555" lon="-3.48562">
        <ele>185</ele>
        <time>2015-04-07T14:43:00.1Z</time>
      </trkpt>
      <trkpt lat="48.38559" lon="-3.48566">
        <ele>185</ele>
        <time>2015-04-07T14:43:05.1Z</time>
      </trkpt>
      <trkpt lat="48.38565" lon="-3.48572">
        <ele>185</ele>
        <time>2015-04-07T14:43:11.1Z</time>
      </trkpt>
      <trkpt lat="48.38567" lon="-3.48574">
        <ele>185</ele>
        <time>2015-04-07T14:43:17.1Z</time>
      </trkpt>
      <trkpt lat="48.38567" lon="-3.48573">
        <ele>185</ele>
        <time>2015-04-07T14:43:24.1Z</time>
      </trkpt>
      <trkpt lat="48.38564" lon="-3.48571">
        <ele>185</ele>
        <time>2015-04-07T14:43:29.1Z</time>
      </trkpt>
      <trkpt lat="48.38559" lon="-3.48567">
        <ele>185</ele>
        <time>2015-04-07T14:43:35.1Z</time>
      </trkpt>
      <trkpt lat="48.38557" lon="-3.48565">
        <ele>185</ele>
        <time>2015-04-07T14:43:40.1Z</time>
      </trkpt>
      <trkpt lat="48.38554" lon="-3.4856">
        <ele>185</ele>
        <time>2015-04-07T14:43:46.1Z</time>
      </trkpt>
      <trkpt lat="48.38552" lon="-3.48556">
        <ele>185</ele>
        <time>2015-04-07T14:43:51.1Z</time>
      </trkpt>
      <trkpt lat="48.38552" lon="-3.48553">
        <ele>185</ele>
        <time>2015-04-07T14:43:56.1Z</time>
      </trkpt>
      <trkpt lat="48.38552" lon="-3.48551">
        <ele>185</ele>
        <time>2015-04-07T14:44:02.1Z</time>
      </trkpt>
      <trkpt lat="48.38552" lon="-3.48551">
        <ele>186</ele>
        <time>2015-04-07T14:44:08.1Z</time>
      </trkpt>
      <trkpt lat="48.38553" lon="-3.48552">
        <ele>186</ele>
        <time>2015-04-07T14:44:14.1Z</time>
      </trkpt>
      <trkpt lat="48.38554" lon="-3.48554">
        <ele>185</ele>
        <time>2015-04-07T14:44:19.1Z</time>
      </trkpt>
      <trkpt lat="48.38557" lon="-3.48559">
        <ele>185</ele>
        <time>2015-04-07T14:44:25.1Z</time>
      </trkpt>
      <trkpt lat="48.38561" lon="-3.48564">
        <ele>185</ele>
        <time>2015-04-07T14:44:30.1Z</time>
      </trkpt>
      <trkpt lat="48.38565" lon="-3.48569">
        <ele>185</ele>
        <time>2015-04-07T14:44:35.1Z</time>
      </trkpt>
      <trkpt lat="48.3857" lon="-3.48575">
        <ele>185</ele>
        <time>2015-04-07T14:44:40.1Z</time>
      </trkpt>
      <trkpt lat="48.38575" lon="-3.4858">
        <ele>184</ele>
        <time>2015-04-07T14:44:45.1Z</time>
      </trkpt>
      <trkpt lat="48.3858" lon="-3.48586">
        <ele>184</ele>
        <time>2015-04-07T14:44:51.1Z</time>
      </trkpt>
      <trkpt lat="48.38583" lon="-3.48591">
        <ele>185</ele>
        <time>2015-04-07T14:44:56.1Z</time>
      </trkpt>
      <trkpt lat="48.38584" lon="-3.48593">
        <ele>184</ele>
        <time>2015-04-07T14:45:02.1Z</time>
      </trkpt>
      <trkpt lat="48.38584" lon="-3.48592">
        <ele>184</ele>
        <time>2015-04-07T14:45:07.1Z</time>
      </trkpt>
      <trkpt lat="48.3858" lon="-3.48588">
        <ele>184</ele>
        <time>2015-04-07T14:45:12.1Z</time>
      </trkpt>
      <trkpt lat="48.38575" lon="-3.48582">
        <ele>184</ele>
        <time>2015-04-07T14:45:18.1Z</time>
      </trkpt>
      <trkpt lat="48.38572" lon="-3.48578">
        <ele>185</ele>
        <time>2015-04-07T14:45:24.1Z</time>
      </trkpt>
      <trkpt lat="48.3857" lon="-3.48578">
        <ele>186</ele>
        <time>2015-04-07T14:45:30.1Z</time>
      </trkpt>
      <trkpt lat="48.38567" lon="-3.48574">
        <ele>185</ele>
        <time>2015-04-07T14:45:35.1Z</time>
      </trkpt>
      <trkpt lat="48.38561" lon="-3.48568">
        <ele>185</ele>
        <time>2015-04-07T14:45:41.1Z</time>
      </trkpt>
      <trkpt lat="48.38555" lon="-3.48561">
        <ele>185</ele>
        <time>2015-04-07T14:45:47.1Z</time>
      </trkpt>
      <trkpt lat="48.38552" lon="-3.48555">
        <ele>185</ele>
        <time>2015-04-07T14:45:52.1Z</time>
      </trkpt>
      <trkpt lat="48.38549" lon="-3.48549">
        <ele>185</ele>
        <time>2015-04-07T14:45:57.1Z</time>
      </trkpt>
      <trkpt lat="48.38545" lon="-3.48539">
        <ele>185</ele>
        <time>2015-04-07T14:46:03.1Z</time>
      </trkpt>
      <trkpt lat="48.3854" lon="-3.48532">
        <ele>185</ele>
        <time>2015-04-07T14:46:08.1Z</time>
      </trkpt>
      <trkpt lat="48.38535" lon="-3.48522">
        <ele>185</ele>
        <time>2015-04-07T14:46:14.1Z</time>
      </trkpt>
      <trkpt lat="48.3853" lon="-3.48517">
        <ele>186</ele>
        <time>2015-04-07T14:46:19.1Z</time>
      </trkpt>
      <trkpt lat="48.38524" lon="-3.48513">
        <ele>186</ele>
        <time>2015-04-07T14:46:24.1Z</time>
      </trkpt>
      <trkpt lat="48.38517" lon="-3.4851">
        <ele>186</ele>
        <time>2015-04-07T14:46:30.1Z</time>
      </trkpt>
      <trkpt lat="48.38512" lon="-3.48507">
        <ele>185</ele>
        <time>2015-04-07T14:46:35.1Z</time>
      </trkpt>
      <trkpt lat="48.38507" lon="-3.48516">
        <ele>186</ele>
        <time>2015-04-07T14:46:41.1Z</time>
      </trkpt>
      <trkpt lat="48.38505" lon="-3.48525">
        <ele>185</ele>
        <time>2015-04-07T14:46:46.1Z</time>
      </trkpt>
      <trkpt lat="48.38503" lon="-3.48535">
        <ele>185</ele>
        <time>2015-04-07T14:46:51.1Z</time>
      </trkpt>
      <trkpt lat="48.38501" lon="-3.48545">
        <ele>185</ele>
        <time>2015-04-07T14:46:57.1Z</time>
      </trkpt>
      <trkpt lat="48.38499" lon="-3.48555">
        <ele>184</ele>
        <time>2015-04-07T14:47:02.1Z</time>
      </trkpt>
      <trkpt lat="48.38499" lon="-3.48565">
        <ele>184</ele>
        <time>2015-04-07T14:47:07.1Z</time>
      </trkpt>
      <trkpt lat="48.38499" lon="-3.48576">
        <ele>184</ele>
        <time>2015-04-07T14:47:13.1Z</time>
      </trkpt>
      <trkpt lat="48.38499" lon="-3.48587">
        <ele>183</ele>
        <time>2015-04-07T14:47:18.1Z</time>
      </trkpt>
      <trkpt lat="48.38501" lon="-3.48598">
        <ele>182</ele>
        <time>2015-04-07T14:47:24.1Z</time>
      </trkpt>
      <trkpt lat="48.38502" lon="-3.48608">
        <ele>182</ele>
        <time>2015-04-07T14:47:29.1Z</time>
      </trkpt>
      <trkpt lat="48.38504" lon="-3.48617">
        <ele>182</ele>
        <time>2015-04-07T14:47:34.1Z</time>
      </trkpt>
      <trkpt lat="48.38507" lon="-3.48627">
        <ele>183</ele>
        <time>2015-04-07T14:47:40.1Z</time>
      </trkpt>
      <trkpt lat="48.38509" lon="-3.48637">
        <ele>183</ele>
        <time>2015-04-07T14:47:45.1Z</time>
      </trkpt>
      <trkpt lat="48.38512" lon="-3.48646">
        <ele>183</ele>
        <time>2015-04-07T14:47:50.1Z</time>
      </trkpt>
      <trkpt lat="48.38514" lon="-3.48658">
        <ele>182</ele>
        <time>2015-04-07T14:47:56.1Z</time>
      </trkpt>
      <trkpt lat="48.38517" lon="-3.48667">
        <ele>182</ele>
        <time>2015-04-07T14:48:01.1Z</time>
      </trkpt>
      <trkpt lat="48.3852" lon="-3.48677">
        <ele>183</ele>
        <time>2015-04-07T14:48:07.1Z</time>
      </trkpt>
      <trkpt lat="48.38523" lon="-3.48685">
        <ele>182</ele>
        <time>2015-04-07T14:48:12.1Z</time>
      </trkpt>
      <trkpt lat="48.38526" lon="-3.48693">
        <ele>181</ele>
        <time>2015-04-07T14:48:17.1Z</time>
      </trkpt>
      <trkpt lat="48.3853" lon="-3.48703">
        <ele>181</ele>
        <time>2015-04-07T14:48:23.1Z</time>
      </trkpt>
      <trkpt lat="48.38533" lon="-3.48712">
        <ele>181</ele>
        <time>2015-04-07T14:48:28.1Z</time>
      </trkpt>
      <trkpt lat="48.38536" lon="-3.48721">
        <ele>180</ele>
        <time>2015-04-07T14:48:34.1Z</time>
      </trkpt>
      <trkpt lat="48.38539" lon="-3.48729">
        <ele>180</ele>
        <time>2015-04-07T14:48:39.1Z</time>
      </trkpt>
      <trkpt lat="48.38542" lon="-3.48737">
        <ele>181</ele>
        <time>2015-04-07T14:48:44.1Z</time>
      </trkpt>
      <trkpt lat="48.38545" lon="-3.48748">
        <ele>181</ele>
        <time>2015-04-07T14:48:50.1Z</time>
      </trkpt>
      <trkpt lat="48.38548" lon="-3.48756">
        <ele>180</ele>
        <time>2015-04-07T14:48:55.1Z</time>
      </trkpt>
      <trkpt lat="48.38551" lon="-3.48764">
        <ele>180</ele>
        <time>2015-04-07T14:49:00.1Z</time>
      </trkpt>
      <trkpt lat="48.38555" lon="-3.48774">
        <ele>180</ele>
        <time>2015-04-07T14:49:06.1Z</time>
      </trkpt>
      <trkpt lat="48.38559" lon="-3.48783">
        <ele>179</ele>
        <time>2015-04-07T14:49:12.1Z</time>
      </trkpt>
      <trkpt lat="48.38562" lon="-3.48791">
        <ele>178</ele>
        <time>2015-04-07T14:49:17.1Z</time>
      </trkpt>
      <trkpt lat="48.38565" lon="-3.488">
        <ele>177</ele>
        <time>2015-04-07T14:49:23.1Z</time>
      </trkpt>
      <trkpt lat="48.38567" lon="-3.48809">
        <ele>176</ele>
        <time>2015-04-07T14:49:28.1Z</time>
      </trkpt>
      <trkpt lat="48.38569" lon="-3.48818">
        <ele>176</ele>
        <time>2015-04-07T14:49:34.1Z</time>
      </trkpt>
      <trkpt lat="48.38571" lon="-3.48826">
        <ele>176</ele>
        <time>2015-04-07T14:49:39.1Z</time>
      </trkpt>
      <trkpt lat="48.38573" lon="-3.48837">
        <ele>176</ele>
        <time>2015-04-07T14:49:45.1Z</time>
      </trkpt>
      <trkpt lat="48.38575" lon="-3.48846">
        <ele>176</ele>
        <time>2015-04-07T14:49:50.1Z</time>
      </trkpt>
      <trkpt lat="48.38577" lon="-3.48854">
        <ele>176</ele>
        <time>2015-04-07T14:49:55.1Z</time>
      </trkpt>
      <trkpt lat="48.38577" lon="-3.48866">
        <ele>175</ele>
        <time>2015-04-07T14:50:01.1Z</time>
      </trkpt>
      <trkpt lat="48.38576" lon="-3.48875">
        <ele>175</ele>
        <time>2015-04-07T14:50:06.1Z</time>
      </trkpt>
      <trkpt lat="48.38575" lon="-3.48885">
        <ele>174</ele>
        <time>2015-04-07T14:50:11.1Z</time>
      </trkpt>
      <trkpt lat="48.38573" lon="-3.48896">
        <ele>173</ele>
        <time>2015-04-07T14:50:17.1Z</time>
      </trkpt>
      <trkpt lat="48.3857" lon="-3.48905">
        <ele>173</ele>
        <time>2015-04-07T14:50:22.1Z</time>
      </trkpt>
      <trkpt lat="48.38566" lon="-3.48916">
        <ele>172</ele>
        <time>2015-04-07T14:50:28.1Z</time>
      </trkpt>
      <trkpt lat="48.38564" lon="-3.48924">
        <ele>172</ele>
        <time>2015-04-07T14:50:33.1Z</time>
      </trkpt>
      <trkpt lat="48.38562" lon="-3.48932">
        <ele>171</ele>
        <time>2015-04-07T14:50:38.1Z</time>
      </trkpt>
      <trkpt lat="48.38558" lon="-3.48943">
        <ele>170</ele>
        <time>2015-04-07T14:50:44.1Z</time>
      </trkpt>
      <trkpt lat="48.38554" lon="-3.48952">
        <ele>170</ele>
        <time>2015-04-07T14:50:49.1Z</time>
      </trkpt>
      <trkpt lat="48.38551" lon="-3.4896">
        <ele>170</ele>
        <time>2015-04-07T14:50:54.1Z</time>
      </trkpt>
      <trkpt lat="48.38549" lon="-3.48969">
        <ele>169</ele>
        <time>2015-04-07T14:51:00.1Z</time>
      </trkpt>
      <trkpt lat="48.38548" lon="-3.48976">
        <ele>169</ele>
        <time>2015-04-07T14:51:05.1Z</time>
      </trkpt>
      <trkpt lat="48.38545" lon="-3.48986">
        <ele>168</ele>
        <time>2015-04-07T14:51:11.1Z</time>
      </trkpt>
      <trkpt lat="48.38543" lon="-3.48993">
        <ele>168</ele>
        <time>2015-04-07T14:51:16.1Z</time>
      </trkpt>
      <trkpt lat="48.38541" lon="-3.49003">
        <ele>167</ele>
        <time>2015-04-07T14:51:22.1Z</time>
      </trkpt>
      <trkpt lat="48.38539" lon="-3.49011">
        <ele>167</ele>
        <time>2015-04-07T14:51:27.1Z</time>
      </trkpt>
      <trkpt lat="48.38537" lon="-3.49019">
        <ele>167</ele>
        <time>2015-04-07T14:51:32.1Z</time>
      </trkpt>
      <trkpt lat="48.38534" lon="-3.49029">
        <ele>166</ele>
        <time>2015-04-07T14:51:38.1Z</time>
      </trkpt>
      <trkpt lat="48.38532" lon="-3.49039">
        <ele>166</ele>
        <time>2015-04-07T14:51:44.1Z</time>
      </trkpt>
      <trkpt lat="48.3853" lon="-3.4905">
        <ele>166</ele>
        <time>2015-04-07T14:51:50.1Z</time>
      </trkpt>
      <trkpt lat="48.38528" lon="-3.49059">
        <ele>165</ele>
        <time>2015-04-07T14:51:55.1Z</time>
      </trkpt>
      <trkpt lat="48.38527" lon="-3.49069">
        <ele>165</ele>
        <time>2015-04-07T14:52:01.1Z</time>
      </trkpt>
      <trkpt lat="48.38525" lon="-3.49078">
        <ele>165</ele>
        <time>2015-04-07T14:52:06.1Z</time>
      </trkpt>
      <trkpt lat="48.38524" lon="-3.49087">
        <ele>165</ele>
        <time>2015-04-07T14:52:11.1Z</time>
      </trkpt>
      <trkpt lat="48.38523" lon="-3.49098">
        <ele>164</ele>
        <time>2015-04-07T14:52:17.1Z</time>
      </trkpt>
      <trkpt lat="48.38522" lon="-3.49109">
        <ele>164</ele>
        <time>2015-04-07T14:52:23.1Z</time>
      </trkpt>
      <trkpt lat="48.38521" lon="-3.4912">
        <ele>163</ele>
        <time>2015-04-07T14:52:29.1Z</time>
      </trkpt>
      <trkpt lat="48.38521" lon="-3.49129">
        <ele>163</ele>
        <time>2015-04-07T14:52:34.1Z</time>
      </trkpt>
      <trkpt lat="48.3852" lon="-3.49138">
        <ele>163</ele>
        <time>2015-04-07T14:52:39.1Z</time>
      </trkpt>
      <trkpt lat="48.3852" lon="-3.49148">
        <ele>163</ele>
        <time>2015-04-07T14:52:44.1Z</time>
      </trkpt>
      <trkpt lat="48.38518" lon="-3.49159">
        <ele>163</ele>
        <time>2015-04-07T14:52:50.1Z</time>
      </trkpt>
      <trkpt lat="48.38517" lon="-3.4917">
        <ele>164</ele>
        <time>2015-04-07T14:52:56.1Z</time>
      </trkpt>
      <trkpt lat="48.38517" lon="-3.49182">
        <ele>164</ele>
        <time>2015-04-07T14:53:02.1Z</time>
      </trkpt>
      <trkpt lat="48.38516" lon="-3.49194">
        <ele>163</ele>
        <time>2015-04-07T14:53:08.1Z</time>
      </trkpt>
      <trkpt lat="48.38515" lon="-3.49204">
        <ele>163</ele>
        <time>2015-04-07T14:53:13.1Z</time>
      </trkpt>
      <trkpt lat="48.38515" lon="-3.49216">
        <ele>163</ele>
        <time>2015-04-07T14:53:19.1Z</time>
      </trkpt>
      <trkpt lat="48.38515" lon="-3.49225">
        <ele>164</ele>
        <time>2015-04-07T14:53:24.1Z</time>
      </trkpt>
      <trkpt lat="48.38514" lon="-3.49236">
        <ele>163</ele>
        <time>2015-04-07T14:53:30.1Z</time>
      </trkpt>
      <trkpt lat="48.38514" lon="-3.49245">
        <ele>163</ele>
        <time>2015-04-07T14:53:35.1Z</time>
      </trkpt>
      <trkpt lat="48.38514" lon="-3.49256">
        <ele>163</ele>
        <time>2015-04-07T14:53:41.1Z</time>
      </trkpt>
      <trkpt lat="48.38513" lon="-3.49267">
        <ele>163</ele>
        <time>2015-04-07T14:53:47.1Z</time>
      </trkpt>
      <trkpt lat="48.38512" lon="-3.49277">
        <ele>163</ele>
        <time>2015-04-07T14:53:53.1Z</time>
      </trkpt>
      <trkpt lat="48.38512" lon="-3.49286">
        <ele>163</ele>
        <time>2015-04-07T14:53:58.1Z</time>
      </trkpt>
      <trkpt lat="48.38511" lon="-3.49297">
        <ele>163</ele>
        <time>2015-04-07T14:54:04.1Z</time>
      </trkpt>
      <trkpt lat="48.38509" lon="-3.49305">
        <ele>163</ele>
        <time>2015-04-07T14:54:09.1Z</time>
      </trkpt>
      <trkpt lat="48.38507" lon="-3.49315">
        <ele>162</ele>
        <time>2015-04-07T14:54:15.1Z</time>
      </trkpt>
      <trkpt lat="48.38506" lon="-3.49323">
        <ele>162</ele>
        <time>2015-04-07T14:54:20.1Z</time>
      </trkpt>
      <trkpt lat="48.38504" lon="-3.49333">
        <ele>162</ele>
        <time>2015-04-07T14:54:26.1Z</time>
      </trkpt>
      <trkpt lat="48.38502" lon="-3.49343">
        <ele>162</ele>
        <time>2015-04-07T14:54:32.1Z</time>
      </trkpt>
      <trkpt lat="48.385" lon="-3.4935">
        <ele>162</ele>
        <time>2015-04-07T14:54:37.1Z</time>
      </trkpt>
      <trkpt lat="48.38497" lon="-3.4936">
        <ele>162</ele>
        <time>2015-04-07T14:54:43.1Z</time>
      </trkpt>
      <trkpt lat="48.38494" lon="-3.4937">
        <ele>161</ele>
        <time>2015-04-07T14:54:49.1Z</time>
      </trkpt>
      <trkpt lat="48.38492" lon="-3.4938">
        <ele>160</ele>
        <time>2015-04-07T14:54:55.1Z</time>
      </trkpt>
      <trkpt lat="48.3849" lon="-3.49389">
        <ele>160</ele>
        <time>2015-04-07T14:55:00.1Z</time>
      </trkpt>
      <trkpt lat="48.38488" lon="-3.49398">
        <ele>159</ele>
        <time>2015-04-07T14:55:06.1Z</time>
      </trkpt>
      <trkpt lat="48.38486" lon="-3.49406">
        <ele>159</ele>
        <time>2015-04-07T14:55:11.1Z</time>
      </trkpt>
      <trkpt lat="48.38484" lon="-3.49414">
        <ele>159</ele>
        <time>2015-04-07T14:55:16.1Z</time>
      </trkpt>
      <trkpt lat="48.38482" lon="-3.49422">
        <ele>159</ele>
        <time>2015-04-07T14:55:21.1Z</time>
      </trkpt>
      <trkpt lat="48.3848" lon="-3.49431">
        <ele>158</ele>
        <time>2015-04-07T14:55:27.1Z</time>
      </trkpt>
      <trkpt lat="48.38478" lon="-3.49439">
        <ele>158</ele>
        <time>2015-04-07T14:55:32.1Z</time>
      </trkpt>
      <trkpt lat="48.38476" lon="-3.49447">
        <ele>157</ele>
        <time>2015-04-07T14:55:37.1Z</time>
      </trkpt>
      <trkpt lat="48.38474" lon="-3.49457">
        <ele>157</ele>
        <time>2015-04-07T14:55:43.1Z</time>
      </trkpt>
      <trkpt lat="48.38471" lon="-3.49467">
        <ele>157</ele>
        <time>2015-04-07T14:55:49.1Z</time>
      </trkpt>
      <trkpt lat="48.38469" lon="-3.49477">
        <ele>156</ele>
        <time>2015-04-07T14:55:55.1Z</time>
      </trkpt>
      <trkpt lat="48.38467" lon="-3.49486">
        <ele>155</ele>
        <time>2015-04-07T14:56:00.1Z</time>
      </trkpt>
      <trkpt lat="48.38466" lon="-3.49495">
        <ele>155</ele>
        <time>2015-04-07T14:56:05.1Z</time>
      </trkpt>
      <trkpt lat="48.38464" lon="-3.49505">
        <ele>155</ele>
        <time>2015-04-07T14:56:11.1Z</time>
      </trkpt>
      <trkpt lat="48.38464" lon="-3.49516">
        <ele>155</ele>
        <time>2015-04-07T14:56:17.1Z</time>
      </trkpt>
      <trkpt lat="48.38463" lon="-3.49525">
        <ele>154</ele>
        <time>2015-04-07T14:56:22.1Z</time>
      </trkpt>
      <trkpt lat="48.38463" lon="-3.49534">
        <ele>153</ele>
        <time>2015-04-07T14:56:27.1Z</time>
      </trkpt>
      <trkpt lat="48.38463" lon="-3.49543">
        <ele>153</ele>
        <time>2015-04-07T14:56:32.1Z</time>
      </trkpt>
      <trkpt lat="48.38464" lon="-3.49555">
        <ele>152</ele>
        <time>2015-04-07T14:56:38.1Z</time>
      </trkpt>
      <trkpt lat="48.38464" lon="-3.49563">
        <ele>152</ele>
        <time>2015-04-07T14:56:43.1Z</time>
      </trkpt>
      <trkpt lat="48.38465" lon="-3.49573">
        <ele>151</ele>
        <time>2015-04-07T14:56:49.1Z</time>
      </trkpt>
      <trkpt lat="48.38466" lon="-3.49581">
        <ele>151</ele>
        <time>2015-04-07T14:56:55.1Z</time>
      </trkpt>
      <trkpt lat="48.38467" lon="-3.49588">
        <ele>151</ele>
        <time>2015-04-07T14:57:00.1Z</time>
      </trkpt>
      <trkpt lat="48.38469" lon="-3.49598">
        <ele>150</ele>
        <time>2015-04-07T14:57:06.1Z</time>
      </trkpt>
      <trkpt lat="48.38472" lon="-3.49607">
        <ele>150</ele>
        <time>2015-04-07T14:57:11.1Z</time>
      </trkpt>
      <trkpt lat="48.38474" lon="-3.49617">
        <ele>149</ele>
        <time>2015-04-07T14:57:17.1Z</time>
      </trkpt>
      <trkpt lat="48.38476" lon="-3.49627">
        <ele>149</ele>
        <time>2015-04-07T14:57:23.1Z</time>
      </trkpt>
      <trkpt lat="48.38479" lon="-3.49637">
        <ele>148</ele>
        <time>2015-04-07T14:57:29.1Z</time>
      </trkpt>
      <trkpt lat="48.38482" lon="-3.49646">
        <ele>148</ele>
        <time>2015-04-07T14:57:35.1Z</time>
      </trkpt>
      <trkpt lat="48.38483" lon="-3.49654">
        <ele>148</ele>
        <time>2015-04-07T14:57:40.1Z</time>
      </trkpt>
      <trkpt lat="48.38485" lon="-3.49664">
        <ele>148</ele>
        <time>2015-04-07T14:57:46.1Z</time>
      </trkpt>
      <trkpt lat="48.38488" lon="-3.49676">
        <ele>148</ele>
        <time>2015-04-07T14:57:52.1Z</time>
      </trkpt>
      <trkpt lat="48.38489" lon="-3.49685">
        <ele>148</ele>
        <time>2015-04-07T14:57:57.1Z</time>
      </trkpt>
      <trkpt lat="48.38491" lon="-3.49695">
        <ele>148</ele>
        <time>2015-04-07T14:58:02.1Z</time>
      </trkpt>
      <trkpt lat="48.38493" lon="-3.49704">
        <ele>149</ele>
        <time>2015-04-07T14:58:07.1Z</time>
      </trkpt>
      <trkpt lat="48.38496" lon="-3.49711">
        <ele>149</ele>
        <time>2015-04-07T14:58:12.1Z</time>
      </trkpt>
      <trkpt lat="48.38498" lon="-3.4972">
        <ele>150</ele>
        <time>2015-04-07T14:58:18.1Z</time>
      </trkpt>
      <trkpt lat="48.38502" lon="-3.49729">
        <ele>150</ele>
        <time>2015-04-07T14:58:24.1Z</time>
      </trkpt>
      <trkpt lat="48.38505" lon="-3.49738">
        <ele>150</ele>
        <time>2015-04-07T14:58:30.1Z</time>
      </trkpt>
      <trkpt lat="48.38507" lon="-3.49745">
        <ele>151</ele>
        <time>2015-04-07T14:58:35.1Z</time>
      </trkpt>
      <trkpt lat="48.3851" lon="-3.49751">
        <ele>151</ele>
        <time>2015-04-07T14:58:40.1Z</time>
      </trkpt>
      <trkpt lat="48.38513" lon="-3.4976">
        <ele>151</ele>
        <time>2015-04-07T14:58:46.1Z</time>
      </trkpt>
      <trkpt lat="48.38516" lon="-3.49768">
        <ele>152</ele>
        <time>2015-04-07T14:58:52.1Z</time>
      </trkpt>
      <trkpt lat="48.38519" lon="-3.49776">
        <ele>152</ele>
        <time>2015-04-07T14:58:58.1Z</time>
      </trkpt>
      <trkpt lat="48.38522" lon="-3.49783">
        <ele>152</ele>
        <time>2015-04-07T14:59:04.1Z</time>
      </trkpt>
      <trkpt lat="48.38524" lon="-3.4979">
        <ele>152</ele>
        <time>2015-04-07T14:59:09.1Z</time>
      </trkpt>
      <trkpt lat="48.38526" lon="-3.49798">
        <ele>152</ele>
        <time>2015-04-07T14:59:15.1Z</time>
      </trkpt>
      <trkpt lat="48.38528" lon="-3.49804">
        <ele>153</ele>
        <time>2015-04-07T14:59:20.1Z</time>
      </trkpt>
      <trkpt lat="48.3853" lon="-3.49811">
        <ele>153</ele>
        <time>2015-04-07T14:59:25.1Z</time>
      </trkpt>
      <trkpt lat="48.38533" lon="-3.49819">
        <ele>153</ele>
        <time>2015-04-07T14:59:31.1Z</time>
      </trkpt>
      <trkpt lat="48.38535" lon="-3.49826">
        <ele>153</ele>
        <time>2015-04-07T14:59:36.1Z</time>
      </trkpt>
      <trkpt lat="48.38535" lon="-3.49827">
        <ele>154</ele>
        <time>2015-04-07T14:59:42.1Z</time>
      </trkpt>
      <trkpt lat="48.38535" lon="-3.49827">
        <ele>154</ele>
        <time>2015-04-07T14:59:47.1Z</time>
      </trkpt>
      <trkpt lat="48.38537" lon="-3.49833">
        <ele>154</ele>
        <time>2015-04-07T14:59:53.1Z</time>
      </trkpt>
      <trkpt lat="48.38539" lon="-3.4984">
        <ele>155</ele>
        <time>2015-04-07T14:59:58.1Z</time>
      </trkpt>
      <trkpt lat="48.38541" lon="-3.49848">
        <ele>156</ele>
        <time>2015-04-07T15:00:04.1Z</time>
      </trkpt>
      <trkpt lat="48.38544" lon="-3.49857">
        <ele>156</ele>
        <time>2015-04-07T15:00:10.1Z</time>
      </trkpt>
      <trkpt lat="48.38546" lon="-3.49864">
        <ele>156</ele>
        <time>2015-04-07T15:00:15.1Z</time>
      </trkpt>
      <trkpt lat="48.38548" lon="-3.49873">
        <ele>157</ele>
        <time>2015-04-07T15:00:21.1Z</time>
      </trkpt>
      <trkpt lat="48.38551" lon="-3.49881">
        <ele>157</ele>
        <time>2015-04-07T15:00:27.1Z</time>
      </trkpt>
      <trkpt lat="48.38553" lon="-3.49888">
        <ele>157</ele>
        <time>2015-04-07T15:00:32.1Z</time>
      </trkpt>
      <trkpt lat="48.38555" lon="-3.49895">
        <ele>157</ele>
        <time>2015-04-07T15:00:37.1Z</time>
      </trkpt>
      <trkpt lat="48.38558" lon="-3.49902">
        <ele>158</ele>
        <time>2015-04-07T15:00:42.1Z</time>
      </trkpt>
      <trkpt lat="48.3856" lon="-3.49909">
        <ele>158</ele>
        <time>2015-04-07T15:00:47.1Z</time>
      </trkpt>
      <trkpt lat="48.38563" lon="-3.49917">
        <ele>159</ele>
        <time>2015-04-07T15:00:53.1Z</time>
      </trkpt>
      <trkpt lat="48.38565" lon="-3.49924">
        <ele>159</ele>
        <time>2015-04-07T15:00:58.1Z</time>
      </trkpt>
      <trkpt lat="48.38567" lon="-3.49932">
        <ele>159</ele>
        <time>2015-04-07T15:01:04.1Z</time>
      </trkpt>
      <trkpt lat="48.38568" lon="-3.49939">
        <ele>160</ele>
        <time>2015-04-07T15:01:09.1Z</time>
      </trkpt>
      <trkpt lat="48.3857" lon="-3.49945">
        <ele>160</ele>
        <time>2015-04-07T15:01:14.1Z</time>
      </trkpt>
      <trkpt lat="48.38572" lon="-3.49952">
        <ele>161</ele>
        <time>2015-04-07T15:01:19.1Z</time>
      </trkpt>
      <trkpt lat="48.38573" lon="-3.49959">
        <ele>160</ele>
        <time>2015-04-07T15:01:24.1Z</time>
      </trkpt>
      <trkpt lat="48.38575" lon="-3.49967">
        <ele>161</ele>
        <time>2015-04-07T15:01:30.1Z</time>
      </trkpt>
      <trkpt lat="48.38576" lon="-3.49974">
        <ele>162</ele>
        <time>2015-04-07T15:01:35.1Z</time>
      </trkpt>
      <trkpt lat="48.38578" lon="-3.49981">
        <ele>162</ele>
        <time>2015-04-07T15:01:40.1Z</time>
      </trkpt>
      <trkpt lat="48.38578" lon="-3.49988">
        <ele>162</ele>
        <time>2015-04-07T15:01:45.1Z</time>
      </trkpt>
      <trkpt lat="48.3858" lon="-3.49997">
        <ele>163</ele>
        <time>2015-04-07T15:01:51.1Z</time>
      </trkpt>
      <trkpt lat="48.3858" lon="-3.50004">
        <ele>163</ele>
        <time>2015-04-07T15:01:56.1Z</time>
      </trkpt>
      <trkpt lat="48.38581" lon="-3.50012">
        <ele>163</ele>
        <time>2015-04-07T15:02:02.1Z</time>
      </trkpt>
      <trkpt lat="48.38582" lon="-3.5002">
        <ele>164</ele>
        <time>2015-04-07T15:02:07.1Z</time>
      </trkpt>
      <trkpt lat="48.38582" lon="-3.50028">
        <ele>164</ele>
        <time>2015-04-07T15:02:13.1Z</time>
      </trkpt>
      <trkpt lat="48.38583" lon="-3.50037">
        <ele>165</ele>
        <time>2015-04-07T15:02:19.1Z</time>
      </trkpt>
      <trkpt lat="48.38583" lon="-3.50046">
        <ele>165</ele>
        <time>2015-04-07T15:02:25.1Z</time>
      </trkpt>
      <trkpt lat="48.38582" lon="-3.50054">
        <ele>165</ele>
        <time>2015-04-07T15:02:30.1Z</time>
      </trkpt>
      <trkpt lat="48.38583" lon="-3.50062">
        <ele>166</ele>
        <time>2015-04-07T15:02:36.1Z</time>
      </trkpt>
      <trkpt lat="48.38582" lon="-3.50071">
        <ele>166</ele>
        <time>2015-04-07T15:02:42.1Z</time>
      </trkpt>
      <trkpt lat="48.38582" lon="-3.5008">
        <ele>166</ele>
        <time>2015-04-07T15:02:48.1Z</time>
      </trkpt>
      <trkpt lat="48.38581" lon="-3.50089">
        <ele>166</ele>
        <time>2015-04-07T15:02:54.1Z</time>
      </trkpt>
      <trkpt lat="48.38581" lon="-3.50098">
        <ele>166</ele>
        <time>2015-04-07T15:03:00.1Z</time>
      </trkpt>
      <trkpt lat="48.38581" lon="-3.50105">
        <ele>167</ele>
        <time>2015-04-07T15:03:05.1Z</time>
      </trkpt>
      <trkpt lat="48.3858" lon="-3.50113">
        <ele>168</ele>
        <time>2015-04-07T15:03:10.1Z</time>
      </trkpt>
      <trkpt lat="48.3858" lon="-3.50119">
        <ele>167</ele>
        <time>2015-04-07T15:03:15.1Z</time>
      </trkpt>
      <trkpt lat="48.3858" lon="-3.50129">
        <ele>167</ele>
        <time>2015-04-07T15:03:21.1Z</time>
      </trkpt>
      <trkpt lat="48.3858" lon="-3.50137">
        <ele>168</ele>
        <time>2015-04-07T15:03:27.1Z</time>
      </trkpt>
      <trkpt lat="48.3858" lon="-3.50139">
        <ele>168</ele>
        <time>2015-04-07T15:03:33.1Z</time>
      </trkpt>
      <trkpt lat="48.38579" lon="-3.50139">
        <ele>168</ele>
        <time>2015-04-07T15:03:39.1Z</time>
      </trkpt>
      <trkpt lat="48.38579" lon="-3.5014">
        <ele>168</ele>
        <time>2015-04-07T15:03:46.1Z</time>
      </trkpt>
      <trkpt lat="48.38578" lon="-3.50142">
        <ele>168</ele>
        <time>2015-04-07T15:03:52.1Z</time>
      </trkpt>
      <trkpt lat="48.38579" lon="-3.50141">
        <ele>169</ele>
        <time>2015-04-07T15:03:57.1Z</time>
      </trkpt>
      <trkpt lat="48.38578" lon="-3.50142">
        <ele>169</ele>
        <time>2015-04-07T15:04:03.1Z</time>
      </trkpt>
      <trkpt lat="48.38578" lon="-3.50146">
        <ele>168</ele>
        <time>2015-04-07T15:04:08.1Z</time>
      </trkpt>
      <trkpt lat="48.38578" lon="-3.50152">
        <ele>168</ele>
        <time>2015-04-07T15:04:13.1Z</time>
      </trkpt>
      <trkpt lat="48.38577" lon="-3.5016">
        <ele>168</ele>
        <time>2015-04-07T15:04:19.1Z</time>
      </trkpt>
      <trkpt lat="48.38577" lon="-3.50167">
        <ele>169</ele>
        <time>2015-04-07T15:04:25.1Z</time>
      </trkpt>
      <trkpt lat="48.38578" lon="-3.50171">
        <ele>170</ele>
        <time>2015-04-07T15:04:33.1Z</time>
      </trkpt>
      <trkpt lat="48.38577" lon="-3.50177">
        <ele>169</ele>
        <time>2015-04-07T15:04:38.1Z</time>
      </trkpt>
      <trkpt lat="48.38577" lon="-3.50185">
        <ele>169</ele>
        <time>2015-04-07T15:04:44.1Z</time>
      </trkpt>
      <trkpt lat="48.38578" lon="-3.50193">
        <ele>169</ele>
        <time>2015-04-07T15:04:49.1Z</time>
      </trkpt>
      <trkpt lat="48.38577" lon="-3.50203">
        <ele>169</ele>
        <time>2015-04-07T15:04:55.1Z</time>
      </trkpt>
      <trkpt lat="48.38576" lon="-3.50211">
        <ele>169</ele>
        <time>2015-04-07T15:05:00.1Z</time>
      </trkpt>
      <trkpt lat="48.38576" lon="-3.50221">
        <ele>170</ele>
        <time>2015-04-07T15:05:06.1Z</time>
      </trkpt>
      <trkpt lat="48.38576" lon="-3.50231">
        <ele>170</ele>
        <time>2015-04-07T15:05:12.1Z</time>
      </trkpt>
      <trkpt lat="48.38575" lon="-3.50242">
        <ele>170</ele>
        <time>2015-04-07T15:05:18.1Z</time>
      </trkpt>
      <trkpt lat="48.38574" lon="-3.5025">
        <ele>170</ele>
        <time>2015-04-07T15:05:23.1Z</time>
      </trkpt>
      <trkpt lat="48.38573" lon="-3.50258">
        <ele>170</ele>
        <time>2015-04-07T15:05:28.1Z</time>
      </trkpt>
      <trkpt lat="48.38572" lon="-3.50267">
        <ele>171</ele>
        <time>2015-04-07T15:05:34.1Z</time>
      </trkpt>
      <trkpt lat="48.3857" lon="-3.50275">
        <ele>170</ele>
        <time>2015-04-07T15:05:39.1Z</time>
      </trkpt>
      <trkpt lat="48.38567" lon="-3.50284">
        <ele>170</ele>
        <time>2015-04-07T15:05:45.1Z</time>
      </trkpt>
      <trkpt lat="48.38563" lon="-3.50292">
        <ele>170</ele>
        <time>2015-04-07T15:05:51.1Z</time>
      </trkpt>
      <trkpt lat="48.38558" lon="-3.50299">
        <ele>169</ele>
        <time>2015-04-07T15:05:57.1Z</time>
      </trkpt>
      <trkpt lat="48.38553" lon="-3.50302">
        <ele>168</ele>
        <time>2015-04-07T15:06:02.1Z</time>
      </trkpt>
      <trkpt lat="48.38548" lon="-3.50303">
        <ele>168</ele>
        <time>2015-04-07T15:06:08.1Z</time>
      </trkpt>
      <trkpt lat="48.38547" lon="-3.50303">
        <ele>168</ele>
        <time>2015-04-07T15:06:13.1Z</time>
      </trkpt>
      <trkpt lat="48.38547" lon="-3.50302">
        <ele>168</ele>
        <time>2015-04-07T15:06:18.1Z</time>
      </trkpt>
      <trkpt lat="48.38543" lon="-3.50303">
        <ele>169</ele>
        <time>2015-04-07T15:06:24.1Z</time>
      </trkpt>
      <trkpt lat="48.38538" lon="-3.50304">
        <ele>169</ele>
        <time>2015-04-07T15:06:29.1Z</time>
      </trkpt>
      <trkpt lat="48.38532" lon="-3.50305">
        <ele>168</ele>
        <time>2015-04-07T15:06:35.1Z</time>
      </trkpt>
      <trkpt lat="48.38527" lon="-3.50305">
        <ele>168</ele>
        <time>2015-04-07T15:06:40.1Z</time>
      </trkpt>
      <trkpt lat="48.38521" lon="-3.50307">
        <ele>168</ele>
        <time>2015-04-07T15:06:46.1Z</time>
      </trkpt>
      <trkpt lat="48.38514" lon="-3.50309">
        <ele>167</ele>
        <time>2015-04-07T15:06:52.1Z</time>
      </trkpt>
      <trkpt lat="48.38509" lon="-3.50311">
        <ele>167</ele>
        <time>2015-04-07T15:06:57.1Z</time>
      </trkpt>
      <trkpt lat="48.38503" lon="-3.50312">
        <ele>167</ele>
        <time>2015-04-07T15:07:02.1Z</time>
      </trkpt>
      <trkpt lat="48.38496" lon="-3.50314">
        <ele>166</ele>
        <time>2015-04-07T15:07:08.1Z</time>
      </trkpt>
      <trkpt lat="48.38491" lon="-3.50316">
        <ele>166</ele>
        <time>2015-04-07T15:07:13.1Z</time>
      </trkpt>
      <trkpt lat="48.38484" lon="-3.50318">
        <ele>166</ele>
        <time>2015-04-07T15:07:19.1Z</time>
      </trkpt>
      <trkpt lat="48.38478" lon="-3.5032">
        <ele>166</ele>
        <time>2015-04-07T15:07:24.1Z</time>
      </trkpt>
      <trkpt lat="48.38472" lon="-3.50322">
        <ele>165</ele>
        <time>2015-04-07T15:07:30.1Z</time>
      </trkpt>
      <trkpt lat="48.38467" lon="-3.50324">
        <ele>166</ele>
        <time>2015-04-07T15:07:35.1Z</time>
      </trkpt>
      <trkpt lat="48.38461" lon="-3.50325">
        <ele>165</ele>
        <time>2015-04-07T15:07:41.1Z</time>
      </trkpt>
      <trkpt lat="48.38455" lon="-3.50325">
        <ele>164</ele>
        <time>2015-04-07T15:07:46.1Z</time>
      </trkpt>
      <trkpt lat="48.38449" lon="-3.50326">
        <ele>164</ele>
        <time>2015-04-07T15:07:52.1Z</time>
      </trkpt>
      <trkpt lat="48.38445" lon="-3.50327">
        <ele>164</ele>
        <time>2015-04-07T15:07:57.1Z</time>
      </trkpt>
      <trkpt lat="48.38438" lon="-3.50328">
        <ele>163</ele>
        <time>2015-04-07T15:08:03.1Z</time>
      </trkpt>
      <trkpt lat="48.38432" lon="-3.5033">
        <ele>163</ele>
        <time>2015-04-07T15:08:09.1Z</time>
      </trkpt>
      <trkpt lat="48.38425" lon="-3.50333">
        <ele>163</ele>
        <time>2015-04-07T15:08:15.1Z</time>
      </trkpt>
      <trkpt lat="48.3842" lon="-3.50336">
        <ele>162</ele>
        <time>2015-04-07T15:08:20.1Z</time>
      </trkpt>
      <trkpt lat="48.38414" lon="-3.50342">
        <ele>161</ele>
        <time>2015-04-07T15:08:26.1Z</time>
      </trkpt>
      <trkpt lat="48.38409" lon="-3.50347">
        <ele>160</ele>
        <time>2015-04-07T15:08:31.1Z</time>
      </trkpt>
      <trkpt lat="48.38404" lon="-3.50356">
        <ele>160</ele>
        <time>2015-04-07T15:08:37.1Z</time>
      </trkpt>
      <trkpt lat="48.384" lon="-3.50363">
        <ele>160</ele>
        <time>2015-04-07T15:08:42.1Z</time>
      </trkpt>
      <trkpt lat="48.38397" lon="-3.50372">
        <ele>159</ele>
        <time>2015-04-07T15:08:47.1Z</time>
      </trkpt>
      <trkpt lat="48.38395" lon="-3.50382">
        <ele>160</ele>
        <time>2015-04-07T15:08:53.1Z</time>
      </trkpt>
      <trkpt lat="48.38394" lon="-3.5039">
        <ele>160</ele>
        <time>2015-04-07T15:08:58.1Z</time>
      </trkpt>
      <trkpt lat="48.38393" lon="-3.50402">
        <ele>159</ele>
        <time>2015-04-07T15:09:04.1Z</time>
      </trkpt>
      <trkpt lat="48.38393" lon="-3.50411">
        <ele>159</ele>
        <time>2015-04-07T15:09:09.1Z</time>
      </trkpt>
      <trkpt lat="48.38393" lon="-3.50421">
        <ele>159</ele>
        <time>2015-04-07T15:09:14.1Z</time>
      </trkpt>
      <trkpt lat="48.38393" lon="-3.50431">
        <ele>159</ele>
        <time>2015-04-07T15:09:20.1Z</time>
      </trkpt>
      <trkpt lat="48.38392" lon="-3.5044">
        <ele>159</ele>
        <time>2015-04-07T15:09:25.1Z</time>
      </trkpt>
      <trkpt lat="48.38392" lon="-3.50449">
        <ele>159</ele>
        <time>2015-04-07T15:09:30.1Z</time>
      </trkpt>
      <trkpt lat="48.38393" lon="-3.50457">
        <ele>159</ele>
        <time>2015-04-07T15:09:35.1Z</time>
      </trkpt>
      <trkpt lat="48.38393" lon="-3.50465">
        <ele>159</ele>
        <time>2015-04-07T15:09:40.1Z</time>
      </trkpt>
      <trkpt lat="48.38393" lon="-3.50476">
        <ele>159</ele>
        <time>2015-04-07T15:09:46.1Z</time>
      </trkpt>
      <trkpt lat="48.38393" lon="-3.50485">
        <ele>159</ele>
        <time>2015-04-07T15:09:51.1Z</time>
      </trkpt>
      <trkpt lat="48.38393" lon="-3.50495">
        <ele>160</ele>
        <time>2015-04-07T15:09:57.1Z</time>
      </trkpt>
      <trkpt lat="48.38393" lon="-3.50506">
        <ele>159</ele>
        <time>2015-04-07T15:10:03.1Z</time>
      </trkpt>
      <trkpt lat="48.38394" lon="-3.50514">
        <ele>159</ele>
        <time>2015-04-07T15:10:08.1Z</time>
      </trkpt>
      <trkpt lat="48.38393" lon="-3.50524">
        <ele>160</ele>
        <time>2015-04-07T15:10:14.1Z</time>
      </trkpt>
      <trkpt lat="48.38394" lon="-3.50533">
        <ele>160</ele>
        <time>2015-04-07T15:10:19.1Z</time>
      </trkpt>
      <trkpt lat="48.38394" lon="-3.50541">
        <ele>160</ele>
        <time>2015-04-07T15:10:24.1Z</time>
      </trkpt>
      <trkpt lat="48.38395" lon="-3.50549">
        <ele>160</ele>
        <time>2015-04-07T15:10:29.1Z</time>
      </trkpt>
      <trkpt lat="48.38396" lon="-3.50557">
        <ele>160</ele>
        <time>2015-04-07T15:10:35.1Z</time>
      </trkpt>
      <trkpt lat="48.38396" lon="-3.50567">
        <ele>160</ele>
        <time>2015-04-07T15:10:41.1Z</time>
      </trkpt>
      <trkpt lat="48.38397" lon="-3.50577">
        <ele>160</ele>
        <time>2015-04-07T15:10:47.1Z</time>
      </trkpt>
      <trkpt lat="48.38398" lon="-3.50587">
        <ele>161</ele>
        <time>2015-04-07T15:10:53.1Z</time>
      </trkpt>
      <trkpt lat="48.38399" lon="-3.50593">
        <ele>161</ele>
        <time>2015-04-07T15:10:58.1Z</time>
      </trkpt>
      <trkpt lat="48.38401" lon="-3.50599">
        <ele>162</ele>
        <time>2015-04-07T15:11:03.1Z</time>
      </trkpt>
      <trkpt lat="48.38402" lon="-3.50603">
        <ele>161</ele>
        <time>2015-04-07T15:11:10.1Z</time>
      </trkpt>
      <trkpt lat="48.38401" lon="-3.50604">
        <ele>161</ele>
        <time>2015-04-07T15:11:16.1Z</time>
      </trkpt>
      <trkpt lat="48.38402" lon="-3.50611">
        <ele>161</ele>
        <time>2015-04-07T15:11:21.1Z</time>
      </trkpt>
      <trkpt lat="48.38404" lon="-3.50618">
        <ele>162</ele>
        <time>2015-04-07T15:11:26.1Z</time>
      </trkpt>
      <trkpt lat="48.38406" lon="-3.50626">
        <ele>161</ele>
        <time>2015-04-07T15:11:32.1Z</time>
      </trkpt>
      <trkpt lat="48.38408" lon="-3.50633">
        <ele>161</ele>
        <time>2015-04-07T15:11:37.1Z</time>
      </trkpt>
      <trkpt lat="48.38411" lon="-3.50642">
        <ele>162</ele>
        <time>2015-04-07T15:11:43.1Z</time>
      </trkpt>
      <trkpt lat="48.38412" lon="-3.50652">
        <ele>163</ele>
        <time>2015-04-07T15:11:49.1Z</time>
      </trkpt>
      <trkpt lat="48.38413" lon="-3.5066">
        <ele>164</ele>
        <time>2015-04-07T15:11:54.1Z</time>
      </trkpt>
      <trkpt lat="48.38416" lon="-3.50668">
        <ele>164</ele>
        <time>2015-04-07T15:12:00.1Z</time>
      </trkpt>
      <trkpt lat="48.38418" lon="-3.50675">
        <ele>164</ele>
        <time>2015-04-07T15:12:05.1Z</time>
      </trkpt>
      <trkpt lat="48.38419" lon="-3.50683">
        <ele>163</ele>
        <time>2015-04-07T15:12:11.1Z</time>
      </trkpt>
      <trkpt lat="48.38419" lon="-3.50687">
        <ele>164</ele>
        <time>2015-04-07T15:12:16.1Z</time>
      </trkpt>
      <trkpt lat="48.38422" lon="-3.50694">
        <ele>163</ele>
        <time>2015-04-07T15:12:22.1Z</time>
      </trkpt>
      <trkpt lat="48.38425" lon="-3.50701">
        <ele>164</ele>
        <time>2015-04-07T15:12:27.1Z</time>
      </trkpt>
      <trkpt lat="48.38428" lon="-3.50708">
        <ele>165</ele>
        <time>2015-04-07T15:12:33.1Z</time>
      </trkpt>
      <trkpt lat="48.3843" lon="-3.50715">
        <ele>166</ele>
        <time>2015-04-07T15:12:38.1Z</time>
      </trkpt>
      <trkpt lat="48.38432" lon="-3.50724">
        <ele>166</ele>
        <time>2015-04-07T15:12:44.1Z</time>
      </trkpt>
      <trkpt lat="48.38435" lon="-3.50732">
        <ele>167</ele>
        <time>2015-04-07T15:12:49.1Z</time>
      </trkpt>
      <trkpt lat="48.38438" lon="-3.50743">
        <ele>167</ele>
        <time>2015-04-07T15:12:55.1Z</time>
      </trkpt>
      <trkpt lat="48.38441" lon="-3.50752">
        <ele>167</ele>
        <time>2015-04-07T15:13:01.1Z</time>
      </trkpt>
      <trkpt lat="48.38445" lon="-3.50762">
        <ele>167</ele>
        <time>2015-04-07T15:13:07.1Z</time>
      </trkpt>
      <trkpt lat="48.38447" lon="-3.5077">
        <ele>167</ele>
        <time>2015-04-07T15:13:12.1Z</time>
      </trkpt>
      <trkpt lat="48.3845" lon="-3.50778">
        <ele>167</ele>
        <time>2015-04-07T15:13:18.1Z</time>
      </trkpt>
      <trkpt lat="48.38452" lon="-3.50785">
        <ele>167</ele>
        <time>2015-04-07T15:13:23.1Z</time>
      </trkpt>
      <trkpt lat="48.38454" lon="-3.50792">
        <ele>167</ele>
        <time>2015-04-07T15:13:28.1Z</time>
      </trkpt>
      <trkpt lat="48.38456" lon="-3.508">
        <ele>167</ele>
        <time>2015-04-07T15:13:34.1Z</time>
      </trkpt>
      <trkpt lat="48.38457" lon="-3.50803">
        <ele>167</ele>
        <time>2015-04-07T15:13:39.1Z</time>
      </trkpt>
      <trkpt lat="48.38459" lon="-3.5081">
        <ele>167</ele>
        <time>2015-04-07T15:13:45.1Z</time>
      </trkpt>
      <trkpt lat="48.3846" lon="-3.50817">
        <ele>167</ele>
        <time>2015-04-07T15:13:50.1Z</time>
      </trkpt>
      <trkpt lat="48.38462" lon="-3.50826">
        <ele>166</ele>
        <time>2015-04-07T15:13:56.1Z</time>
      </trkpt>
      <trkpt lat="48.38462" lon="-3.50829">
        <ele>166</ele>
        <time>2015-04-07T15:14:02.1Z</time>
      </trkpt>
      <trkpt lat="48.38464" lon="-3.50835">
        <ele>166</ele>
        <time>2015-04-07T15:14:08.1Z</time>
      </trkpt>
      <trkpt lat="48.38465" lon="-3.50843">
        <ele>166</ele>
        <time>2015-04-07T15:14:14.1Z</time>
      </trkpt>
      <trkpt lat="48.38465" lon="-3.5085">
        <ele>166</ele>
        <time>2015-04-07T15:14:19.1Z</time>
      </trkpt>
      <trkpt lat="48.38466" lon="-3.50858">
        <ele>166</ele>
        <time>2015-04-07T15:14:24.1Z</time>
      </trkpt>
      <trkpt lat="48.38467" lon="-3.50867">
        <ele>166</ele>
        <time>2015-04-07T15:14:30.1Z</time>
      </trkpt>
      <trkpt lat="48.38467" lon="-3.50875">
        <ele>166</ele>
        <time>2015-04-07T15:14:35.1Z</time>
      </trkpt>
      <trkpt lat="48.38468" lon="-3.50884">
        <ele>166</ele>
        <time>2015-04-07T15:14:40.1Z</time>
      </trkpt>
      <trkpt lat="48.38469" lon="-3.50894">
        <ele>166</ele>
        <time>2015-04-07T15:14:46.1Z</time>
      </trkpt>
      <trkpt lat="48.3847" lon="-3.50902">
        <ele>165</ele>
        <time>2015-04-07T15:14:51.1Z</time>
      </trkpt>
      <trkpt lat="48.38471" lon="-3.50911">
        <ele>165</ele>
        <time>2015-04-07T15:14:57.1Z</time>
      </trkpt>
      <trkpt lat="48.38472" lon="-3.50919">
        <ele>164</ele>
        <time>2015-04-07T15:15:02.1Z</time>
      </trkpt>
      <trkpt lat="48.38473" lon="-3.50929">
        <ele>164</ele>
        <time>2015-04-07T15:15:08.1Z</time>
      </trkpt>
      <trkpt lat="48.38474" lon="-3.50937">
        <ele>164</ele>
        <time>2015-04-07T15:15:13.1Z</time>
      </trkpt>
      <trkpt lat="48.38474" lon="-3.50947">
        <ele>164</ele>
        <time>2015-04-07T15:15:19.1Z</time>
      </trkpt>
      <trkpt lat="48.38475" lon="-3.50957">
        <ele>163</ele>
        <time>2015-04-07T15:15:25.1Z</time>
      </trkpt>
      <trkpt lat="48.38474" lon="-3.50966">
        <ele>163</ele>
        <time>2015-04-07T15:15:31.1Z</time>
      </trkpt>
      <trkpt lat="48.38476" lon="-3.50973">
        <ele>162</ele>
        <time>2015-04-07T15:15:36.1Z</time>
      </trkpt>
      <trkpt lat="48.38476" lon="-3.5098">
        <ele>162</ele>
        <time>2015-04-07T15:15:41.1Z</time>
      </trkpt>
      <trkpt lat="48.38476" lon="-3.5098">
        <ele>162</ele>
        <time>2015-04-07T15:15:47.1Z</time>
      </trkpt>
      <trkpt lat="48.38476" lon="-3.50981">
        <ele>162</ele>
        <time>2015-04-07T15:15:53.1Z</time>
      </trkpt>
      <trkpt lat="48.38477" lon="-3.50981">
        <ele>163</ele>
        <time>2015-04-07T15:15:59.1Z</time>
      </trkpt>
      <trkpt lat="48.38477" lon="-3.5098">
        <ele>163</ele>
        <time>2015-04-07T15:16:04.1Z</time>
      </trkpt>
      <trkpt lat="48.38477" lon="-3.50981">
        <ele>163</ele>
        <time>2015-04-07T15:16:10.1Z</time>
      </trkpt>
      <trkpt lat="48.38477" lon="-3.50983">
        <ele>162</ele>
        <time>2015-04-07T15:16:15.1Z</time>
      </trkpt>
      <trkpt lat="48.38478" lon="-3.50993">
        <ele>162</ele>
        <time>2015-04-07T15:16:21.1Z</time>
      </trkpt>
      <trkpt lat="48.3848" lon="-3.51">
        <ele>161</ele>
        <time>2015-04-07T15:16:26.1Z</time>
      </trkpt>
      <trkpt lat="48.38482" lon="-3.5101">
        <ele>162</ele>
        <time>2015-04-07T15:16:32.1Z</time>
      </trkpt>
      <trkpt lat="48.38484" lon="-3.51017">
        <ele>161</ele>
        <time>2015-04-07T15:16:37.1Z</time>
      </trkpt>
      <trkpt lat="48.38486" lon="-3.51027">
        <ele>160</ele>
        <time>2015-04-07T15:16:43.1Z</time>
      </trkpt>
      <trkpt lat="48.38489" lon="-3.51036">
        <ele>161</ele>
        <time>2015-04-07T15:16:49.1Z</time>
      </trkpt>
      <trkpt lat="48.38492" lon="-3.51045">
        <ele>160</ele>
        <time>2015-04-07T15:16:55.1Z</time>
      </trkpt>
      <trkpt lat="48.38494" lon="-3.51053">
        <ele>159</ele>
        <time>2015-04-07T15:17:00.1Z</time>
      </trkpt>
      <trkpt lat="48.38498" lon="-3.51061">
        <ele>160</ele>
        <time>2015-04-07T15:17:05.1Z</time>
      </trkpt>
      <trkpt lat="48.38501" lon="-3.51069">
        <ele>160</ele>
        <time>2015-04-07T15:17:11.1Z</time>
      </trkpt>
      <trkpt lat="48.38505" lon="-3.51079">
        <ele>158</ele>
        <time>2015-04-07T15:17:17.1Z</time>
      </trkpt>
      <trkpt lat="48.38509" lon="-3.51088">
        <ele>157</ele>
        <time>2015-04-07T15:17:23.1Z</time>
      </trkpt>
      <trkpt lat="48.38512" lon="-3.51098">
        <ele>158</ele>
        <time>2015-04-07T15:17:29.1Z</time>
      </trkpt>
      <trkpt lat="48.38515" lon="-3.51108">
        <ele>157</ele>
        <time>2015-04-07T15:17:35.1Z</time>
      </trkpt>
      <trkpt lat="48.38516" lon="-3.51118">
        <ele>155</ele>
        <time>2015-04-07T15:17:41.1Z</time>
      </trkpt>
      <trkpt lat="48.38516" lon="-3.51128">
        <ele>155</ele>
        <time>2015-04-07T15:17:46.1Z</time>
      </trkpt>
      <trkpt lat="48.38515" lon="-3.51137">
        <ele>154</ele>
        <time>2015-04-07T15:17:52.1Z</time>
      </trkpt>
      <trkpt lat="48.38514" lon="-3.51145">
        <ele>154</ele>
        <time>2015-04-07T15:17:57.1Z</time>
      </trkpt>
      <trkpt lat="48.38514" lon="-3.51152">
        <ele>153</ele>
        <time>2015-04-07T15:18:02.1Z</time>
      </trkpt>
      <trkpt lat="48.38512" lon="-3.51161">
        <ele>152</ele>
        <time>2015-04-07T15:18:08.1Z</time>
      </trkpt>
      <trkpt lat="48.38508" lon="-3.51168">
        <ele>152</ele>
        <time>2015-04-07T15:18:13.1Z</time>
      </trkpt>
      <trkpt lat="48.38504" lon="-3.51176">
        <ele>152</ele>
        <time>2015-04-07T15:18:18.1Z</time>
      </trkpt>
      <trkpt lat="48.385" lon="-3.51186">
        <ele>151</ele>
        <time>2015-04-07T15:18:24.1Z</time>
      </trkpt>
      <trkpt lat="48.38497" lon="-3.51195">
        <ele>151</ele>
        <time>2015-04-07T15:18:29.1Z</time>
      </trkpt>
      <trkpt lat="48.38494" lon="-3.51203">
        <ele>151</ele>
        <time>2015-04-07T15:18:34.1Z</time>
      </trkpt>
      <trkpt lat="48.3849" lon="-3.51213">
        <ele>151</ele>
        <time>2015-04-07T15:18:40.1Z</time>
      </trkpt>
      <trkpt lat="48.38488" lon="-3.51223">
        <ele>151</ele>
        <time>2015-04-07T15:18:46.1Z</time>
      </trkpt>
      <trkpt lat="48.38486" lon="-3.51231">
        <ele>152</ele>
        <time>2015-04-07T15:18:51.1Z</time>
      </trkpt>
      <trkpt lat="48.38484" lon="-3.5124">
        <ele>152</ele>
        <time>2015-04-07T15:18:57.1Z</time>
      </trkpt>
      <trkpt lat="48.38481" lon="-3.51249">
        <ele>152</ele>
        <time>2015-04-07T15:19:02.1Z</time>
      </trkpt>
      <trkpt lat="48.3848" lon="-3.51258">
        <ele>153</ele>
        <time>2015-04-07T15:19:08.1Z</time>
      </trkpt>
      <trkpt lat="48.38478" lon="-3.51264">
        <ele>152</ele>
        <time>2015-04-07T15:19:13.1Z</time>
      </trkpt>
      <trkpt lat="48.38477" lon="-3.5127">
        <ele>153</ele>
        <time>2015-04-07T15:19:19.1Z</time>
      </trkpt>
      <trkpt lat="48.38474" lon="-3.51279">
        <ele>154</ele>
        <time>2015-04-07T15:19:25.1Z</time>
      </trkpt>
      <trkpt lat="48.38472" lon="-3.5129">
        <ele>153</ele>
        <time>2015-04-07T15:19:31.1Z</time>
      </trkpt>
      <trkpt lat="48.38471" lon="-3.51298">
        <ele>154</ele>
        <time>2015-04-07T15:19:36.1Z</time>
      </trkpt>
      <trkpt lat="48.3847" lon="-3.51308">
        <ele>155</ele>
        <time>2015-04-07T15:19:42.1Z</time>
      </trkpt>
      <trkpt lat="48.38469" lon="-3.51318">
        <ele>155</ele>
        <time>2015-04-07T15:19:48.1Z</time>
      </trkpt>
      <trkpt lat="48.38467" lon="-3.51327">
        <ele>155</ele>
        <time>2015-04-07T15:19:54.1Z</time>
      </trkpt>
      <trkpt lat="48.38466" lon="-3.51337">
        <ele>155</ele>
        <time>2015-04-07T15:20:00.1Z</time>
      </trkpt>
      <trkpt lat="48.38465" lon="-3.51347">
        <ele>155</ele>
        <time>2015-04-07T15:20:06.1Z</time>
      </trkpt>
      <trkpt lat="48.38465" lon="-3.51355">
        <ele>155</ele>
        <time>2015-04-07T15:20:11.1Z</time>
      </trkpt>
      <trkpt lat="48.38465" lon="-3.51359">
        <ele>156</ele>
        <time>2015-04-07T15:20:18.1Z</time>
      </trkpt>
      <trkpt lat="48.38464" lon="-3.51368">
        <ele>157</ele>
        <time>2015-04-07T15:20:24.1Z</time>
      </trkpt>
      <trkpt lat="48.38464" lon="-3.51378">
        <ele>157</ele>
        <time>2015-04-07T15:20:30.1Z</time>
      </trkpt>
      <trkpt lat="48.38462" lon="-3.51386">
        <ele>157</ele>
        <time>2015-04-07T15:20:35.1Z</time>
      </trkpt>
      <trkpt lat="48.38461" lon="-3.51394">
        <ele>156</ele>
        <time>2015-04-07T15:20:40.1Z</time>
      </trkpt>
      <trkpt lat="48.3846" lon="-3.51405">
        <ele>156</ele>
        <time>2015-04-07T15:20:46.1Z</time>
      </trkpt>
      <trkpt lat="48.38459" lon="-3.51414">
        <ele>156</ele>
        <time>2015-04-07T15:20:52.1Z</time>
      </trkpt>
      <trkpt lat="48.38459" lon="-3.51423">
        <ele>156</ele>
        <time>2015-04-07T15:20:57.1Z</time>
      </trkpt>
      <trkpt lat="48.38459" lon="-3.51433">
        <ele>157</ele>
        <time>2015-04-07T15:21:03.1Z</time>
      </trkpt>
      <trkpt lat="48.38458" lon="-3.51443">
        <ele>157</ele>
        <time>2015-04-07T15:21:09.1Z</time>
      </trkpt>
      <trkpt lat="48.38457" lon="-3.51454">
        <ele>157</ele>
        <time>2015-04-07T15:21:15.1Z</time>
      </trkpt>
      <trkpt lat="48.38457" lon="-3.51464">
        <ele>157</ele>
        <time>2015-04-07T15:21:21.1Z</time>
      </trkpt>
      <trkpt lat="48.38457" lon="-3.51474">
        <ele>157</ele>
        <time>2015-04-07T15:21:27.1Z</time>
      </trkpt>
      <trkpt lat="48.38456" lon="-3.51482">
        <ele>157</ele>
        <time>2015-04-07T15:21:32.1Z</time>
      </trkpt>
      <trkpt lat="48.38456" lon="-3.51489">
        <ele>157</ele>
        <time>2015-04-07T15:21:38.1Z</time>
      </trkpt>
      <trkpt lat="48.38456" lon="-3.51497">
        <ele>157</ele>
        <time>2015-04-07T15:21:43.1Z</time>
      </trkpt>
      <trkpt lat="48.38456" lon="-3.51507">
        <ele>157</ele>
        <time>2015-04-07T15:21:49.1Z</time>
      </trkpt>
      <trkpt lat="48.38456" lon="-3.51516">
        <ele>157</ele>
        <time>2015-04-07T15:21:55.1Z</time>
      </trkpt>
      <trkpt lat="48.38456" lon="-3.51524">
        <ele>157</ele>
        <time>2015-04-07T15:22:00.1Z</time>
      </trkpt>
      <trkpt lat="48.38457" lon="-3.51532">
        <ele>158</ele>
        <time>2015-04-07T15:22:05.1Z</time>
      </trkpt>
      <trkpt lat="48.38457" lon="-3.51541">
        <ele>158</ele>
        <time>2015-04-07T15:22:11.1Z</time>
      </trkpt>
      <trkpt lat="48.38457" lon="-3.51551">
        <ele>159</ele>
        <time>2015-04-07T15:22:17.1Z</time>
      </trkpt>
      <trkpt lat="48.38457" lon="-3.51558">
        <ele>160</ele>
        <time>2015-04-07T15:22:22.1Z</time>
      </trkpt>
      <trkpt lat="48.38457" lon="-3.51567">
        <ele>160</ele>
        <time>2015-04-07T15:22:28.1Z</time>
      </trkpt>
      <trkpt lat="48.38457" lon="-3.51573">
        <ele>161</ele>
        <time>2015-04-07T15:22:33.1Z</time>
      </trkpt>
      <trkpt lat="48.38457" lon="-3.5158">
        <ele>161</ele>
        <time>2015-04-07T15:22:38.1Z</time>
      </trkpt>
      <trkpt lat="48.38457" lon="-3.51589">
        <ele>160</ele>
        <time>2015-04-07T15:22:44.1Z</time>
      </trkpt>
      <trkpt lat="48.38456" lon="-3.51599">
        <ele>161</ele>
        <time>2015-04-07T15:22:50.1Z</time>
      </trkpt>
      <trkpt lat="48.38457" lon="-3.51605">
        <ele>161</ele>
        <time>2015-04-07T15:22:55.1Z</time>
      </trkpt>
      <trkpt lat="48.38457" lon="-3.51607">
        <ele>162</ele>
        <time>2015-04-07T15:23:01.1Z</time>
      </trkpt>
      <trkpt lat="48.38457" lon="-3.51614">
        <ele>162</ele>
        <time>2015-04-07T15:23:07.1Z</time>
      </trkpt>
      <trkpt lat="48.38457" lon="-3.5162">
        <ele>162</ele>
        <time>2015-04-07T15:23:12.1Z</time>
      </trkpt>
      <trkpt lat="48.38456" lon="-3.51626">
        <ele>162</ele>
        <time>2015-04-07T15:23:17.1Z</time>
      </trkpt>
      <trkpt lat="48.38456" lon="-3.51628">
        <ele>162</ele>
        <time>2015-04-07T15:23:23.1Z</time>
      </trkpt>
      <trkpt lat="48.38456" lon="-3.51635">
        <ele>162</ele>
        <time>2015-04-07T15:23:28.1Z</time>
      </trkpt>
      <trkpt lat="48.38456" lon="-3.51642">
        <ele>162</ele>
        <time>2015-04-07T15:23:33.1Z</time>
      </trkpt>
      <trkpt lat="48.38456" lon="-3.51649">
        <ele>162</ele>
        <time>2015-04-07T15:23:38.1Z</time>
      </trkpt>
      <trkpt lat="48.38455" lon="-3.51658">
        <ele>162</ele>
        <time>2015-04-07T15:23:44.1Z</time>
      </trkpt>
      <trkpt lat="48.38454" lon="-3.51661">
        <ele>162</ele>
        <time>2015-04-07T15:23:49.1Z</time>
      </trkpt>
      <trkpt lat="48.38454" lon="-3.51671">
        <ele>163</ele>
        <time>2015-04-07T15:23:55.1Z</time>
      </trkpt>
      <trkpt lat="48.38453" lon="-3.51678">
        <ele>163</ele>
        <time>2015-04-07T15:24:00.1Z</time>
      </trkpt>
      <trkpt lat="48.3845" lon="-3.51687">
        <ele>164</ele>
        <time>2015-04-07T15:24:06.1Z</time>
      </trkpt>
      <trkpt lat="48.38448" lon="-3.51694">
        <ele>163</ele>
        <time>2015-04-07T15:24:11.1Z</time>
      </trkpt>
      <trkpt lat="48.38446" lon="-3.51702">
        <ele>164</ele>
        <time>2015-04-07T15:24:17.1Z</time>
      </trkpt>
      <trkpt lat="48.38443" lon="-3.51711">
        <ele>165</ele>
        <time>2015-04-07T15:24:23.1Z</time>
      </trkpt>
      <trkpt lat="48.38441" lon="-3.51716">
        <ele>165</ele>
        <time>2015-04-07T15:24:29.1Z</time>
      </trkpt>
      <trkpt lat="48.38441" lon="-3.51718">
        <ele>166</ele>
        <time>2015-04-07T15:24:34.1Z</time>
      </trkpt>
      <trkpt lat="48.38439" lon="-3.51725">
        <ele>166</ele>
        <time>2015-04-07T15:24:40.1Z</time>
      </trkpt>
      <trkpt lat="48.38437" lon="-3.51729">
        <ele>166</ele>
        <time>2015-04-07T15:24:45.1Z</time>
      </trkpt>
      <trkpt lat="48.38435" lon="-3.51734">
        <ele>166</ele>
        <time>2015-04-07T15:24:51.1Z</time>
      </trkpt>
      <trkpt lat="48.38433" lon="-3.51739">
        <ele>166</ele>
        <time>2015-04-07T15:24:56.1Z</time>
      </trkpt>
      <trkpt lat="48.3843" lon="-3.51746">
        <ele>166</ele>
        <time>2015-04-07T15:25:02.1Z</time>
      </trkpt>
      <trkpt lat="48.38427" lon="-3.51752">
        <ele>166</ele>
        <time>2015-04-07T15:25:07.1Z</time>
      </trkpt>
      <trkpt lat="48.38424" lon="-3.51759">
        <ele>166</ele>
        <time>2015-04-07T15:25:13.1Z</time>
      </trkpt>
      <trkpt lat="48.38422" lon="-3.51763">
        <ele>167</ele>
        <time>2015-04-07T15:25:19.1Z</time>
      </trkpt>
      <trkpt lat="48.3842" lon="-3.51766">
        <ele>168</ele>
        <time>2015-04-07T15:25:25.1Z</time>
      </trkpt>
      <trkpt lat="48.38418" lon="-3.51773">
        <ele>168</ele>
        <time>2015-04-07T15:25:31.1Z</time>
      </trkpt>
      <trkpt lat="48.38415" lon="-3.5178">
        <ele>168</ele>
        <time>2015-04-07T15:25:37.1Z</time>
      </trkpt>
      <trkpt lat="48.38413" lon="-3.51786">
        <ele>168</ele>
        <time>2015-04-07T15:25:42.1Z</time>
      </trkpt>
      <trkpt lat="48.38409" lon="-3.51794">
        <ele>168</ele>
        <time>2015-04-07T15:25:48.1Z</time>
      </trkpt>
      <trkpt lat="48.38406" lon="-3.518">
        <ele>168</ele>
        <time>2015-04-07T15:25:53.1Z</time>
      </trkpt>
      <trkpt lat="48.38403" lon="-3.51807">
        <ele>169</ele>
        <time>2015-04-07T15:25:58.1Z</time>
      </trkpt>
      <trkpt lat="48.384" lon="-3.51813">
        <ele>169</ele>
        <time>2015-04-07T15:26:03.1Z</time>
      </trkpt>
      <trkpt lat="48.38397" lon="-3.51819">
        <ele>169</ele>
        <time>2015-04-07T15:26:08.1Z</time>
      </trkpt>
      <trkpt lat="48.38395" lon="-3.51823">
        <ele>170</ele>
        <time>2015-04-07T15:26:16.1Z</time>
      </trkpt>
      <trkpt lat="48.38393" lon="-3.51828">
        <ele>170</ele>
        <time>2015-04-07T15:26:21.1Z</time>
      </trkpt>
      <trkpt lat="48.38389" lon="-3.51835">
        <ele>170</ele>
        <time>2015-04-07T15:26:27.1Z</time>
      </trkpt>
      <trkpt lat="48.38385" lon="-3.51842">
        <ele>170</ele>
        <time>2015-04-07T15:26:32.1Z</time>
      </trkpt>
      <trkpt lat="48.38382" lon="-3.5185">
        <ele>171</ele>
        <time>2015-04-07T15:26:38.1Z</time>
      </trkpt>
      <trkpt lat="48.38378" lon="-3.51857">
        <ele>171</ele>
        <time>2015-04-07T15:26:44.1Z</time>
      </trkpt>
      <trkpt lat="48.38375" lon="-3.51862">
        <ele>172</ele>
        <time>2015-04-07T15:26:49.1Z</time>
      </trkpt>
      <trkpt lat="48.38374" lon="-3.51865">
        <ele>173</ele>
        <time>2015-04-07T15:26:55.1Z</time>
      </trkpt>
      <trkpt lat="48.38373" lon="-3.51866">
        <ele>173</ele>
        <time>2015-04-07T15:27:02.1Z</time>
      </trkpt>
      <trkpt lat="48.38372" lon="-3.51868">
        <ele>173</ele>
        <time>2015-04-07T15:27:08.1Z</time>
      </trkpt>
      <trkpt lat="48.3837" lon="-3.51872">
        <ele>172</ele>
        <time>2015-04-07T15:27:14.1Z</time>
      </trkpt>
      <trkpt lat="48.3837" lon="-3.51872">
        <ele>172</ele>
        <time>2015-04-07T15:27:19.1Z</time>
      </trkpt>
      <trkpt lat="48.3837" lon="-3.51872">
        <ele>173</ele>
        <time>2015-04-07T15:27:25.1Z</time>
      </trkpt>
      <trkpt lat="48.3837" lon="-3.51872">
        <ele>173</ele>
        <time>2015-04-07T15:27:30.1Z</time>
      </trkpt>
      <trkpt lat="48.3837" lon="-3.51872">
        <ele>173</ele>
        <time>2015-04-07T15:27:36.1Z</time>
      </trkpt>
      <trkpt lat="48.38368" lon="-3.51875">
        <ele>173</ele>
        <time>2015-04-07T15:27:41.1Z</time>
      </trkpt>
      <trkpt lat="48.38367" lon="-3.51877">
        <ele>173</ele>
        <time>2015-04-07T15:27:48.1Z</time>
      </trkpt>
      <trkpt lat="48.38367" lon="-3.51877">
        <ele>173</ele>
        <time>2015-04-07T15:27:54.1Z</time>
      </trkpt>
      <trkpt lat="48.38364" lon="-3.51877">
        <ele>172</ele>
        <time>2015-04-07T15:28:00.1Z</time>
      </trkpt>
      <trkpt lat="48.3836" lon="-3.51882">
        <ele>172</ele>
        <time>2015-04-07T15:28:05.1Z</time>
      </trkpt>
      <trkpt lat="48.38354" lon="-3.51887">
        <ele>172</ele>
        <time>2015-04-07T15:28:11.1Z</time>
      </trkpt>
      <trkpt lat="48.38348" lon="-3.51892">
        <ele>173</ele>
        <time>2015-04-07T15:28:17.1Z</time>
      </trkpt>
      <trkpt lat="48.38342" lon="-3.51898">
        <ele>173</ele>
        <time>2015-04-07T15:28:23.1Z</time>
      </trkpt>
      <trkpt lat="48.38335" lon="-3.51904">
        <ele>173</ele>
        <time>2015-04-07T15:28:29.1Z</time>
      </trkpt>
      <trkpt lat="48.3833" lon="-3.51908">
        <ele>173</ele>
        <time>2015-04-07T15:28:34.1Z</time>
      </trkpt>
      <trkpt lat="48.38326" lon="-3.51912">
        <ele>174</ele>
        <time>2015-04-07T15:28:39.1Z</time>
      </trkpt>
      <trkpt lat="48.38319" lon="-3.51917">
        <ele>174</ele>
        <time>2015-04-07T15:28:45.1Z</time>
      </trkpt>
      <trkpt lat="48.38315" lon="-3.51922">
        <ele>174</ele>
        <time>2015-04-07T15:28:50.1Z</time>
      </trkpt>
      <trkpt lat="48.38309" lon="-3.51927">
        <ele>175</ele>
        <time>2015-04-07T15:28:56.1Z</time>
      </trkpt>
      <trkpt lat="48.38304" lon="-3.51933">
        <ele>176</ele>
        <time>2015-04-07T15:29:02.1Z</time>
      </trkpt>
      <trkpt lat="48.38299" lon="-3.51938">
        <ele>176</ele>
        <time>2015-04-07T15:29:07.1Z</time>
      </trkpt>
      <trkpt lat="48.38294" lon="-3.51944">
        <ele>175</ele>
        <time>2015-04-07T15:29:13.1Z</time>
      </trkpt>
      <trkpt lat="48.38289" lon="-3.5195">
        <ele>176</ele>
        <time>2015-04-07T15:29:19.1Z</time>
      </trkpt>
      <trkpt lat="48.38284" lon="-3.51957">
        <ele>175</ele>
        <time>2015-04-07T15:29:25.1Z</time>
      </trkpt>
      <trkpt lat="48.38279" lon="-3.51964">
        <ele>175</ele>
        <time>2015-04-07T15:29:31.1Z</time>
      </trkpt>
      <trkpt lat="48.38275" lon="-3.51969">
        <ele>175</ele>
        <time>2015-04-07T15:29:36.1Z</time>
      </trkpt>
      <trkpt lat="48.38274" lon="-3.51971">
        <ele>175</ele>
        <time>2015-04-07T15:29:41.1Z</time>
      </trkpt>
      <trkpt lat="48.38272" lon="-3.51978">
        <ele>176</ele>
        <time>2015-04-07T15:29:47.1Z</time>
      </trkpt>
      <trkpt lat="48.38268" lon="-3.51984">
        <ele>175</ele>
        <time>2015-04-07T15:29:52.1Z</time>
      </trkpt>
      <trkpt lat="48.38265" lon="-3.51993">
        <ele>175</ele>
        <time>2015-04-07T15:29:58.1Z</time>
      </trkpt>
      <trkpt lat="48.38262" lon="-3.52">
        <ele>174</ele>
        <time>2015-04-07T15:30:03.1Z</time>
      </trkpt>
      <trkpt lat="48.3826" lon="-3.52008">
        <ele>174</ele>
        <time>2015-04-07T15:30:08.1Z</time>
      </trkpt>
      <trkpt lat="48.38258" lon="-3.52017">
        <ele>173</ele>
        <time>2015-04-07T15:30:14.1Z</time>
      </trkpt>
      <trkpt lat="48.38257" lon="-3.52026">
        <ele>173</ele>
        <time>2015-04-07T15:30:20.1Z</time>
      </trkpt>
      <trkpt lat="48.38256" lon="-3.52034">
        <ele>173</ele>
        <time>2015-04-07T15:30:25.1Z</time>
      </trkpt>
      <trkpt lat="48.38256" lon="-3.52042">
        <ele>173</ele>
        <time>2015-04-07T15:30:30.1Z</time>
      </trkpt>
      <trkpt lat="48.38255" lon="-3.52051">
        <ele>172</ele>
        <time>2015-04-07T15:30:36.1Z</time>
      </trkpt>
      <trkpt lat="48.38255" lon="-3.52059">
        <ele>172</ele>
        <time>2015-04-07T15:30:41.1Z</time>
      </trkpt>
      <trkpt lat="48.38255" lon="-3.52068">
        <ele>171</ele>
        <time>2015-04-07T15:30:46.1Z</time>
      </trkpt>
      <trkpt lat="48.38255" lon="-3.52078">
        <ele>171</ele>
        <time>2015-04-07T15:30:52.1Z</time>
      </trkpt>
      <trkpt lat="48.38254" lon="-3.52086">
        <ele>171</ele>
        <time>2015-04-07T15:30:57.1Z</time>
      </trkpt>
      <trkpt lat="48.38253" lon="-3.52095">
        <ele>171</ele>
        <time>2015-04-07T15:31:03.1Z</time>
      </trkpt>
      <trkpt lat="48.38251" lon="-3.52104">
        <ele>171</ele>
        <time>2015-04-07T15:31:09.1Z</time>
      </trkpt>
      <trkpt lat="48.38249" lon="-3.52112">
        <ele>171</ele>
        <time>2015-04-07T15:31:14.1Z</time>
      </trkpt>
      <trkpt lat="48.38245" lon="-3.52119">
        <ele>172</ele>
        <time>2015-04-07T15:31:20.1Z</time>
      </trkpt>
      <trkpt lat="48.38242" lon="-3.52125">
        <ele>171</ele>
        <time>2015-04-07T15:31:25.1Z</time>
      </trkpt>
      <trkpt lat="48.38237" lon="-3.5213">
        <ele>171</ele>
        <time>2015-04-07T15:31:31.1Z</time>
      </trkpt>
      <trkpt lat="48.38231" lon="-3.52133">
        <ele>171</ele>
        <time>2015-04-07T15:31:36.1Z</time>
      </trkpt>
      <trkpt lat="48.38226" lon="-3.52137">
        <ele>171</ele>
        <time>2015-04-07T15:31:41.1Z</time>
      </trkpt>
      <trkpt lat="48.38221" lon="-3.5214">
        <ele>171</ele>
        <time>2015-04-07T15:31:46.1Z</time>
      </trkpt>
      <trkpt lat="48.38216" lon="-3.52142">
        <ele>172</ele>
        <time>2015-04-07T15:31:51.1Z</time>
      </trkpt>
      <trkpt lat="48.3821" lon="-3.52145">
        <ele>172</ele>
        <time>2015-04-07T15:31:56.1Z</time>
      </trkpt>
      <trkpt lat="48.38205" lon="-3.52148">
        <ele>173</ele>
        <time>2015-04-07T15:32:02.1Z</time>
      </trkpt>
      <trkpt lat="48.38204" lon="-3.52149">
        <ele>173</ele>
        <time>2015-04-07T15:32:10.1Z</time>
      </trkpt>
      <trkpt lat="48.382" lon="-3.5215">
        <ele>173</ele>
        <time>2015-04-07T15:32:16.1Z</time>
      </trkpt>
      <trkpt lat="48.38195" lon="-3.52152">
        <ele>173</ele>
        <time>2015-04-07T15:32:21.1Z</time>
      </trkpt>
      <trkpt lat="48.3819" lon="-3.52154">
        <ele>174</ele>
        <time>2015-04-07T15:32:27.1Z</time>
      </trkpt>
      <trkpt lat="48.38185" lon="-3.52156">
        <ele>173</ele>
        <time>2015-04-07T15:32:33.1Z</time>
      </trkpt>
      <trkpt lat="48.3818" lon="-3.52159">
        <ele>173</ele>
        <time>2015-04-07T15:32:38.1Z</time>
      </trkpt>
      <trkpt lat="48.38175" lon="-3.52161">
        <ele>174</ele>
        <time>2015-04-07T15:32:44.1Z</time>
      </trkpt>
      <trkpt lat="48.38169" lon="-3.52164">
        <ele>174</ele>
        <time>2015-04-07T15:32:50.1Z</time>
      </trkpt>
      <trkpt lat="48.38164" lon="-3.52167">
        <ele>175</ele>
        <time>2015-04-07T15:32:56.1Z</time>
      </trkpt>
      <trkpt lat="48.38157" lon="-3.5217">
        <ele>175</ele>
        <time>2015-04-07T15:33:02.1Z</time>
      </trkpt>
      <trkpt lat="48.38152" lon="-3.52173">
        <ele>175</ele>
        <time>2015-04-07T15:33:07.1Z</time>
      </trkpt>
      <trkpt lat="48.38147" lon="-3.52176">
        <ele>176</ele>
        <time>2015-04-07T15:33:13.1Z</time>
      </trkpt>
      <trkpt lat="48.38142" lon="-3.5218">
        <ele>176</ele>
        <time>2015-04-07T15:33:18.1Z</time>
      </trkpt>
      <trkpt lat="48.38138" lon="-3.52184">
        <ele>176</ele>
        <time>2015-04-07T15:33:23.1Z</time>
      </trkpt>
      <trkpt lat="48.38133" lon="-3.52188">
        <ele>176</ele>
        <time>2015-04-07T15:33:29.1Z</time>
      </trkpt>
      <trkpt lat="48.38129" lon="-3.52193">
        <ele>177</ele>
        <time>2015-04-07T15:33:35.1Z</time>
      </trkpt>
      <trkpt lat="48.38126" lon="-3.52197">
        <ele>177</ele>
        <time>2015-04-07T15:33:40.1Z</time>
      </trkpt>
      <trkpt lat="48.38126" lon="-3.52197">
        <ele>178</ele>
        <time>2015-04-07T15:33:45.1Z</time>
      </trkpt>
      <trkpt lat="48.38126" lon="-3.52197">
        <ele>177</ele>
        <time>2015-04-07T15:33:51.1Z</time>
      </trkpt>
      <trkpt lat="48.38126" lon="-3.52197">
        <ele>178</ele>
        <time>2015-04-07T15:33:57.1Z</time>
      </trkpt>
      <trkpt lat="48.38126" lon="-3.52197">
        <ele>178</ele>
        <time>2015-04-07T15:34:07.1Z</time>
      </trkpt>
      <trkpt lat="48.38126" lon="-3.52197">
        <ele>178</ele>
        <time>2015-04-07T15:34:15.1Z</time>
      </trkpt>
      <trkpt lat="48.38125" lon="-3.52198">
        <ele>178</ele>
        <time>2015-04-07T15:34:20.1Z</time>
      </trkpt>
      <trkpt lat="48.38124" lon="-3.52202">
        <ele>177</ele>
        <time>2015-04-07T15:34:26.1Z</time>
      </trkpt>
      <trkpt lat="48.38123" lon="-3.52203">
        <ele>177</ele>
        <time>2015-04-07T15:34:31.1Z</time>
      </trkpt>
      <trkpt lat="48.38123" lon="-3.52203">
        <ele>177</ele>
        <time>2015-04-07T15:34:40.1Z</time>
      </trkpt>
      <trkpt lat="48.3812" lon="-3.52207">
        <ele>178</ele>
        <time>2015-04-07T15:34:46.1Z</time>
      </trkpt>
      <trkpt lat="48.38116" lon="-3.52209">
        <ele>178</ele>
        <time>2015-04-07T15:34:51.1Z</time>
      </trkpt>
      <trkpt lat="48.38113" lon="-3.52214">
        <ele>179</ele>
        <time>2015-04-07T15:34:56.1Z</time>
      </trkpt>
      <trkpt lat="48.3811" lon="-3.52217">
        <ele>179</ele>
        <time>2015-04-07T15:35:01.1Z</time>
      </trkpt>
      <trkpt lat="48.38105" lon="-3.52222">
        <ele>179</ele>
        <time>2015-04-07T15:35:07.1Z</time>
      </trkpt>
      <trkpt lat="48.38101" lon="-3.52225">
        <ele>180</ele>
        <time>2015-04-07T15:35:12.1Z</time>
      </trkpt>
      <trkpt lat="48.38096" lon="-3.52229">
        <ele>181</ele>
        <time>2015-04-07T15:35:18.1Z</time>
      </trkpt>
      <trkpt lat="48.38092" lon="-3.52233">
        <ele>181</ele>
        <time>2015-04-07T15:35:23.1Z</time>
      </trkpt>
      <trkpt lat="48.38087" lon="-3.52237">
        <ele>182</ele>
        <time>2015-04-07T15:35:29.1Z</time>
      </trkpt>
      <trkpt lat="48.38083" lon="-3.5224">
        <ele>182</ele>
        <time>2015-04-07T15:35:34.1Z</time>
      </trkpt>
      <trkpt lat="48.38078" lon="-3.52245">
        <ele>182</ele>
        <time>2015-04-07T15:35:40.1Z</time>
      </trkpt>
      <trkpt lat="48.38073" lon="-3.52246">
        <ele>183</ele>
        <time>2015-04-07T15:35:45.1Z</time>
      </trkpt>
      <trkpt lat="48.38068" lon="-3.52249">
        <ele>183</ele>
        <time>2015-04-07T15:35:51.1Z</time>
      </trkpt>
      <trkpt lat="48.38063" lon="-3.5225">
        <ele>184</ele>
        <time>2015-04-07T15:35:56.1Z</time>
      </trkpt>
      <trkpt lat="48.38058" lon="-3.52251">
        <ele>184</ele>
        <time>2015-04-07T15:36:01.1Z</time>
      </trkpt>
      <trkpt lat="48.38052" lon="-3.52252">
        <ele>184</ele>
        <time>2015-04-07T15:36:07.1Z</time>
      </trkpt>
      <trkpt lat="48.38047" lon="-3.52252">
        <ele>185</ele>
        <time>2015-04-07T15:36:12.1Z</time>
      </trkpt>
      <trkpt lat="48.38042" lon="-3.52253">
        <ele>185</ele>
        <time>2015-04-07T15:36:17.1Z</time>
      </trkpt>
      <trkpt lat="48.38039" lon="-3.52252">
        <ele>185</ele>
        <time>2015-04-07T15:36:23.1Z</time>
      </trkpt>
      <trkpt lat="48.38039" lon="-3.52251">
        <ele>185</ele>
        <time>2015-04-07T15:36:29.1Z</time>
      </trkpt>
      <trkpt lat="48.38036" lon="-3.52249">
        <ele>185</ele>
        <time>2015-04-07T15:36:34.1Z</time>
      </trkpt>
      <trkpt lat="48.38031" lon="-3.5225">
        <ele>186</ele>
        <time>2015-04-07T15:36:40.1Z</time>
      </trkpt>
      <trkpt lat="48.38026" lon="-3.52249">
        <ele>187</ele>
        <time>2015-04-07T15:36:45.1Z</time>
      </trkpt>
      <trkpt lat="48.38021" lon="-3.52248">
        <ele>187</ele>
        <time>2015-04-07T15:36:51.1Z</time>
      </trkpt>
      <trkpt lat="48.38016" lon="-3.52248">
        <ele>187</ele>
        <time>2015-04-07T15:36:57.1Z</time>
      </trkpt>
      <trkpt lat="48.38011" lon="-3.52247">
        <ele>187</ele>
        <time>2015-04-07T15:37:02.1Z</time>
      </trkpt>
      <trkpt lat="48.38008" lon="-3.52247">
        <ele>188</ele>
        <time>2015-04-07T15:37:07.1Z</time>
      </trkpt>
      <trkpt lat="48.38007" lon="-3.52247">
        <ele>188</ele>
        <time>2015-04-07T15:37:13.1Z</time>
      </trkpt>
      <trkpt lat="48.38004" lon="-3.52246">
        <ele>188</ele>
        <time>2015-04-07T15:37:18.1Z</time>
      </trkpt>
      <trkpt lat="48.38" lon="-3.52246">
        <ele>189</ele>
        <time>2015-04-07T15:37:23.1Z</time>
      </trkpt>
      <trkpt lat="48.37996" lon="-3.52244">
        <ele>189</ele>
        <time>2015-04-07T15:37:29.1Z</time>
      </trkpt>
      <trkpt lat="48.37991" lon="-3.52244">
        <ele>189</ele>
        <time>2015-04-07T15:37:34.1Z</time>
      </trkpt>
      <trkpt lat="48.37987" lon="-3.52242">
        <ele>190</ele>
        <time>2015-04-07T15:37:39.1Z</time>
      </trkpt>
      <trkpt lat="48.37982" lon="-3.52242">
        <ele>190</ele>
        <time>2015-04-07T15:37:45.1Z</time>
      </trkpt>
      <trkpt lat="48.37981" lon="-3.52241">
        <ele>191</ele>
        <time>2015-04-07T15:37:51.1Z</time>
      </trkpt>
      <trkpt lat="48.37977" lon="-3.5224">
        <ele>191</ele>
        <time>2015-04-07T15:37:56.1Z</time>
      </trkpt>
      <trkpt lat="48.37972" lon="-3.52238">
        <ele>191</ele>
        <time>2015-04-07T15:38:02.1Z</time>
      </trkpt>
      <trkpt lat="48.37968" lon="-3.52237">
        <ele>191</ele>
        <time>2015-04-07T15:38:07.1Z</time>
      </trkpt>
      <trkpt lat="48.37962" lon="-3.52236">
        <ele>192</ele>
        <time>2015-04-07T15:38:13.1Z</time>
      </trkpt>
      <trkpt lat="48.37958" lon="-3.52234">
        <ele>192</ele>
        <time>2015-04-07T15:38:18.1Z</time>
      </trkpt>
      <trkpt lat="48.37954" lon="-3.52233">
        <ele>193</ele>
        <time>2015-04-07T15:38:23.1Z</time>
      </trkpt>
      <trkpt lat="48.37949" lon="-3.52231">
        <ele>194</ele>
        <time>2015-04-07T15:38:29.1Z</time>
      </trkpt>
      <trkpt lat="48.37944" lon="-3.52231">
        <ele>195</ele>
        <time>2015-04-07T15:38:35.1Z</time>
      </trkpt>
      <trkpt lat="48.37944" lon="-3.5223">
        <ele>195</ele>
        <time>2015-04-07T15:38:41.1Z</time>
      </trkpt>
      <trkpt lat="48.37941" lon="-3.52228">
        <ele>195</ele>
        <time>2015-04-07T15:38:46.1Z</time>
      </trkpt>
      <trkpt lat="48.37937" lon="-3.52228">
        <ele>195</ele>
        <time>2015-04-07T15:38:51.1Z</time>
      </trkpt>
      <trkpt lat="48.37932" lon="-3.52226">
        <ele>196</ele>
        <time>2015-04-07T15:38:57.1Z</time>
      </trkpt>
      <trkpt lat="48.37926" lon="-3.52225">
        <ele>197</ele>
        <time>2015-04-07T15:39:03.1Z</time>
      </trkpt>
      <trkpt lat="48.37922" lon="-3.52226">
        <ele>198</ele>
        <time>2015-04-07T15:39:09.1Z</time>
      </trkpt>
      <trkpt lat="48.37918" lon="-3.52227">
        <ele>199</ele>
        <time>2015-04-07T15:39:15.1Z</time>
      </trkpt>
      <trkpt lat="48.37915" lon="-3.52229">
        <ele>199</ele>
        <time>2015-04-07T15:39:20.1Z</time>
      </trkpt>
      <trkpt lat="48.37914" lon="-3.52228">
        <ele>200</ele>
        <time>2015-04-07T15:39:26.1Z</time>
      </trkpt>
      <trkpt lat="48.37913" lon="-3.52228">
        <ele>200</ele>
        <time>2015-04-07T15:39:31.1Z</time>
      </trkpt>
      <trkpt lat="48.37913" lon="-3.5223">
        <ele>200</ele>
        <time>2015-04-07T15:39:38.1Z</time>
      </trkpt>
      <trkpt lat="48.37912" lon="-3.52229">
        <ele>200</ele>
        <time>2015-04-07T15:39:43.1Z</time>
      </trkpt>
      <trkpt lat="48.37909" lon="-3.5223">
        <ele>200</ele>
        <time>2015-04-07T15:39:48.1Z</time>
      </trkpt>
      <trkpt lat="48.37906" lon="-3.52232">
        <ele>201</ele>
        <time>2015-04-07T15:39:53.1Z</time>
      </trkpt>
      <trkpt lat="48.37903" lon="-3.52235">
        <ele>202</ele>
        <time>2015-04-07T15:39:58.1Z</time>
      </trkpt>
      <trkpt lat="48.37898" lon="-3.52238">
        <ele>202</ele>
        <time>2015-04-07T15:40:04.1Z</time>
      </trkpt>
      <trkpt lat="48.37894" lon="-3.5224">
        <ele>203</ele>
        <time>2015-04-07T15:40:10.1Z</time>
      </trkpt>
      <trkpt lat="48.3789" lon="-3.52244">
        <ele>204</ele>
        <time>2015-04-07T15:40:16.1Z</time>
      </trkpt>
      <trkpt lat="48.37886" lon="-3.52248">
        <ele>204</ele>
        <time>2015-04-07T15:40:21.1Z</time>
      </trkpt>
      <trkpt lat="48.37883" lon="-3.52252">
        <ele>205</ele>
        <time>2015-04-07T15:40:26.1Z</time>
      </trkpt>
      <trkpt lat="48.37879" lon="-3.52257">
        <ele>205</ele>
        <time>2015-04-07T15:40:32.1Z</time>
      </trkpt>
      <trkpt lat="48.37874" lon="-3.52262">
        <ele>206</ele>
        <time>2015-04-07T15:40:38.1Z</time>
      </trkpt>
      <trkpt lat="48.3787" lon="-3.52265">
        <ele>206</ele>
        <time>2015-04-07T15:40:43.1Z</time>
      </trkpt>
      <trkpt lat="48.37864" lon="-3.52269">
        <ele>206</ele>
        <time>2015-04-07T15:40:49.1Z</time>
      </trkpt>
      <trkpt lat="48.37859" lon="-3.52273">
        <ele>207</ele>
        <time>2015-04-07T15:40:55.1Z</time>
      </trkpt>
      <trkpt lat="48.37855" lon="-3.52277">
        <ele>207</ele>
        <time>2015-04-07T15:41:01.1Z</time>
      </trkpt>
      <trkpt lat="48.37851" lon="-3.5228">
        <ele>207</ele>
        <time>2015-04-07T15:41:06.1Z</time>
      </trkpt>
      <trkpt lat="48.37846" lon="-3.52285">
        <ele>208</ele>
        <time>2015-04-07T15:41:12.1Z</time>
      </trkpt>
      <trkpt lat="48.37842" lon="-3.52287">
        <ele>208</ele>
        <time>2015-04-07T15:41:17.1Z</time>
      </trkpt>
      <trkpt lat="48.37838" lon="-3.52291">
        <ele>208</ele>
        <time>2015-04-07T15:41:23.1Z</time>
      </trkpt>
      <trkpt lat="48.37836" lon="-3.52292">
        <ele>208</ele>
        <time>2015-04-07T15:41:29.1Z</time>
      </trkpt>
      <trkpt lat="48.3783" lon="-3.52294">
        <ele>208</ele>
        <time>2015-04-07T15:41:35.1Z</time>
      </trkpt>
      <trkpt lat="48.37826" lon="-3.52297">
        <ele>208</ele>
        <time>2015-04-07T15:41:40.1Z</time>
      </trkpt>
      <trkpt lat="48.37821" lon="-3.523">
        <ele>208</ele>
        <time>2015-04-07T15:41:46.1Z</time>
      </trkpt>
      <trkpt lat="48.37815" lon="-3.52302">
        <ele>208</ele>
        <time>2015-04-07T15:41:52.1Z</time>
      </trkpt>
      <trkpt lat="48.37809" lon="-3.52305">
        <ele>208</ele>
        <time>2015-04-07T15:41:58.1Z</time>
      </trkpt>
      <trkpt lat="48.37806" lon="-3.52305">
        <ele>209</ele>
        <time>2015-04-07T15:42:03.1Z</time>
      </trkpt>
      <trkpt lat="48.37801" lon="-3.52307">
        <ele>209</ele>
        <time>2015-04-07T15:42:09.1Z</time>
      </trkpt>
      <trkpt lat="48.37801" lon="-3.52307">
        <ele>209</ele>
        <time>2015-04-07T15:42:14.1Z</time>
      </trkpt>
      <trkpt lat="48.37795" lon="-3.52309">
        <ele>209</ele>
        <time>2015-04-07T15:42:20.1Z</time>
      </trkpt>
      <trkpt lat="48.37791" lon="-3.52309">
        <ele>210</ele>
        <time>2015-04-07T15:42:25.1Z</time>
      </trkpt>
      <trkpt lat="48.37786" lon="-3.52311">
        <ele>210</ele>
        <time>2015-04-07T15:42:30.1Z</time>
      </trkpt>
      <trkpt lat="48.3778" lon="-3.52314">
        <ele>209</ele>
        <time>2015-04-07T15:42:36.1Z</time>
      </trkpt>
      <trkpt lat="48.37775" lon="-3.52317">
        <ele>209</ele>
        <time>2015-04-07T15:42:42.1Z</time>
      </trkpt>
      <trkpt lat="48.3777" lon="-3.52317">
        <ele>210</ele>
        <time>2015-04-07T15:42:47.1Z</time>
      </trkpt>
      <trkpt lat="48.37765" lon="-3.52318">
        <ele>209</ele>
        <time>2015-04-07T15:42:52.1Z</time>
      </trkpt>
      <trkpt lat="48.37759" lon="-3.52319">
        <ele>209</ele>
        <time>2015-04-07T15:42:58.1Z</time>
      </trkpt>
      <trkpt lat="48.37754" lon="-3.52319">
        <ele>209</ele>
        <time>2015-04-07T15:43:03.1Z</time>
      </trkpt>
      <trkpt lat="48.37748" lon="-3.52321">
        <ele>210</ele>
        <time>2015-04-07T15:43:09.1Z</time>
      </trkpt>
      <trkpt lat="48.37743" lon="-3.52322">
        <ele>210</ele>
        <time>2015-04-07T15:43:14.1Z</time>
      </trkpt>
      <trkpt lat="48.37738" lon="-3.52324">
        <ele>210</ele>
        <time>2015-04-07T15:43:20.1Z</time>
      </trkpt>
      <trkpt lat="48.37733" lon="-3.52325">
        <ele>210</ele>
        <time>2015-04-07T15:43:25.1Z</time>
      </trkpt>
      <trkpt lat="48.37728" lon="-3.52325">
        <ele>209</ele>
        <time>2015-04-07T15:43:30.1Z</time>
      </trkpt>
      <trkpt lat="48.37722" lon="-3.52327">
        <ele>210</ele>
        <time>2015-04-07T15:43:36.1Z</time>
      </trkpt>
      <trkpt lat="48.37717" lon="-3.52328">
        <ele>210</ele>
        <time>2015-04-07T15:43:41.1Z</time>
      </trkpt>
      <trkpt lat="48.3771" lon="-3.52328">
        <ele>210</ele>
        <time>2015-04-07T15:43:47.1Z</time>
      </trkpt>
      <trkpt lat="48.37704" lon="-3.5233">
        <ele>209</ele>
        <time>2015-04-07T15:43:53.1Z</time>
      </trkpt>
      <trkpt lat="48.37699" lon="-3.52331">
        <ele>209</ele>
        <time>2015-04-07T15:43:58.1Z</time>
      </trkpt>
      <trkpt lat="48.37693" lon="-3.52332">
        <ele>210</ele>
        <time>2015-04-07T15:44:04.1Z</time>
      </trkpt>
      <trkpt lat="48.37686" lon="-3.52333">
        <ele>210</ele>
        <time>2015-04-07T15:44:10.1Z</time>
      </trkpt>
      <trkpt lat="48.3768" lon="-3.52334">
        <ele>210</ele>
        <time>2015-04-07T15:44:16.1Z</time>
      </trkpt>
      <trkpt lat="48.37675" lon="-3.52334">
        <ele>210</ele>
        <time>2015-04-07T15:44:21.1Z</time>
      </trkpt>
      <trkpt lat="48.37669" lon="-3.52335">
        <ele>210</ele>
        <time>2015-04-07T15:44:27.1Z</time>
      </trkpt>
      <trkpt lat="48.37664" lon="-3.52335">
        <ele>210</ele>
        <time>2015-04-07T15:44:32.1Z</time>
      </trkpt>
      <trkpt lat="48.37658" lon="-3.52336">
        <ele>211</ele>
        <time>2015-04-07T15:44:38.1Z</time>
      </trkpt>
      <trkpt lat="48.37653" lon="-3.52336">
        <ele>211</ele>
        <time>2015-04-07T15:44:43.1Z</time>
      </trkpt>
      <trkpt lat="48.37647" lon="-3.52336">
        <ele>211</ele>
        <time>2015-04-07T15:44:49.1Z</time>
      </trkpt>
      <trkpt lat="48.3764" lon="-3.52335">
        <ele>212</ele>
        <time>2015-04-07T15:44:55.1Z</time>
      </trkpt>
      <trkpt lat="48.37635" lon="-3.52334">
        <ele>212</ele>
        <time>2015-04-07T15:45:00.1Z</time>
      </trkpt>
      <trkpt lat="48.3763" lon="-3.52333">
        <ele>213</ele>
        <time>2015-04-07T15:45:05.1Z</time>
      </trkpt>
      <trkpt lat="48.37624" lon="-3.52332">
        <ele>213</ele>
        <time>2015-04-07T15:45:11.1Z</time>
      </trkpt>
      <trkpt lat="48.37618" lon="-3.52332">
        <ele>214</ele>
        <time>2015-04-07T15:45:17.1Z</time>
      </trkpt>
      <trkpt lat="48.37613" lon="-3.52331">
        <ele>214</ele>
        <time>2015-04-07T15:45:22.1Z</time>
      </trkpt>
      <trkpt lat="48.37608" lon="-3.52331">
        <ele>215</ele>
        <time>2015-04-07T15:45:28.1Z</time>
      </trkpt>
      <trkpt lat="48.37602" lon="-3.52329">
        <ele>215</ele>
        <time>2015-04-07T15:45:34.1Z</time>
      </trkpt>
      <trkpt lat="48.37596" lon="-3.52326">
        <ele>215</ele>
        <time>2015-04-07T15:45:40.1Z</time>
      </trkpt>
      <trkpt lat="48.37591" lon="-3.52325">
        <ele>216</ele>
        <time>2015-04-07T15:45:45.1Z</time>
      </trkpt>
      <trkpt lat="48.37585" lon="-3.52323">
        <ele>216</ele>
        <time>2015-04-07T15:45:51.1Z</time>
      </trkpt>
      <trkpt lat="48.37581" lon="-3.52321">
        <ele>216</ele>
        <time>2015-04-07T15:45:56.1Z</time>
      </trkpt>
      <trkpt lat="48.37577" lon="-3.52319">
        <ele>217</ele>
        <time>2015-04-07T15:46:02.1Z</time>
      </trkpt>
      <trkpt lat="48.37577" lon="-3.52319">
        <ele>217</ele>
        <time>2015-04-07T15:46:07.1Z</time>
      </trkpt>
      <trkpt lat="48.37576" lon="-3.52318">
        <ele>216</ele>
        <time>2015-04-07T15:46:13.1Z</time>
      </trkpt>
      <trkpt lat="48.37576" lon="-3.52318">
        <ele>217</ele>
        <time>2015-04-07T15:46:18.1Z</time>
      </trkpt>
      <trkpt lat="48.37574" lon="-3.52314">
        <ele>217</ele>
        <time>2015-04-07T15:46:23.1Z</time>
      </trkpt>
      <trkpt lat="48.37569" lon="-3.5231">
        <ele>217</ele>
        <time>2015-04-07T15:46:29.1Z</time>
      </trkpt>
      <trkpt lat="48.37564" lon="-3.52308">
        <ele>217</ele>
        <time>2015-04-07T15:46:34.1Z</time>
      </trkpt>
      <trkpt lat="48.37559" lon="-3.52307">
        <ele>217</ele>
        <time>2015-04-07T15:46:40.1Z</time>
      </trkpt>
      <trkpt lat="48.37554" lon="-3.52305">
        <ele>217</ele>
        <time>2015-04-07T15:46:45.1Z</time>
      </trkpt>
      <trkpt lat="48.37551" lon="-3.52304">
        <ele>218</ele>
        <time>2015-04-07T15:46:51.1Z</time>
      </trkpt>
      <trkpt lat="48.3755" lon="-3.52302">
        <ele>218</ele>
        <time>2015-04-07T15:46:57.1Z</time>
      </trkpt>
      <trkpt lat="48.37548" lon="-3.52298">
        <ele>218</ele>
        <time>2015-04-07T15:47:03.1Z</time>
      </trkpt>
      <trkpt lat="48.37543" lon="-3.52295">
        <ele>219</ele>
        <time>2015-04-07T15:47:08.1Z</time>
      </trkpt>
      <trkpt lat="48.37537" lon="-3.52292">
        <ele>219</ele>
        <time>2015-04-07T15:47:14.1Z</time>
      </trkpt>
      <trkpt lat="48.37533" lon="-3.52289">
        <ele>219</ele>
        <time>2015-04-07T15:47:19.1Z</time>
      </trkpt>
      <trkpt lat="48.37527" lon="-3.52287">
        <ele>220</ele>
        <time>2015-04-07T15:47:24.1Z</time>
      </trkpt>
      <trkpt lat="48.37522" lon="-3.52282">
        <ele>220</ele>
        <time>2015-04-07T15:47:30.1Z</time>
      </trkpt>
      <trkpt lat="48.37517" lon="-3.52279">
        <ele>219</ele>
        <time>2015-04-07T15:47:35.1Z</time>
      </trkpt>
      <trkpt lat="48.37512" lon="-3.52275">
        <ele>220</ele>
        <time>2015-04-07T15:47:41.1Z</time>
      </trkpt>
      <trkpt lat="48.37507" lon="-3.52273">
        <ele>220</ele>
        <time>2015-04-07T15:47:46.1Z</time>
      </trkpt>
      <trkpt lat="48.37502" lon="-3.52269">
        <ele>220</ele>
        <time>2015-04-07T15:47:52.1Z</time>
      </trkpt>
      <trkpt lat="48.37497" lon="-3.52265">
        <ele>220</ele>
        <time>2015-04-07T15:47:57.1Z</time>
      </trkpt>
      <trkpt lat="48.37492" lon="-3.52261">
        <ele>220</ele>
        <time>2015-04-07T15:48:03.1Z</time>
      </trkpt>
      <trkpt lat="48.37492" lon="-3.5226">
        <ele>221</ele>
        <time>2015-04-07T15:48:08.1Z</time>
      </trkpt>
      <trkpt lat="48.37488" lon="-3.52257">
        <ele>221</ele>
        <time>2015-04-07T15:48:14.1Z</time>
      </trkpt>
      <trkpt lat="48.37483" lon="-3.52254">
        <ele>222</ele>
        <time>2015-04-07T15:48:19.1Z</time>
      </trkpt>
      <trkpt lat="48.37477" lon="-3.52249">
        <ele>222</ele>
        <time>2015-04-07T15:48:25.1Z</time>
      </trkpt>
      <trkpt lat="48.37472" lon="-3.52245">
        <ele>222</ele>
        <time>2015-04-07T15:48:31.1Z</time>
      </trkpt>
      <trkpt lat="48.37467" lon="-3.52241">
        <ele>222</ele>
        <time>2015-04-07T15:48:36.1Z</time>
      </trkpt>
      <trkpt lat="48.37461" lon="-3.52236">
        <ele>223</ele>
        <time>2015-04-07T15:48:42.1Z</time>
      </trkpt>
      <trkpt lat="48.37456" lon="-3.52231">
        <ele>223</ele>
        <time>2015-04-07T15:48:48.1Z</time>
      </trkpt>
      <trkpt lat="48.37451" lon="-3.52227">
        <ele>223</ele>
        <time>2015-04-07T15:48:53.1Z</time>
      </trkpt>
      <trkpt lat="48.37447" lon="-3.52223">
        <ele>223</ele>
        <time>2015-04-07T15:48:58.1Z</time>
      </trkpt>
      <trkpt lat="48.37441" lon="-3.52219">
        <ele>223</ele>
        <time>2015-04-07T15:49:04.1Z</time>
      </trkpt>
      <trkpt lat="48.37435" lon="-3.52214">
        <ele>223</ele>
        <time>2015-04-07T15:49:10.1Z</time>
      </trkpt>
      <trkpt lat="48.37432" lon="-3.52211">
        <ele>223</ele>
        <time>2015-04-07T15:49:15.1Z</time>
      </trkpt>
      <trkpt lat="48.37428" lon="-3.52208">
        <ele>224</ele>
        <time>2015-04-07T15:49:20.1Z</time>
      </trkpt>
      <trkpt lat="48.37422" lon="-3.52203">
        <ele>224</ele>
        <time>2015-04-07T15:49:26.1Z</time>
      </trkpt>
      <trkpt lat="48.37416" lon="-3.52199">
        <ele>224</ele>
        <time>2015-04-07T15:49:32.1Z</time>
      </trkpt>
      <trkpt lat="48.37411" lon="-3.52195">
        <ele>224</ele>
        <time>2015-04-07T15:49:38.1Z</time>
      </trkpt>
      <trkpt lat="48.37407" lon="-3.52191">
        <ele>224</ele>
        <time>2015-04-07T15:49:43.1Z</time>
      </trkpt>
      <trkpt lat="48.37402" lon="-3.52188">
        <ele>224</ele>
        <time>2015-04-07T15:49:48.1Z</time>
      </trkpt>
      <trkpt lat="48.37398" lon="-3.52185">
        <ele>224</ele>
        <time>2015-04-07T15:49:54.1Z</time>
      </trkpt>
      <trkpt lat="48.37395" lon="-3.52183">
        <ele>224</ele>
        <time>2015-04-07T15:49:59.1Z</time>
      </trkpt>
      <trkpt lat="48.37392" lon="-3.52179">
        <ele>224</ele>
        <time>2015-04-07T15:50:04.1Z</time>
      </trkpt>
      <trkpt lat="48.37386" lon="-3.52175">
        <ele>224</ele>
        <time>2015-04-07T15:50:10.1Z</time>
      </trkpt>
      <trkpt lat="48.37381" lon="-3.52172">
        <ele>224</ele>
        <time>2015-04-07T15:50:15.1Z</time>
      </trkpt>
      <trkpt lat="48.37376" lon="-3.52168">
        <ele>224</ele>
        <time>2015-04-07T15:50:20.1Z</time>
      </trkpt>
      <trkpt lat="48.3737" lon="-3.52165">
        <ele>223</ele>
        <time>2015-04-07T15:50:26.1Z</time>
      </trkpt>
      <trkpt lat="48.37365" lon="-3.52162">
        <ele>224</ele>
        <time>2015-04-07T15:50:31.1Z</time>
      </trkpt>
      <trkpt lat="48.3736" lon="-3.52158">
        <ele>224</ele>
        <time>2015-04-07T15:50:37.1Z</time>
      </trkpt>
      <trkpt lat="48.37355" lon="-3.52155">
        <ele>224</ele>
        <time>2015-04-07T15:50:42.1Z</time>
      </trkpt>
      <trkpt lat="48.3735" lon="-3.52151">
        <ele>223</ele>
        <time>2015-04-07T15:50:48.1Z</time>
      </trkpt>
      <trkpt lat="48.37346" lon="-3.52148">
        <ele>223</ele>
        <time>2015-04-07T15:50:53.1Z</time>
      </trkpt>
      <trkpt lat="48.3734" lon="-3.52145">
        <ele>224</ele>
        <time>2015-04-07T15:50:58.1Z</time>
      </trkpt>
      <trkpt lat="48.37334" lon="-3.52141">
        <ele>224</ele>
        <time>2015-04-07T15:51:04.1Z</time>
      </trkpt>
      <trkpt lat="48.3733" lon="-3.52138">
        <ele>224</ele>
        <time>2015-04-07T15:51:09.1Z</time>
      </trkpt>
      <trkpt lat="48.37325" lon="-3.52135">
        <ele>224</ele>
        <time>2015-04-07T15:51:14.1Z</time>
      </trkpt>
      <trkpt lat="48.3732" lon="-3.52133">
        <ele>224</ele>
        <time>2015-04-07T15:51:19.1Z</time>
      </trkpt>
      <trkpt lat="48.37314" lon="-3.5213">
        <ele>224</ele>
        <time>2015-04-07T15:51:25.1Z</time>
      </trkpt>
      <trkpt lat="48.3731" lon="-3.52127">
        <ele>224</ele>
        <time>2015-04-07T15:51:30.1Z</time>
      </trkpt>
      <trkpt lat="48.37304" lon="-3.52125">
        <ele>224</ele>
        <time>2015-04-07T15:51:36.1Z</time>
      </trkpt>
      <trkpt lat="48.37299" lon="-3.52122">
        <ele>224</ele>
        <time>2015-04-07T15:51:41.1Z</time>
      </trkpt>
      <trkpt lat="48.37293" lon="-3.52118">
        <ele>224</ele>
        <time>2015-04-07T15:51:46.1Z</time>
      </trkpt>
      <trkpt lat="48.37287" lon="-3.52115">
        <ele>224</ele>
        <time>2015-04-07T15:51:52.1Z</time>
      </trkpt>
      <trkpt lat="48.37281" lon="-3.52112">
        <ele>224</ele>
        <time>2015-04-07T15:51:57.1Z</time>
      </trkpt>
      <trkpt lat="48.37275" lon="-3.5211">
        <ele>224</ele>
        <time>2015-04-07T15:52:03.1Z</time>
      </trkpt>
      <trkpt lat="48.3727" lon="-3.52107">
        <ele>224</ele>
        <time>2015-04-07T15:52:08.1Z</time>
      </trkpt>
      <trkpt lat="48.37264" lon="-3.52104">
        <ele>224</ele>
        <time>2015-04-07T15:52:14.1Z</time>
      </trkpt>
      <trkpt lat="48.37259" lon="-3.52102">
        <ele>224</ele>
        <time>2015-04-07T15:52:19.1Z</time>
      </trkpt>
      <trkpt lat="48.37253" lon="-3.521">
        <ele>224</ele>
        <time>2015-04-07T15:52:25.1Z</time>
      </trkpt>
      <trkpt lat="48.37248" lon="-3.52098">
        <ele>223</ele>
        <time>2015-04-07T15:52:31.1Z</time>
      </trkpt>
      <trkpt lat="48.37243" lon="-3.52097">
        <ele>223</ele>
        <time>2015-04-07T15:52:36.1Z</time>
      </trkpt>
      <trkpt lat="48.37237" lon="-3.52095">
        <ele>223</ele>
        <time>2015-04-07T15:52:42.1Z</time>
      </trkpt>
      <trkpt lat="48.37233" lon="-3.52093">
        <ele>223</ele>
        <time>2015-04-07T15:52:47.1Z</time>
      </trkpt>
      <trkpt lat="48.37227" lon="-3.52092">
        <ele>223</ele>
        <time>2015-04-07T15:52:53.1Z</time>
      </trkpt>
      <trkpt lat="48.37222" lon="-3.5209">
        <ele>223</ele>
        <time>2015-04-07T15:52:59.1Z</time>
      </trkpt>
      <trkpt lat="48.37216" lon="-3.52087">
        <ele>223</ele>
        <time>2015-04-07T15:53:05.1Z</time>
      </trkpt>
      <trkpt lat="48.3721" lon="-3.52085">
        <ele>223</ele>
        <time>2015-04-07T15:53:11.1Z</time>
      </trkpt>
      <trkpt lat="48.37205" lon="-3.52083">
        <ele>223</ele>
        <time>2015-04-07T15:53:17.1Z</time>
      </trkpt>
      <trkpt lat="48.372" lon="-3.5208">
        <ele>223</ele>
        <time>2015-04-07T15:53:22.1Z</time>
      </trkpt>
      <trkpt lat="48.37195" lon="-3.52077">
        <ele>222</ele>
        <time>2015-04-07T15:53:28.1Z</time>
      </trkpt>
      <trkpt lat="48.37189" lon="-3.52074">
        <ele>222</ele>
        <time>2015-04-07T15:53:34.1Z</time>
      </trkpt>
      <trkpt lat="48.37185" lon="-3.52071">
        <ele>222</ele>
        <time>2015-04-07T15:53:39.1Z</time>
      </trkpt>
      <trkpt lat="48.3718" lon="-3.52068">
        <ele>222</ele>
        <time>2015-04-07T15:53:44.1Z</time>
      </trkpt>
      <trkpt lat="48.37176" lon="-3.52066">
        <ele>222</ele>
        <time>2015-04-07T15:53:49.1Z</time>
      </trkpt>
      <trkpt lat="48.37172" lon="-3.52062">
        <ele>222</ele>
        <time>2015-04-07T15:53:54.1Z</time>
      </trkpt>
      <trkpt lat="48.37168" lon="-3.52059">
        <ele>222</ele>
        <time>2015-04-07T15:54:00.1Z</time>
      </trkpt>
      <trkpt lat="48.37164" lon="-3.52056">
        <ele>222</ele>
        <time>2015-04-07T15:54:05.1Z</time>
      </trkpt>
      <trkpt lat="48.37159" lon="-3.52052">
        <ele>222</ele>
        <time>2015-04-07T15:54:11.1Z</time>
      </trkpt>
      <trkpt lat="48.37154" lon="-3.52049">
        <ele>221</ele>
        <time>2015-04-07T15:54:16.1Z</time>
      </trkpt>
      <trkpt lat="48.37148" lon="-3.52045">
        <ele>221</ele>
        <time>2015-04-07T15:54:22.1Z</time>
      </trkpt>
      <trkpt lat="48.37143" lon="-3.52041">
        <ele>221</ele>
        <time>2015-04-07T15:54:27.1Z</time>
      </trkpt>
      <trkpt lat="48.37139" lon="-3.52037">
        <ele>221</ele>
        <time>2015-04-07T15:54:33.1Z</time>
      </trkpt>
      <trkpt lat="48.37137" lon="-3.52034">
        <ele>221</ele>
        <time>2015-04-07T15:54:38.1Z</time>
      </trkpt>
      <trkpt lat="48.37134" lon="-3.52032">
        <ele>221</ele>
        <time>2015-04-07T15:54:43.1Z</time>
      </trkpt>
      <trkpt lat="48.37128" lon="-3.52029">
        <ele>220</ele>
        <time>2015-04-07T15:54:49.1Z</time>
      </trkpt>
      <trkpt lat="48.37122" lon="-3.52027">
        <ele>219</ele>
        <time>2015-04-07T15:54:54.1Z</time>
      </trkpt>
      <trkpt lat="48.37115" lon="-3.52025">
        <ele>220</ele>
        <time>2015-04-07T15:55:00.1Z</time>
      </trkpt>
      <trkpt lat="48.3711" lon="-3.52023">
        <ele>220</ele>
        <time>2015-04-07T15:55:05.1Z</time>
      </trkpt>
      <trkpt lat="48.37108" lon="-3.52022">
        <ele>220</ele>
        <time>2015-04-07T15:55:10.1Z</time>
      </trkpt>
      <trkpt lat="48.37106" lon="-3.52019">
        <ele>220</ele>
        <time>2015-04-07T15:55:16.1Z</time>
      </trkpt>
      <trkpt lat="48.37102" lon="-3.52018">
        <ele>220</ele>
        <time>2015-04-07T15:55:21.1Z</time>
      </trkpt>
      <trkpt lat="48.37096" lon="-3.52019">
        <ele>220</ele>
        <time>2015-04-07T15:55:26.1Z</time>
      </trkpt>
      <trkpt lat="48.37091" lon="-3.52018">
        <ele>220</ele>
        <time>2015-04-07T15:55:31.1Z</time>
      </trkpt>
      <trkpt lat="48.37084" lon="-3.52018">
        <ele>220</ele>
        <time>2015-04-07T15:55:37.1Z</time>
      </trkpt>
      <trkpt lat="48.37078" lon="-3.52018">
        <ele>220</ele>
        <time>2015-04-07T15:55:42.1Z</time>
      </trkpt>
      <trkpt lat="48.37072" lon="-3.52018">
        <ele>219</ele>
        <time>2015-04-07T15:55:47.1Z</time>
      </trkpt>
      <trkpt lat="48.37067" lon="-3.52019">
        <ele>220</ele>
        <time>2015-04-07T15:55:53.1Z</time>
      </trkpt>
      <trkpt lat="48.37061" lon="-3.52022">
        <ele>220</ele>
        <time>2015-04-07T15:55:58.1Z</time>
      </trkpt>
      <trkpt lat="48.37055" lon="-3.52023">
        <ele>220</ele>
        <time>2015-04-07T15:56:04.1Z</time>
      </trkpt>
      <trkpt lat="48.3705" lon="-3.52023">
        <ele>220</ele>
        <time>2015-04-07T15:56:09.1Z</time>
      </trkpt>
      <trkpt lat="48.37043" lon="-3.52025">
        <ele>220</ele>
        <time>2015-04-07T15:56:15.1Z</time>
      </trkpt>
      <trkpt lat="48.37037" lon="-3.52026">
        <ele>220</ele>
        <time>2015-04-07T15:56:21.1Z</time>
      </trkpt>
      <trkpt lat="48.37032" lon="-3.52027">
        <ele>221</ele>
        <time>2015-04-07T15:56:26.1Z</time>
      </trkpt>
      <trkpt lat="48.37027" lon="-3.52026">
        <ele>221</ele>
        <time>2015-04-07T15:56:31.1Z</time>
      </trkpt>
      <trkpt lat="48.37026" lon="-3.52026">
        <ele>221</ele>
        <time>2015-04-07T15:56:37.1Z</time>
      </trkpt>
      <trkpt lat="48.37022" lon="-3.52026">
        <ele>221</ele>
        <time>2015-04-07T15:56:42.1Z</time>
      </trkpt>
      <trkpt lat="48.37021" lon="-3.52025">
        <ele>221</ele>
        <time>2015-04-07T15:56:47.1Z</time>
      </trkpt>
      <trkpt lat="48.37015" lon="-3.52027">
        <ele>221</ele>
        <time>2015-04-07T15:56:53.1Z</time>
      </trkpt>
      <trkpt lat="48.37009" lon="-3.5203">
        <ele>221</ele>
        <time>2015-04-07T15:56:59.1Z</time>
      </trkpt>
      <trkpt lat="48.37004" lon="-3.52032">
        <ele>221</ele>
        <time>2015-04-07T15:57:04.1Z</time>
      </trkpt>
      <trkpt lat="48.36997" lon="-3.52032">
        <ele>221</ele>
        <time>2015-04-07T15:57:10.1Z</time>
      </trkpt>
      <trkpt lat="48.3699" lon="-3.52034">
        <ele>222</ele>
        <time>2015-04-07T15:57:16.1Z</time>
      </trkpt>
      <trkpt lat="48.36985" lon="-3.52034">
        <ele>221</ele>
        <time>2015-04-07T15:57:21.1Z</time>
      </trkpt>
      <trkpt lat="48.36978" lon="-3.52035">
        <ele>221</ele>
        <time>2015-04-07T15:57:27.1Z</time>
      </trkpt>
      <trkpt lat="48.36973" lon="-3.52037">
        <ele>221</ele>
        <time>2015-04-07T15:57:32.1Z</time>
      </trkpt>
      <trkpt lat="48.36966" lon="-3.52038">
        <ele>221</ele>
        <time>2015-04-07T15:57:38.1Z</time>
      </trkpt>
      <trkpt lat="48.36961" lon="-3.52039">
        <ele>221</ele>
        <time>2015-04-07T15:57:43.1Z</time>
      </trkpt>
      <trkpt lat="48.36956" lon="-3.5204">
        <ele>221</ele>
        <time>2015-04-07T15:57:48.1Z</time>
      </trkpt>
      <trkpt lat="48.3695" lon="-3.52041">
        <ele>221</ele>
        <time>2015-04-07T15:57:54.1Z</time>
      </trkpt>
      <trkpt lat="48.3695" lon="-3.52041">
        <ele>221</ele>
        <time>2015-04-07T15:57:59.1Z</time>
      </trkpt>
      <trkpt lat="48.36949" lon="-3.5204">
        <ele>221</ele>
        <time>2015-04-07T15:58:04.1Z</time>
      </trkpt>
      <trkpt lat="48.36943" lon="-3.5204">
        <ele>220</ele>
        <time>2015-04-07T15:58:10.1Z</time>
      </trkpt>
      <trkpt lat="48.36937" lon="-3.52042">
        <ele>221</ele>
        <time>2015-04-07T15:58:16.1Z</time>
      </trkpt>
      <trkpt lat="48.36932" lon="-3.52044">
        <ele>221</ele>
        <time>2015-04-07T15:58:21.1Z</time>
      </trkpt>
      <trkpt lat="48.36927" lon="-3.52045">
        <ele>220</ele>
        <time>2015-04-07T15:58:26.1Z</time>
      </trkpt>
      <trkpt lat="48.36921" lon="-3.52047">
        <ele>220</ele>
        <time>2015-04-07T15:58:31.1Z</time>
      </trkpt>
      <trkpt lat="48.36914" lon="-3.52049">
        <ele>221</ele>
        <time>2015-04-07T15:58:37.1Z</time>
      </trkpt>
      <trkpt lat="48.36909" lon="-3.52049">
        <ele>221</ele>
        <time>2015-04-07T15:58:42.1Z</time>
      </trkpt>
      <trkpt lat="48.36907" lon="-3.52049">
        <ele>220</ele>
        <time>2015-04-07T15:58:48.1Z</time>
      </trkpt>
      <trkpt lat="48.36907" lon="-3.52049">
        <ele>220</ele>
        <time>2015-04-07T15:58:54.1Z</time>
      </trkpt>
      <trkpt lat="48.36904" lon="-3.5205">
        <ele>221</ele>
        <time>2015-04-07T15:59:00.1Z</time>
      </trkpt>
      <trkpt lat="48.36898" lon="-3.52051">
        <ele>221</ele>
        <time>2015-04-07T15:59:05.1Z</time>
      </trkpt>
      <trkpt lat="48.36893" lon="-3.52051">
        <ele>220</ele>
        <time>2015-04-07T15:59:10.1Z</time>
      </trkpt>
      <trkpt lat="48.36887" lon="-3.52053">
        <ele>220</ele>
        <time>2015-04-07T15:59:16.1Z</time>
      </trkpt>
      <trkpt lat="48.3688" lon="-3.52054">
        <ele>220</ele>
        <time>2015-04-07T15:59:22.1Z</time>
      </trkpt>
      <trkpt lat="48.36875" lon="-3.52055">
        <ele>220</ele>
        <time>2015-04-07T15:59:27.1Z</time>
      </trkpt>
      <trkpt lat="48.36871" lon="-3.52055">
        <ele>221</ele>
        <time>2015-04-07T15:59:32.1Z</time>
      </trkpt>
      <trkpt lat="48.36867" lon="-3.52053">
        <ele>220</ele>
        <time>2015-04-07T15:59:37.1Z</time>
      </trkpt>
      <trkpt lat="48.36866" lon="-3.52052">
        <ele>220</ele>
        <time>2015-04-07T15:59:43.1Z</time>
      </trkpt>
      <trkpt lat="48.36862" lon="-3.52053">
        <ele>220</ele>
        <time>2015-04-07T15:59:48.1Z</time>
      </trkpt>
      <trkpt lat="48.36856" lon="-3.52056">
        <ele>221</ele>
        <time>2015-04-07T15:59:53.1Z</time>
      </trkpt>
      <trkpt lat="48.3685" lon="-3.52059">
        <ele>221</ele>
        <time>2015-04-07T15:59:59.1Z</time>
      </trkpt>
      <trkpt lat="48.36843" lon="-3.5206">
        <ele>222</ele>
        <time>2015-04-07T16:00:05.1Z</time>
      </trkpt>
      <trkpt lat="48.36837" lon="-3.52062">
        <ele>222</ele>
        <time>2015-04-07T16:00:10.1Z</time>
      </trkpt>
      <trkpt lat="48.36831" lon="-3.52064">
        <ele>222</ele>
        <time>2015-04-07T16:00:16.1Z</time>
      </trkpt>
      <trkpt lat="48.36824" lon="-3.52065">
        <ele>222</ele>
        <time>2015-04-07T16:00:22.1Z</time>
      </trkpt>
      <trkpt lat="48.36819" lon="-3.52067">
        <ele>222</ele>
        <time>2015-04-07T16:00:27.1Z</time>
      </trkpt>
      <trkpt lat="48.36814" lon="-3.52069">
        <ele>221</ele>
        <time>2015-04-07T16:00:33.1Z</time>
      </trkpt>
      <trkpt lat="48.36809" lon="-3.52071">
        <ele>222</ele>
        <time>2015-04-07T16:00:38.1Z</time>
      </trkpt>
      <trkpt lat="48.36803" lon="-3.52072">
        <ele>222</ele>
        <time>2015-04-07T16:00:44.1Z</time>
      </trkpt>
      <trkpt lat="48.36799" lon="-3.52073">
        <ele>222</ele>
        <time>2015-04-07T16:00:49.1Z</time>
      </trkpt>
      <trkpt lat="48.36793" lon="-3.52075">
        <ele>222</ele>
        <time>2015-04-07T16:00:55.1Z</time>
      </trkpt>
      <trkpt lat="48.36789" lon="-3.52077">
        <ele>221</ele>
        <time>2015-04-07T16:01:00.1Z</time>
      </trkpt>
      <trkpt lat="48.36784" lon="-3.52078">
        <ele>220</ele>
        <time>2015-04-07T16:01:06.1Z</time>
      </trkpt>
      <trkpt lat="48.36781" lon="-3.52071">
        <ele>220</ele>
        <time>2015-04-07T16:01:11.1Z</time>
      </trkpt>
      <trkpt lat="48.36779" lon="-3.52064">
        <ele>221</ele>
        <time>2015-04-07T16:01:16.1Z</time>
      </trkpt>
      <trkpt lat="48.36776" lon="-3.52058">
        <ele>222</ele>
        <time>2015-04-07T16:01:22.1Z</time>
      </trkpt>
      <trkpt lat="48.36771" lon="-3.52057">
        <ele>221</ele>
        <time>2015-04-07T16:01:27.1Z</time>
      </trkpt>
      <trkpt lat="48.36766" lon="-3.5206">
        <ele>222</ele>
        <time>2015-04-07T16:01:32.1Z</time>
      </trkpt>
      <trkpt lat="48.3676" lon="-3.52061">
        <ele>222</ele>
        <time>2015-04-07T16:01:38.1Z</time>
      </trkpt>
      <trkpt lat="48.36753" lon="-3.52062">
        <ele>222</ele>
        <time>2015-04-07T16:01:44.1Z</time>
      </trkpt>
      <trkpt lat="48.36746" lon="-3.52061">
        <ele>221</ele>
        <time>2015-04-07T16:01:50.1Z</time>
      </trkpt>
      <trkpt lat="48.36739" lon="-3.52061">
        <ele>221</ele>
        <time>2015-04-07T16:01:56.1Z</time>
      </trkpt>
      <trkpt lat="48.36735" lon="-3.52061">
        <ele>220</ele>
        <time>2015-04-07T16:02:01.1Z</time>
      </trkpt>
      <trkpt lat="48.3673" lon="-3.52058">
        <ele>220</ele>
        <time>2015-04-07T16:02:07.1Z</time>
      </trkpt>
      <trkpt lat="48.36726" lon="-3.52057">
        <ele>220</ele>
        <time>2015-04-07T16:02:13.1Z</time>
      </trkpt>
      <trkpt lat="48.36724" lon="-3.52056">
        <ele>220</ele>
        <time>2015-04-07T16:02:19.1Z</time>
      </trkpt>
      <trkpt lat="48.3672" lon="-3.52053">
        <ele>219</ele>
        <time>2015-04-07T16:02:25.1Z</time>
      </trkpt>
      <trkpt lat="48.36717" lon="-3.52049">
        <ele>219</ele>
        <time>2015-04-07T16:02:30.1Z</time>
      </trkpt>
      <trkpt lat="48.36715" lon="-3.5205">
        <ele>219</ele>
        <time>2015-04-07T16:02:36.1Z</time>
      </trkpt>
      <trkpt lat="48.36715" lon="-3.5205">
        <ele>219</ele>
        <time>2015-04-07T16:02:41.1Z</time>
      </trkpt>
      <trkpt lat="48.36716" lon="-3.5205">
        <ele>219</ele>
        <time>2015-04-07T16:02:47.1Z</time>
      </trkpt>
      <trkpt lat="48.36715" lon="-3.5205">
        <ele>218</ele>
        <time>2015-04-07T16:02:48.1Z</time>
      </trkpt>
    </trkseg>
  </trk>
</gpx>